[[{"header":{"parameterUnit":"m.s-1","parameterCategory":1,"la1":30.6,"la2":28.766,"lo1":-90.7593,"lo2":-88.6598,"dy":0.0162,"dx":0.0183,"nx":116,"ny":114,"refTime":"2023-04-20T12:00:00:Z","depth":0,"parameterNumber":2,"parameterNumberName":"U-component_of_WINDS"},"data":[0.0,0.0,0.0,0.0,0.0,0.0,0.0,0.0,0.0,0.0,0.0,0.0,0.0,0.0,0.0,0.0,0.0,0.0,0.0,0.0,0.0,0.0,0.0,0.0,0.0,0.0,0.0,0.0,0.0,0.0,0.0,0.0,0.0,0.0,0.0,0.0,0.0,0.0,0.0,0.0,0.0,0.0,0.0,0.0,0.0,0.0,0.0,0.0,0.0,0.0,0.0,0.0,0.0,0.0,0.0,0.0,0.0,0.0,0.0,0.0,0.0,0.0,0.0,0.0,0.0,0.0,0.0,0.0,0.0,0.0,0.0,0.0,0.0,0.0,0.0,0.0,0.0,0.0,0.0,0.0,0.0,0.0,0.0,0.0,0.0,0.0,0.0,0.0,0.0,0.0,0.0,0.0,0.0,0.0,0.0,0.0,0.0,0.0,0.0,0.0,0.0,0.0,0.0,0.0,0.0,0.0,0.0,0.0,0.0,0.0,0.0,0.0,0.0,0.0,0.0,0.0,0.0,0.0,0.0,0.0,0.0,0.0,0.0,0.0,0.0,0.0,0.0,0.0,0.0,0.0,0.0,0.0,0.0,0.0,0.0,0.0,0.0,0.0,0.0,0.0,0.0,0.0,0.0,0.0,0.0,0.0,0.0,0.0,0.0,0.0,0.0,0.0,0.0,0.0,0.0,0.0,0.0,0.0,0.0,0.0,0.0,0.0,0.0,0.0,0.0,0.0,0.0,0.0,0.0,0.0,0.0,0.0,0.0,0.0,0.0,0.0,0.0,0.0,0.0,0.0,0.0,0.0,0.0,0.0,0.0,0.0,0.0,0.0,0.0,0.0,0.0,0.0,0.0,0.0,0.0,0.0,0.0,0.0,0.0,0.0,0.0,0.0,0.0,0.0,0.0,0.0,0.0,0.0,0.0,0.0,0.0,0.0,0.0,0.0,0.0,0.0,0.0,0.0,0.0,0.0,0.0,0.0,0.0,0.0,0.0,0.0,0.0,0.0,0.0,0.0,0.0,0.0,0.0,0.0,0.0,0.0,0.0,0.0,0.0,0.0,0.0,0.0,0.0,0.0,0.0,0.0,0.0,0.0,0.0,0.0,0.0,0.0,0.0,0.0,0.0,0.0,0.0,0.0,0.0,0.0,0.0,0.0,0.0,0.0,0.0,0.0,0.0,0.0,0.0,0.0,0.0,0.0,0.0,0.0,0.0,0.0,0.0,0.0,0.0,0.0,0.0,0.0,0.0,0.0,0.0,0.0,0.0,0.0,0.0,0.0,0.0,0.0,0.0,0.0,0.0,0.0,0.0,0.0,0.0,0.0,0.0,0.0,0.0,0.0,0.0,0.0,0.0,0.0,0.0,0.0,0.0,0.0,0.0,0.0,0.0,0.0,0.0,0.0,0.0,0.0,0.0,0.0,0.0,0.0,0.0,0.0,0.0,0.0,0.0,0.0,0.0,0.0,0.0,0.0,0.0,0.0,0.0,0.0,0.0,0.0,0.0,0.0,0.0,0.0,0.0,0.0,0.0,0.0,0.0,0.0,0.0,0.0,0.0,0.0,0.0,0.0,0.0,0.0,0.0,0.0,0.0,0.0,0.0,0.0,0.0,0.0,0.0,0.0,0.0,0.0,0.0,0.0,0.0,0.0,0.0,0.0,0.0,0.0,0.0,0.0,0.0,0.0,0.0,0.0,0.0,0.0,0.0,0.0,0.0,0.0,0.0,0.0,0.0,0.0,0.0,0.0,0.0,0.0,0.0,0.0,0.0,0.0,0.0,0.0,0.0,0.0,0.0,0.0,0.0,0.0,0.0,0.0,0.0,0.0,0.0,0.0,0.0,0.0,0.0,0.0,0.0,0.0,0.0,0.0,0.0,0.0,0.0,0.0,0.0,0.0,0.0,0.0,0.0,0.0,0.0,0.0,0.0,0.0,0.0,0.0,0.0,0.0,0.0,0.0,0.0,0.0,0.0,0.0,0.0,0.0,0.0,0.0,0.0,0.0,0.0,0.0,0.0,0.0,0.0,0.0,0.0,0.0,0.0,0.0,0.0,0.0,0.0,0.0,0.0,0.0,0.0,0.0,0.0,0.0,0.0,0.0,0.0,0.0,0.0,0.0,0.0,0.0,0.0,0.0,0.0,0.0,0.0,0.0,0.0,0.0,0.0,0.0,0.0,0.0,0.0,0.0,0.0,0.0,0.0,0.0,0.0,0.0,0.0,0.0,0.0,0.0,0.0,0.0,0.0,0.0,0.0,0.0,0.0,0.0,0.0,0.0,0.0,0.0,0.0,0.0,0.0,0.0,0.0,0.0,0.0,0.0,0.0,0.0,0.0,0.0,0.0,0.0,0.0,0.0,0.0,0.0,0.0,0.0,0.0,0.0,0.0,0.0,0.0,0.0,0.0,0.0,0.0,0.0,0.0,0.0,0.0,0.0,0.0,0.0,0.0,0.0,0.0,0.0,0.0,0.0,0.0,0.0,0.0,0.0,0.0,0.0,0.0,0.0,0.0,0.0,0.0,0.0,0.0,0.0,0.0,0.0,0.0,0.0,0.0,0.0,0.0,0.0,0.0,0.0,0.0,0.0,0.0,0.0,0.0,0.0,0.0,0.0,0.0,0.0,0.0,0.0,0.0,0.0,0.0,0.0,0.0,0.0,0.0,0.0,0.0,0.0,0.0,0.0,0.0,0.0,0.0,0.0,0.0,0.0,0.0,0.0,0.0,0.0,0.0,0.0,0.0,0.0,0.0,0.0,0.0,0.0,0.0,0.0,0.0,0.0,0.0,0.0,0.0,0.0,0.0,0.0,0.0,0.0,0.0,0.0,0.0,0.0,0.0,0.0,0.0,0.0,0.0,0.0,0.0,0.0,0.0,0.0,0.0,0.0,0.0,0.0,0.0,0.0,0.0,0.0,0.0,0.0,0.0,0.0,0.0,0.0,0.0,0.0,0.0,0.0,0.0,0.0,0.0,0.0,0.0,0.0,0.0,0.0,0.0,0.0,0.0,0.0,0.0,0.0,0.0,0.0,0.0,0.0,0.0,0.0,0.0,0.0,0.0,0.0,0.0,0.0,0.0,0.0,0.0,0.0,0.0,0.0,0.0,0.0,0.0,0.0,0.0,0.0,0.0,0.0,0.0,0.0,0.0,0.0,0.0,0.0,0.0,0.0,0.0,0.0,0.0,0.0,0.0,0.0,0.0,0.0,0.0,0.0,0.0,0.0,0.0,0.0,0.0,0.0,0.0,0.0,0.0,0.0,0.0,0.0,0.0,0.0,0.0,0.0,0.0,0.0,0.0,0.0,0.0,0.0,0.0,0.0,0.0,0.0,0.0,0.0,0.0,0.0,0.0,0.0,0.0,0.0,0.0,0.0,0.0,0.0,0.0,0.0,0.0,0.0,0.0,0.0,0.0,0.0,0.0,0.0,0.0,0.0,0.0,0.0,0.0,0.0,0.0,0.0,0.0,0.0,0.0,0.0,0.0,0.0,0.0,0.0,0.0,0.0,0.0,0.0,0.0,0.0,0.0,0.0,0.0,0.0,0.0,0.0,0.0,0.0,0.0,0.0,0.0,0.0,0.0,0.0,0.0,0.0,0.0,0.0,0.0,0.0,0.0,0.0,0.0,0.0,0.0,0.0,0.0,0.0,0.0,0.0,0.0,0.0,0.0,0.0,0.0,0.0,0.0,0.0,0.0,0.0,0.0,0.0,0.0,0.0,0.0,0.0,0.0,0.0,0.0,0.0,0.0,0.0,0.0,0.0,0.0,0.0,0.0,0.0,0.0,0.0,0.0,0.0,0.0,0.0,0.0,0.0,0.0,0.0,0.0,0.0,0.0,0.0,0.0,0.0,0.0,0.0,0.0,0.0,0.0,0.0,0.0,0.0,0.0,0.0,0.0,0.0,0.0,0.0,0.0,0.0,0.0,0.0,0.0,0.0,0.0,0.0,0.0,0.0,0.0,0.0,0.0,0.0,0.0,0.0,0.0,0.0,0.0,0.0,0.0,0.0,0.0,0.0,0.0,0.0,0.0,0.0,0.0,0.0,0.0,0.0,0.0,0.0,0.0,0.0,0.0,0.0,0.0,0.0,0.0,0.0,0.0,0.0,0.0,0.0,0.0,0.0,0.0,0.0,0.0,0.0,0.0,0.0,0.0,0.0,0.0,0.0,0.0,0.0,0.0,0.0,0.0,0.0,0.0,0.0,0.0,0.0,0.0,0.0,0.0,0.0,0.0,0.0,0.0,0.0,0.0,0.0,0.0,0.0,0.0,0.0,0.0,0.0,0.0,0.0,0.0,0.0,0.0,0.0,0.0,0.0,0.0,0.0,0.0,0.0,0.0,0.0,0.0,0.0,0.0,0.0,0.0,0.0,0.0,0.0,0.0,0.0,0.0,0.0,0.0,0.0,0.0,0.0,0.0,0.0,0.0,0.0,0.0,0.0,0.0,0.0,0.0,0.0,0.0,0.0,0.0,0.0,0.0,0.0,0.0,0.0,0.0,0.0,0.0,0.0,0.0,0.0,0.0,0.0,0.0,0.0,0.0,0.0,0.0,0.0,0.0,0.0,0.0,0.0,0.0,0.0,0.0,0.0,0.0,0.0,0.0,0.0,0.0,0.0,0.0,0.0,0.0,0.0,0.0,0.0,0.0,0.0,0.0,0.0,0.0,0.0,0.0,0.0,0.0,0.0,0.0,0.0,0.0,0.0,0.0,0.0,0.0,0.0,0.0,0.0,0.0,0.0,0.0,0.0,0.0,0.0,0.0,0.0,0.0,0.0,0.0,0.0,0.0,0.0,0.0,0.0,0.0,0.0,0.0,0.0,0.0,0.0,0.0,0.0,0.0,0.0,0.0,0.0,0.0,0.0,0.0,0.0,0.0,0.0,0.0,0.0,0.0,0.0,0.0,0.0,0.0,0.0,0.0,0.0,0.0,0.0,0.0,0.0,0.0,0.0,0.0,0.0,0.0,0.0,0.0,0.0,0.0,0.0,0.0,0.0,0.0,0.0,0.0,0.0,0.0,0.0,0.0,0.0,0.0,0.0,0.0,0.0,0.0,0.0,0.0,0.0,0.0,0.0,0.0,0.0,0.0,0.0,0.0,0.0,0.0,0.0,0.0,0.0,0.0,0.0,0.0,0.0,0.0,0.0,0.0,0.0,0.0,0.0,0.0,0.0,0.0,0.0,0.0,0.0,0.0,0.0,0.0,0.0,0.0,0.0,0.0,0.0,0.0,0.0,0.0,0.0,0.0,0.0,0.0,0.0,0.0,0.0,0.0,0.0,0.0,0.0,0.0,0.0,0.0,0.0,0.0,0.0,0.0,0.0,0.0,0.0,0.0,0.0,0.0,0.0,0.0,0.0,0.0,0.0,0.0,0.0,0.0,0.0,0.0,0.0,0.0,0.0,0.0,0.0,0.0,0.0,0.0,0.0,0.0,0.0,0.0,0.0,0.0,0.0,0.0,0.0,0.0,0.0,0.0,0.0,0.0,0.0,0.0,0.0,0.0,0.0,0.0,0.0,0.0,0.0,0.0,0.0,0.0,0.0,0.0,0.0,0.0,0.0,0.0,0.0,0.0,0.0,0.0,0.0,0.0,0.0,0.0,0.0,0.0,0.0,0.0,0.0,0.0,0.0,0.0,0.0,0.0,0.0,0.0,0.0,0.0,0.0,0.0,0.0,0.0,0.0,0.0,0.0,0.0,0.0,0.0,0.0,0.0,0.0,0.0,0.0,0.0,0.0,0.0,0.0,0.0,0.0,0.0,0.0,0.0,0.0,0.0,0.0,0.0,0.0,0.0,0.0,0.0,0.0,0.0,0.0,0.0,0.0,0.0,0.0,0.0,0.0,0.0,0.0,0.0,0.0,0.0,0.0,0.0,0.0,0.0,0.0,0.0,0.0,0.0,0.0,0.0,0.0,0.0,0.0,0.0,0.0,0.0,0.0,0.0,0.0,0.0,0.0,0.0,0.0,0.0,0.0,0.0,0.0,0.0,0.0,0.0,0.0,0.0,0.0,0.0,0.0,0.0,0.0,0.0,0.0,0.0,0.0,0.0,0.0,0.0,0.0,0.0,0.0,0.0,0.0,0.0,0.0,-4.675,-4.3271,0.0,0.0,0.0,0.0,0.0,0.0,0.0,0.0,0.0,0.0,0.0,0.0,0.0,0.0,0.0,0.0,0.0,0.0,0.0,0.0,0.0,0.0,0.0,0.0,0.0,0.0,0.0,0.0,0.0,0.0,0.0,0.0,0.0,0.0,0.0,0.0,0.0,-5.7425,-5.7255,-5.6834,-5.6286,-5.5474,-5.4518,-5.3363,0.0,0.0,0.0,0.0,0.0,0.0,0.0,0.0,0.0,0.0,0.0,0.0,0.0,0.0,0.0,0.0,0.0,0.0,0.0,0.0,0.0,0.0,0.0,0.0,0.0,0.0,0.0,0.0,0.0,0.0,0.0,0.0,0.0,0.0,0.0,0.0,0.0,0.0,0.0,0.0,0.0,0.0,0.0,0.0,0.0,0.0,0.0,0.0,0.0,0.0,0.0,0.0,0.0,0.0,0.0,0.0,0.0,0.0,0.0,0.0,0.0,0.0,0.0,0.0,0.0,0.0,0.0,0.0,0.0,0.0,-5.1972,-4.8896,0.0,0.0,0.0,0.0,0.0,0.0,0.0,0.0,0.0,0.0,0.0,0.0,0.0,0.0,0.0,0.0,0.0,0.0,0.0,0.0,0.0,0.0,0.0,-5.9977,-6.0203,-6.0203,-6.0203,-6.0203,-6.0203,0.0,0.0,0.0,0.0,0.0,-5.8835,-5.9194,-5.899,-5.8119,-5.8524,-5.8193,-5.7229,-5.7229,-5.6814,-5.6051,-5.5155,0.0,0.0,0.0,0.0,0.0,0.0,0.0,0.0,0.0,0.0,0.0,0.0,0.0,0.0,0.0,0.0,0.0,0.0,0.0,0.0,0.0,0.0,0.0,0.0,0.0,0.0,0.0,0.0,0.0,0.0,0.0,0.0,0.0,0.0,0.0,0.0,0.0,0.0,0.0,0.0,0.0,0.0,0.0,0.0,0.0,0.0,0.0,0.0,0.0,0.0,0.0,0.0,0.0,0.0,0.0,0.0,0.0,0.0,0.0,0.0,0.0,0.0,0.0,-5.73,-5.7761,-5.7761,-5.7761,-5.8314,-5.9164,-5.6841,-5.474,-5.2762,-4.9811,0.0,0.0,0.0,0.0,0.0,0.0,0.0,0.0,0.0,0.0,0.0,0.0,0.0,0.0,0.0,0.0,0.0,0.0,0.0,-6.0161,-6.0585,-6.0659,-6.0722,-6.0722,-6.0722,-6.0722,-6.0722,0.0,0.0,0.0,0.0,-5.9372,-5.9302,-5.9354,-5.9121,-5.8611,-5.8673,-5.8595,-5.8471,-5.8471,-5.8186,-5.7642,-5.6197,-5.5547,-5.5547,0.0,0.0,0.0,0.0,0.0,0.0,0.0,0.0,0.0,0.0,0.0,0.0,0.0,0.0,0.0,0.0,0.0,0.0,0.0,0.0,0.0,0.0,0.0,0.0,0.0,0.0,0.0,0.0,0.0,0.0,0.0,0.0,0.0,0.0,0.0,0.0,0.0,0.0,0.0,0.0,0.0,-5.1432,-5.1803,0.0,0.0,0.0,0.0,0.0,0.0,0.0,0.0,0.0,0.0,0.0,0.0,0.0,-5.7161,-5.793,-5.8371,-5.8867,-5.9495,-6.005,-6.0303,-6.0303,-6.0303,-6.038,-6.052,-5.9741,0.0,-5.7242,-5.4367,0.0,0.0,0.0,0.0,0.0,0.0,0.0,0.0,0.0,0.0,0.0,0.0,0.0,0.0,0.0,0.0,0.0,0.0,0.0,0.0,0.0,-6.0781,-6.0781,-6.0781,-6.0781,-6.0781,-6.0781,-6.061,0.0,0.0,-6.0311,-6.0074,-5.9808,-6.0074,-5.9946,-5.9475,-5.9212,-5.8971,-5.8713,-5.8713,-5.8461,-5.7997,-5.7567,-5.7243,-5.7004,-5.7004,0.0,0.0,0.0,0.0,0.0,0.0,0.0,0.0,0.0,0.0,0.0,0.0,0.0,0.0,0.0,0.0,0.0,0.0,0.0,0.0,0.0,0.0,0.0,0.0,0.0,0.0,0.0,0.0,0.0,0.0,0.0,0.0,0.0,0.0,0.0,0.0,0.0,0.0,0.0,-5.2383,-5.3575,-5.443,-5.3439,-5.2798,0.0,0.0,0.0,0.0,0.0,0.0,0.0,0.0,0.0,-5.8159,-5.8578,-5.9067,-5.9695,-5.9898,-6.0425,-6.1223,-6.1413,-6.1781,-6.2204,-6.2204,-6.2204,-6.2192,-6.1979,-6.1453,-6.0446,-5.7336,-5.506,-5.3278,0.0,0.0,0.0,0.0,-5.0779,-5.1888,0.0,0.0,0.0,0.0,0.0,0.0,0.0,0.0,0.0,0.0,0.0,0.0,-6.0781,-6.0781,-6.0781,-6.0781,-6.0781,-6.0781,-6.0781,-6.0781,-6.0781,-6.0781,-6.0781,-6.0634,-6.0297,-6.0495,-6.0508,-6.0297,-5.9823,-5.9389,-5.9084,-5.9084,-5.8796,-5.8354,-5.8696,-5.8549,-5.802,-5.826,-5.7964,-5.734,0.0,0.0,0.0,0.0,0.0,0.0,0.0,0.0,0.0,0.0,0.0,0.0,0.0,0.0,0.0,0.0,0.0,0.0,0.0,0.0,0.0,0.0,0.0,0.0,0.0,0.0,0.0,0.0,0.0,0.0,0.0,0.0,0.0,0.0,0.0,0.0,0.0,-5.5035,-5.5837,-5.7021,-5.598,-5.5265,0.0,0.0,0.0,0.0,0.0,0.0,-5.7873,-5.8666,-5.9379,-6.0064,-6.0637,-6.1069,-6.1435,-6.1435,-6.1781,-6.2397,-6.2397,-6.2704,-6.3308,-6.3308,-6.3308,-6.3308,-6.3308,-6.3105,-6.258,-5.9848,-5.7823,-5.6384,-5.5069,-5.3957,-5.3147,-5.4019,-5.5006,-5.6119,0.0,0.0,0.0,0.0,0.0,0.0,0.0,0.0,0.0,0.0,0.0,-6.0781,-6.0781,-6.0781,-6.0781,-6.0781,-6.0781,-6.0781,-6.0781,-6.0781,-6.0781,-6.0781,-6.0781,-6.0781,-6.0757,-6.0351,-6.0338,-6.0757,-6.0297,-6.0074,-6.0006,-6.0006,-5.9792,-5.9319,-5.9354,-5.8855,-5.8088,-5.8951,-5.9047,-5.8595,-5.8595,0.0,0.0,0.0,0.0,0.0,0.0,0.0,0.0,0.0,0.0,0.0,0.0,0.0,0.0,0.0,0.0,0.0,0.0,0.0,0.0,0.0,0.0,0.0,0.0,0.0,0.0,0.0,0.0,0.0,0.0,0.0,0.0,0.0,0.0,0.0,0.0,0.0,0.0,-5.9208,-5.8947,0.0,0.0,0.0,0.0,-5.707,-5.7804,-5.8762,-5.996,-6.0795,-6.1798,-6.3027,-6.3129,-6.3142,-6.3154,-6.3166,-6.3192,-6.3243,-6.3243,-6.3281,-6.3308,-6.3308,-6.3308,-6.3308,-6.3308,-6.3308,-6.3194,-6.2134,-6.0923,-5.9615,-5.8093,-5.7647,-5.7836,-5.7577,-5.8174,-5.9186,0.0,0.0,0.0,0.0,0.0,0.0,0.0,0.0,-6.0781,-6.0781,-6.0781,-6.0781,-6.0781,-6.0781,-6.0781,-6.0781,-6.0781,-6.0781,-6.0781,-6.0781,-6.0781,-6.0781,-6.0781,-6.0781,-6.0781,-6.0634,-6.0634,-6.0781,-6.0634,-6.0378,-6.0103,-6.0103,-5.9855,-5.9407,-5.9728,-5.9492,-5.8932,-5.9248,-5.9302,-5.9139,-5.9139,-5.899,0.0,0.0,0.0,0.0,0.0,0.0,0.0,0.0,0.0,0.0,0.0,0.0,0.0,0.0,0.0,0.0,0.0,0.0,0.0,0.0,0.0,0.0,0.0,0.0,0.0,0.0,0.0,0.0,0.0,0.0,0.0,0.0,0.0,0.0,0.0,0.0,0.0,-5.8728,-5.8856,0.0,-5.9054,-5.9116,-5.9515,-6.0561,-6.1191,-6.1696,-6.2185,-6.2462,-6.281,-6.3269,-6.3308,-6.3376,-6.3495,-6.3338,-6.3608,-6.4268,-6.4185,-6.4436,-6.4974,-6.4974,-6.4974,-6.4974,-6.4974,-6.4974,-6.4898,-6.4237,-6.3355,-6.2316,-6.1203,-6.1117,-6.163,-6.1163,-6.121,-6.1587,0.0,0.0,0.0,0.0,0.0,0.0,0.0,-6.0781,-6.0781,-6.0781,-6.0781,-6.0781,-6.0781,-6.0781,-6.0781,-6.0781,-6.0781,-6.0781,-6.0781,-6.0845,-6.0856,-6.0793,-6.0781,-6.0781,-6.0781,-6.0781,-6.0781,-6.0781,-6.0781,-6.0634,-6.0338,-6.0338,-6.0161,-5.9885,-6.0189,-6.0161,-5.987,-5.987,-5.9792,-5.9625,-5.9625,-5.9625,-5.9609,0.0,0.0,0.0,0.0,0.0,0.0,0.0,0.0,0.0,0.0,0.0,0.0,0.0,0.0,0.0,0.0,0.0,0.0,0.0,0.0,0.0,0.0,0.0,0.0,0.0,0.0,0.0,0.0,0.0,0.0,0.0,0.0,0.0,0.0,-5.8501,-5.902,-5.9102,-5.9643,-6.0183,-6.0528,-6.0972,-6.1683,-6.2772,-6.3118,-6.3435,-6.3743,-6.3743,-6.3858,-6.4166,-6.4166,-6.4243,-6.4444,-6.4584,-6.5062,-6.5769,-6.5964,-6.6333,-6.685,-6.685,-6.6817,-6.6744,-6.6744,-6.6744,-6.6731,-6.637,-6.5886,-6.5222,-6.3973,-6.3691,-6.3996,-6.4136,-6.3933,-6.3649,0.0,0.0,0.0,0.0,0.0,0.0,-6.0781,-6.0781,-6.0781,-6.0781,-6.0781,-6.0781,-6.0781,-6.0781,-6.0781,-6.0781,-6.0781,-6.0793,-6.0793,-6.0945,-6.0935,-6.0816,-6.0793,-6.0781,-6.0781,-6.0781,-6.0781,-6.0781,-6.0781,-6.0781,-6.0781,-6.0781,-6.0781,-6.0781,-6.0781,-6.0781,-6.0781,-6.0781,-6.0521,-6.0132,-6.0132,-6.0132,-6.0089,0.0,0.0,0.0,0.0,0.0,0.0,0.0,0.0,0.0,0.0,0.0,0.0,0.0,0.0,0.0,0.0,0.0,0.0,0.0,0.0,0.0,0.0,0.0,0.0,0.0,0.0,0.0,0.0,0.0,0.0,0.0,0.0,0.0,-5.8612,-5.8839,-5.9554,-6.0646,-6.1583,-6.2273,-6.2619,-6.309,-6.3346,-6.3397,-6.3385,-6.3782,-6.4628,-6.4705,-6.5128,-6.5936,-6.5974,-6.6055,-6.6196,-6.7019,-6.7532,-6.7768,-6.8546,-6.8839,-6.8694,-6.8694,-6.8618,-6.8411,-6.8411,-6.8398,-6.8385,-6.8385,-6.8385,-6.8216,-6.6377,-6.5339,-6.5045,-6.642,-6.6231,-6.5327,0.0,0.0,0.0,0.0,0.0,0.0,-6.0781,-6.0781,-6.0781,-6.0781,-6.0781,-6.0781,-6.0781,-6.0781,-6.0781,-6.0781,-6.0781,-6.0845,-6.0925,-6.0961,-6.097,-6.0944,-6.0867,-6.0781,-6.0781,-6.0781,-6.0781,-6.0781,-6.0781,-6.0781,-6.0781,-6.0781,-6.0781,-6.0781,-6.0781,-6.0781,-6.0781,-6.0781,-6.0734,-6.061,-6.061,-6.061,-6.0597,0.0,0.0,0.0,0.0,0.0,0.0,0.0,0.0,0.0,0.0,0.0,0.0,0.0,0.0,0.0,0.0,0.0,0.0,0.0,0.0,0.0,0.0,0.0,0.0,0.0,0.0,0.0,0.0,0.0,0.0,0.0,-6.1395,-6.2216,-6.0744,-6.1429,-6.223,-6.255,-6.2823,-6.3245,-6.3962,-6.4193,-6.4512,-6.5128,-6.5743,-6.6167,-6.6397,-6.7013,-6.7475,-6.7705,-6.7705,-6.7856,-6.8139,-6.8264,-6.8498,-6.8808,-6.8872,-6.8871,-6.8861,-6.8861,-6.8782,-6.8601,-6.8601,-6.8517,-6.8385,-6.8385,-6.8385,-6.8306,-6.7398,-6.6961,-6.6858,-6.6881,-6.6474,-6.5824,0.0,0.0,0.0,0.0,0.0,0.0,-6.0781,-6.0781,-6.0781,-6.0781,-6.0781,-6.0781,-6.0781,-6.0781,-6.0781,-6.0781,-6.0867,-6.0925,-6.0988,-6.0997,-6.0997,-6.0997,-6.0871,-6.0781,-6.0781,-6.0781,-6.0781,-6.0781,-6.0781,-6.0781,-6.0781,-6.0781,-6.0781,-6.0781,-6.0781,-6.0781,-6.0781,-6.0781,-6.0781,-6.0781,-6.0781,-6.0781,-6.0781,-6.0781,-6.0781,-6.0827,-6.0954,-6.0997,-6.1031,-6.1234,0.0,0.0,0.0,0.0,0.0,0.0,0.0,0.0,0.0,0.0,0.0,0.0,0.0,0.0,0.0,0.0,0.0,0.0,0.0,0.0,0.0,0.0,0.0,0.0,-6.3096,-6.3892,-6.2874,-6.3041,-6.3435,-6.382,-6.3858,-6.432,-6.5513,-6.5667,-6.6013,-6.6898,-6.7398,-6.7628,-6.7628,-6.8129,-6.8385,-6.8385,-6.8385,-6.8547,-6.8916,-6.9166,-6.9493,-6.9823,-7.0099,-7.0169,-7.0079,-7.0079,-6.9953,-6.976,-6.976,-6.9822,-6.9975,-6.9975,-7.0206,-7.0409,0.0,0.0,0.0,0.0,-6.7859,-6.7676,0.0,0.0,0.0,0.0,0.0,0.0,-6.0781,-6.0781,-6.0781,-6.0781,-6.0781,-6.0781,-6.0781,-6.0781,-6.0781,-6.0781,-6.0935,-6.1014,-6.104,-6.1014,-6.0997,-6.0997,-6.0871,-6.0781,-6.0781,-6.0781,-6.0781,-6.0781,-6.0781,-6.0781,-6.0781,-6.0781,-6.0781,-6.0781,-6.0781,-6.0781,-6.0781,-6.0781,-6.0781,-6.0781,-6.0781,-6.0781,-6.0781,-6.0781,-6.0804,-6.0834,-6.0991,-6.1056,-6.1074,-6.1267,0.0,0.0,0.0,0.0,0.0,0.0,0.0,0.0,0.0,0.0,0.0,0.0,0.0,0.0,0.0,0.0,0.0,0.0,0.0,0.0,0.0,0.0,0.0,0.0,-6.4705,-6.5312,-6.4964,-6.433,-6.4164,-6.4782,-6.4974,-6.5628,-6.709,-6.7244,-6.7552,-6.8346,-6.8513,-6.8552,-6.8552,-6.8615,0.0,0.0,0.0,-6.906,-6.9461,-7.0246,-7.0784,-7.1133,-7.1914,-7.2181,-7.2018,-7.2018,-7.1861,-7.1542,-7.1542,-7.1872,-7.239,-7.239,-7.2825,-7.3283,-7.1014,-6.9802,-6.9349,-6.9588,-6.9967,-7.0241,0.0,0.0,0.0,0.0,0.0,0.0,-6.0781,-6.0781,-6.0781,-6.0781,-6.0781,-6.0781,-6.0781,-6.0781,-6.0781,-6.0781,-6.0935,-6.1073,-6.1234,-6.1097,-6.0997,-6.0997,-6.0871,-6.0781,-6.0781,-6.0781,-6.0781,-6.0781,-6.0781,-6.0781,-6.0781,-6.0781,-6.0781,-6.0781,-6.0781,-6.0781,-6.0781,-6.0781,-6.0781,-6.0781,-6.0781,-6.0781,-6.0781,-6.0781,-6.086,-6.1,-6.1172,-6.1323,-6.14,-6.1445,-6.1463,-6.1437,-6.1322,-6.1295,0.0,0.0,0.0,0.0,0.0,0.0,0.0,0.0,0.0,0.0,0.0,0.0,0.0,0.0,0.0,0.0,0.0,0.0,0.0,-6.4818,-6.6244,-6.7247,-6.6922,-6.7317,-6.7398,-6.6705,-6.7244,-6.7782,-6.8129,-6.8167,-6.8244,-6.8385,-6.9052,-6.9436,-6.9436,-7.0052,-7.0744,-7.1437,-7.1475,-7.1959,-7.2995,-7.3197,-7.3471,-7.3867,-7.4023,0.0,-7.4021,-7.4021,-7.392,-7.37,-7.37,-7.3618,-7.348,-7.348,-7.3471,-7.3437,-7.2976,-7.2702,-7.2547,-7.213,-7.2025,-7.2025,0.0,0.0,0.0,0.0,0.0,0.0,-6.0902,-6.0884,-6.0935,-6.1057,-6.1036,-6.1036,-6.1036,-6.1036,-6.1036,-6.1036,-6.1097,-6.12,-6.1283,-6.112,-6.0982,-6.0895,-6.0823,-6.0781,-6.0781,-6.0781,-6.0781,-6.0781,-6.0781,-6.0781,-6.0781,-6.0781,-6.0781,-6.0781,-6.0781,-6.0781,-6.0781,-6.0781,-6.0781,-6.0793,-6.0871,-6.0884,-6.0874,-6.0839,-6.0935,-6.1172,-6.1259,-6.1378,-6.1486,-6.1506,-6.1474,-6.1369,-6.1214,-6.1089,-6.1152,0.0,0.0,0.0,0.0,0.0,0.0,0.0,0.0,0.0,0.0,0.0,0.0,0.0,0.0,-6.457,-6.5039,0.0,-6.6729,-6.6525,-6.7645,-6.8417,-6.8082,-6.8752,-6.8921,-6.786,-6.8129,-6.8577,-6.9013,-6.9398,-6.9821,-7.0283,-7.1129,-7.1591,-7.1591,-7.1975,-7.2399,-7.2822,-7.286,-7.3234,-7.4007,-7.4014,-7.4212,-7.4609,-7.4609,-7.4609,-7.4609,-7.4609,-7.4483,-7.4311,-7.4311,-7.4405,-7.4593,-7.4896,-7.4922,-7.4745,-7.4745,-7.4245,-7.3447,-7.3177,-7.3061,-7.2974,0.0,0.0,0.0,0.0,0.0,0.0,-6.0961,-6.0997,-6.1081,-6.1265,-6.1283,-6.1283,-6.1283,-6.1283,-6.1301,-6.1328,-6.1277,-6.1253,-6.1283,-6.1081,-6.0915,-6.0793,-6.0781,-6.0781,-6.0781,-6.0781,-6.0781,-6.0781,-6.0781,-6.0781,-6.0781,-6.0781,-6.0781,-6.0781,-6.0781,-6.0781,-6.0781,-6.0781,-6.0781,-6.0816,-6.0944,-6.1023,-6.1048,-6.0925,-6.1079,-6.1328,-6.1328,-6.1413,-6.1541,-6.149,-6.1378,-6.1292,-6.1208,-6.1134,-6.1204,-6.2089,-6.232,0.0,0.0,0.0,0.0,0.0,0.0,0.0,0.0,-6.3737,-6.4435,-6.5297,-6.5623,-6.6042,-6.69,-6.7795,-6.8396,-6.821,-6.8906,-6.9428,-6.9278,-6.9943,-7.0173,-6.9476,-6.9244,-6.9398,-7.0129,-7.0937,-7.1706,-7.2399,-7.3091,-7.3514,-7.3514,-7.3514,-7.3581,-7.3765,-7.3779,-7.4049,-7.4567,-7.4574,-7.4741,-7.5117,-7.5117,-7.5117,-7.5117,-7.5117,-7.5033,-7.4879,-7.4825,-7.5118,-7.5651,-7.6129,-7.6195,-7.6038,-7.6005,-7.5168,-7.4014,-7.4014,-7.4014,-7.3933,0.0,0.0,0.0,0.0,0.0,0.0,0.0,0.0,-6.1081,-6.1265,-6.1283,-6.1283,-6.1283,-6.1283,-6.1339,-6.1481,-6.1201,-6.112,-6.1277,-6.1011,-6.0816,-6.0781,-6.0781,-6.0781,-6.0781,-6.0781,-6.0781,-6.0781,-6.0781,-6.0781,-6.0781,-6.0781,-6.0781,-6.0781,-6.0781,-6.0781,-6.0781,-6.0781,-6.0781,-6.0816,-6.0944,-6.1112,-6.1259,-6.124,-6.1339,-6.1488,-6.1488,-6.1575,-6.164,-6.14,-6.1301,-6.1389,-6.1821,-6.197,-6.2089,-6.2935,-6.3166,-6.3154,-6.3232,-6.3441,-6.3731,-6.4046,-6.4478,-6.4818,0.0,-6.5266,-6.5893,-6.6702,-6.717,-6.7669,-6.8481,-6.8976,-6.9258,-6.9257,-6.996,-7.0679,-7.1141,-7.187,-7.2529,-7.2891,-7.2245,-7.1822,-7.1898,-7.2706,-7.3245,-7.336,-7.3437,-7.3514,-7.3514,-7.3514,-7.3896,-7.4818,-7.4818,-7.5387,-7.6548,-7.6591,-7.668,-7.6914,-7.6914,-7.6914,-7.6914,-7.6914,-7.6914,-7.6874,-7.668,-7.6642,-7.6691,-7.6427,-7.6284,-7.6266,-7.6066,-7.5899,-7.5707,-7.5707,-7.5707,-7.5707,0.0,0.0,0.0,0.0,0.0,0.0,0.0,0.0,-6.1238,-6.1507,-6.152,-6.152,-6.152,-6.152,-6.1571,-6.1629,-6.1364,-6.1214,-6.1283,-6.0983,-6.0781,-6.0781,-6.0781,-6.0781,-6.0781,-6.0781,-6.0781,-6.0781,-6.0781,-6.0781,-6.0781,-6.0781,-6.0781,-6.0781,-6.0781,-6.0781,-6.0781,-6.0781,-6.0845,-6.0935,-6.0961,-6.1161,-6.1404,-6.1404,-6.1504,-6.1627,-6.1517,-6.1556,0.0,-6.1899,-6.1952,-6.2003,-6.2612,-6.2781,-6.2974,-6.382,-6.4051,-6.404,-6.397,-6.3596,-6.3322,-6.3801,-6.4652,-6.5469,-6.5775,-6.6639,-6.7436,-6.7782,-6.8152,-6.8495,-6.8838,-6.9595,-7.0156,-7.0156,-7.1328,-7.2258,-7.2344,-7.2984,-7.351,-7.3644,-7.3651,-7.3476,-7.3014,-7.3707,-7.4207,-7.4207,-7.4668,-7.4938,-7.4938,-7.4938,-7.5181,-7.5752,-7.5763,-7.6121,-7.688,-7.6883,-7.7,-7.7187,-7.7187,-7.7187,-7.7187,-7.7187,-7.7187,-7.7187,-7.7103,-7.7002,-7.6876,-7.6727,-7.6527,-7.6284,-7.6222,-7.6081,-7.6015,-7.6015,-7.6015,-7.6015,0.0,0.0,0.0,0.0,0.0,0.0,0.0,0.0,0.0,0.0,-6.1719,-6.1719,-6.1719,-6.1719,-6.1719,-6.1719,-6.1495,-6.1328,-6.1289,-6.1009,-6.0834,-6.0793,-6.0781,-6.0781,-6.0781,-6.0781,-6.0781,-6.0781,-6.0781,-6.0781,-6.0781,-6.0781,-6.0781,-6.0781,-6.0781,-6.0781,-6.0781,-6.0781,-6.0877,-6.0944,-6.097,-6.1175,-6.1467,-6.1495,-6.1738,-6.2031,-6.1935,-6.1913,-6.2027,-6.2629,-6.2793,-6.2814,-6.3476,-6.3666,-6.382,-6.4705,-6.5013,-6.5025,-6.4797,-6.4209,-6.3772,-6.4053,-6.5038,-6.6105,-6.6803,-6.7707,-6.8475,-6.8706,-6.9043,-6.9351,-6.9578,-7.0609,-7.1406,-7.1406,-7.2695,-7.3668,-7.3693,-7.4082,-7.4405,-7.4478,-7.4822,-7.4822,-7.4245,-7.4707,-7.5053,-7.5053,-7.563,-7.6015,-7.6015,-7.6015,-7.6121,-7.6361,-7.6371,-7.656,-7.6993,-7.6995,-7.7054,-7.7187,-7.7187,-7.7187,-7.7187,-7.7187,-7.7187,-7.7187,-7.7187,-7.7104,-7.6993,-7.6929,-7.6702,-7.64,-7.6316,-7.6172,-7.6015,-7.6015,-7.6015,-7.6015,0.0,0.0,0.0,0.0,0.0,0.0,0.0,0.0,0.0,0.0,0.0,-6.1719,-6.1719,-6.1719,-6.1719,-6.1719,-6.1579,-6.1421,-6.1295,-6.1112,-6.0925,-6.0793,-6.0781,-6.0781,-6.0781,-6.0781,-6.0781,-6.0781,-6.0781,-6.0781,-6.0781,-6.0781,-6.0781,-6.0781,-6.0781,-6.0781,-6.0781,-6.0781,-6.0793,-6.0827,-6.0944,-6.1135,-6.1312,-6.1432,-6.2129,-6.2969,-6.2969,-6.2969,-6.3044,-6.356,-6.3774,-6.3864,-6.4393,-6.4551,-6.4743,-6.559,-6.605,-6.6167,-6.569,-6.5741,-6.5844,-6.5592,-6.6143,-6.705,-6.8091,-6.8385,-6.8629,-6.9475,-6.9934,-7.0402,-7.129,-7.2405,-7.3203,-7.3203,-7.3984,-7.4801,-7.5449,-7.5363,-7.5486,-7.6144,-7.6057,-7.5938,0.0,-7.5938,-7.5976,-7.5976,-7.5976,-7.6015,-7.6015,-7.6015,-7.6185,-7.656,-7.6575,-7.6775,-7.7187,-7.7187,-7.7187,-7.7187,-7.7187,-7.7187,-7.7187,-7.7187,-7.7187,-7.7187,-7.7187,-7.7187,-7.7187,-7.6993,-7.677,-7.6552,-7.64,-7.6172,-7.6015,-7.6015,-7.6015,-7.6015,0.0,0.0,0.0,0.0,0.0,0.0,0.0,0.0,0.0,0.0,0.0,0.0,0.0,0.0,0.0,0.0,-6.1579,-6.1491,-6.146,-6.1154,-6.0961,-6.0916,-6.0856,-6.0781,-6.0781,-6.0781,-6.0781,-6.0781,-6.0781,-6.0781,-6.0781,-6.0781,-6.0781,-6.0781,-6.0781,-6.0781,-6.0781,-6.0781,-6.0867,-6.0945,-6.0892,-6.1089,-6.1491,-6.2041,-6.2563,-6.3164,0.0,-6.4198,-6.367,-6.4393,-6.4496,-6.4469,-6.524,-6.5474,-6.5538,-6.6045,-6.6395,-6.6541,-6.6003,-6.5705,-6.5679,-6.6264,-6.703,-6.794,-6.904,-6.9667,-7.0129,-7.0437,-7.1252,-7.1997,-7.2302,-7.3342,-7.414,-7.414,-7.4883,-7.5546,-7.5775,-7.611,-7.6453,-7.6682,-7.64,0.0,0.0,0.0,0.0,-7.6015,-7.6015,-7.6015,-7.6015,-7.6015,-7.6197,-7.6606,-7.6582,-7.678,-7.7187,-7.7187,-7.7187,-7.7187,-7.7187,-7.7187,-7.7187,-7.7187,-7.7187,-7.7187,-7.7187,-7.7187,-7.7187,-7.7144,-7.6993,-7.677,-7.6599,-7.6361,-7.6197,-7.6038,-7.6015,-7.6015,0.0,0.0,0.0,0.0,0.0,0.0,0.0,0.0,0.0,0.0,0.0,0.0,0.0,0.0,0.0,0.0,0.0,-6.1568,-6.1504,-6.1295,-6.1147,-6.112,-6.1018,-6.0974,-6.0974,-6.0913,-6.0871,-6.0871,-6.0839,-6.0781,-6.0781,-6.0781,-6.0781,-6.0781,-6.0781,-6.0781,-6.0781,-6.0781,-6.0856,-6.0935,-6.0902,-6.1089,-6.153,-6.2357,-6.2993,0.0,-6.5078,-6.5228,-6.483,-6.5369,-6.5386,-6.5246,-6.5743,-6.596,-6.615,-6.6743,-6.6919,-6.6887,-6.6553,-6.6322,-6.6294,-6.6812,-6.7738,-6.8755,-6.9628,-7.0609,-7.136,-7.136,-7.2375,-7.3236,-7.3236,-7.4239,-7.5078,-7.5078,-7.5781,-7.6367,-7.6367,-7.6655,-7.6919,-7.6883,-7.6529,-7.6295,0.0,0.0,0.0,-7.6015,-7.6015,-7.6015,-7.6015,-7.6015,-7.6197,-7.6606,-7.6582,-7.678,-7.7187,-7.7187,-7.7187,-7.7187,-7.7187,-7.7187,-7.7187,-7.7187,-7.7187,-7.7187,-7.7187,-7.7187,-7.7187,-7.7187,-7.7097,-7.6872,-7.6755,-7.6521,-7.6273,-7.6147,-7.6052,-7.6015,0.0,0.0,0.0,0.0,0.0,0.0,0.0,0.0,0.0,0.0,0.0,0.0,0.0,0.0,0.0,0.0,0.0,0.0,-6.1515,-6.1507,-6.1424,-6.1306,-6.1289,-6.1283,-6.1283,-6.112,-6.1014,-6.1014,-6.0892,-6.0827,-6.0804,-6.0804,-6.0804,-6.0781,-6.0781,-6.0781,-6.0781,-6.0804,-6.0804,-6.0839,-6.0963,-6.1143,-6.1473,-6.2489,-6.3495,-6.4492,-6.5351,-6.5967,-6.6387,-6.6387,-6.6244,-6.602,-6.5921,-6.6083,-6.6535,-6.7618,-6.761,-6.7272,-6.731,-6.7506,-6.7652,-6.7415,-6.8366,-6.9528,-7.003,-7.1237,-7.2283,-7.2283,-7.3227,-7.4053,-7.4053,-7.5098,-7.5976,-7.5976,-7.664,-7.7187,-7.7187,-7.7048,-7.6926,0.0,0.0,0.0,0.0,0.0,0.0,-7.6015,-7.6015,-7.6015,-7.6015,-7.6015,-7.6197,-7.6606,-7.6582,-7.678,-7.7187,-7.7187,-7.7187,-7.7187,-7.7187,-7.7187,-7.7187,-7.7187,-7.7187,-7.7187,-7.7187,-7.7187,-7.7187,-7.7187,-7.7099,-7.6926,-7.688,-7.6677,-7.6327,-7.6327,-7.6197,-7.6005,0.0,0.0,0.0,0.0,0.0,0.0,0.0,0.0,0.0,0.0,0.0,0.0,0.0,0.0,0.0,0.0,0.0,0.0,-6.1637,-6.1571,-6.1495,-6.1432,-6.1344,-6.1283,-6.1283,-6.1246,-6.1227,-6.1227,-6.1179,-6.1112,-6.0944,-6.0944,-6.0913,-6.0781,-6.0781,-6.0781,-6.0804,-6.0905,-6.0944,-6.0963,-6.115,-6.1712,-6.2528,-6.341,-6.4395,-6.539,-6.625,-6.6517,-6.6387,-6.6387,-6.5916,-6.5379,-6.5627,-6.6121,-6.6786,-6.7267,-6.7784,-6.8095,-6.77,-6.7663,-6.78,-6.8084,-6.925,-7.0417,-7.0944,-7.2157,-7.3168,-7.3168,-7.4119,-7.4955,-7.4955,-7.5999,-7.6875,-7.6875,-7.707,0.0,-7.7187,-7.7147,0.0,-7.7105,-7.676,-7.6505,-7.6505,-7.6234,0.0,-7.6015,-7.6015,-7.6015,-7.6015,-7.6015,-7.6197,-7.6606,-7.6582,-7.678,-7.7187,-7.7187,-7.7187,-7.7187,-7.7187,-7.7187,-7.7187,-7.7187,-7.7187,-7.7187,-7.7187,-7.7187,-7.7187,-7.7187,-7.7187,-7.7103,-7.6945,-7.6847,-7.6732,-7.656,-7.6391,-7.6219,0.0,0.0,0.0,0.0,0.0,0.0,0.0,0.0,0.0,0.0,0.0,0.0,0.0,0.0,0.0,0.0,0.0,0.0,0.0,-6.1633,-6.1582,-6.1582,-6.1512,-6.1488,-6.1488,-6.1404,-6.1378,-6.1378,-6.1318,-6.124,-6.1143,-6.1143,-6.1073,-6.103,-6.103,-6.103,-6.1039,-6.1089,-6.1143,0.0,0.0,-6.1966,-6.2915,-6.3841,-6.4798,-6.5703,-6.6601,-6.6532,-6.6065,-6.6069,-6.5729,-6.5361,-6.5662,-6.6324,-6.7042,-6.7319,-6.7778,-6.8072,-6.7784,-6.7687,-6.7867,-6.8516,-6.9648,-7.0773,-7.1447,-7.2871,-7.4057,-7.4141,-7.5062,-7.591,-7.5986,-7.6644,-7.7187,0.0,0.0,0.0,-7.7187,-7.7187,-7.7187,0.0,-7.6852,0.0,-7.6582,-7.6231,-7.6015,-7.6015,-7.6015,-7.6015,-7.6015,-7.6093,-7.63,-7.6575,-7.6702,-7.6872,-7.7187,-7.7187,-7.7187,-7.7187,-7.7578,-7.7773,-7.7773,-7.8125,-7.8281,-7.8281,-7.8281,-7.8281,-7.8281,-7.8281,-7.8281,-7.8281,-7.8152,-7.8086,-7.7965,-7.7862,-7.7725,-7.7555,0.0,0.0,0.0,0.0,0.0,0.0,0.0,0.0,0.0,0.0,-6.1719,0.0,0.0,0.0,0.0,0.0,0.0,0.0,0.0,0.0,-6.1719,-6.1719,-6.1719,-6.1719,-6.1719,-6.1582,-6.1517,-6.1517,-6.14,-6.1334,-6.1318,-6.1318,-6.1306,-6.1283,-6.1283,-6.1283,-6.1289,-6.1306,-6.1318,-6.1367,-6.1602,-6.2223,-6.3125,0.0,-6.5,-6.5859,-6.6601,-6.633,-6.5603,-6.5606,-6.5558,-6.5587,-6.5948,-6.656,-6.7184,-6.7579,-6.7687,-6.7724,-6.7834,-6.7834,-6.8054,-6.8862,-6.9988,-7.1107,-7.1824,-7.35,-7.495,-7.5128,-7.5957,-7.6709,-7.6864,-7.7055,-7.7187,-7.7187,0.0,-7.7187,-7.7187,-7.7187,-7.7187,-7.7187,-7.6852,-7.6582,-7.6582,-7.6231,-7.6015,-7.6015,-7.6092,-7.613,-7.6015,-7.616,-7.6428,-7.6769,-7.7112,-7.7358,-7.7539,-7.7539,-7.7539,-7.7539,-7.8281,-7.8672,-7.8672,-7.9375,-7.9687,-7.9687,-7.9687,-7.9687,-7.9687,-7.9687,-7.9687,-7.9687,-7.9687,-7.96,-7.9437,-7.9437,-7.9335,-7.918,0.0,0.0,0.0,0.0,0.0,0.0,0.0,0.0,0.0,0.0,-6.1719,-6.1719,0.0,0.0,0.0,0.0,0.0,0.0,0.0,0.0,0.0,-6.1719,-6.1719,-6.1719,-6.1719,-6.1679,-6.1678,-6.1678,-6.1635,-6.1579,-6.1481,-6.1481,-6.1396,-6.1283,-6.1283,-6.1283,-6.1295,-6.1404,-6.1481,-6.1527,-6.241,-6.3279,-6.4139,-6.5039,0.0,0.0,-6.6655,-6.6213,-6.5634,-6.5711,-6.5389,-6.5106,-6.6087,-6.6511,-6.678,-6.7484,-6.7687,-6.7834,-6.8495,-6.8678,-6.8898,-6.9706,-7.1255,-7.2616,-7.2767,-7.4462,-7.6034,-7.6051,-7.6497,-7.6856,-7.688,-7.7055,-7.7187,-7.7187,-7.7187,-7.7187,-7.7187,-7.7187,-7.7187,0.0,-7.6852,-7.6582,-7.6582,-7.6231,0.0,0.0,-7.6669,-7.6746,-7.6053,-7.6034,-7.6567,-7.7633,-7.8663,-7.9218,-7.9258,-7.9258,-7.9258,-7.9258,-7.9414,-7.9492,-7.9492,-7.9648,-7.9687,-7.9687,-7.9687,-7.9687,-7.9687,-7.9687,-7.9687,-7.9687,-7.9687,-7.9687,-7.9646,-7.9646,-7.9545,-7.9335,0.0,0.0,0.0,0.0,0.0,0.0,0.0,-6.1719,-6.1719,-6.1719,-6.1719,-6.1719,-6.1719,-6.1719,-6.1719,0.0,0.0,0.0,0.0,0.0,0.0,-6.1719,-6.1719,-6.1719,-6.1719,-6.1719,-6.1719,-6.1719,0.0,-6.1678,-6.1588,-6.1588,-6.1577,-6.1507,-6.1507,-6.1507,-6.1509,-6.1579,-6.1862,-6.2332,-6.2811,-6.3789,-6.5039,-6.543,0.0,0.0,-6.6683,-6.6462,-6.6322,-6.6715,-6.652,-6.6161,-6.6427,-6.6769,-6.7173,-6.7577,-6.7687,-6.7871,-6.8678,-6.8898,-6.9192,-7.044,-7.1889,-7.3145,-7.3576,-7.5063,-7.6338,-7.6438,-7.6702,-7.6933,-7.705,-7.7031,-7.7097,-7.7187,-7.7104,-7.7097,-7.7187,-7.7187,-7.7187,-7.7187,-7.6852,-7.6582,-7.6582,-7.6231,-7.6207,-7.663,-7.7053,-7.713,-7.6707,-7.7265,-7.7932,-7.8659,-7.9354,-7.9687,-7.9687,-7.9687,-7.9687,-7.9726,-8.0156,-8.039,-8.039,-8.0859,-8.1054,-8.1054,-8.1054,-8.1054,-8.1054,-8.1054,-8.1054,-8.1054,-8.1054,-8.1054,-8.1054,-8.1054,-8.0973,-8.0871,0.0,0.0,0.0,0.0,0.0,0.0,0.0,-6.1719,-6.1719,-6.1719,-6.1719,-6.1719,-6.1719,-6.1719,-6.1719,0.0,0.0,0.0,0.0,0.0,0.0,0.0,0.0,0.0,-6.1719,0.0,0.0,-6.1719,-6.1719,0.0,0.0,0.0,0.0,0.0,-6.1719,-6.1719,-6.1719,-6.1719,-6.2187,0.0,0.0,-6.4219,0.0,0.0,0.0,0.0,0.0,-6.6818,-6.7115,-6.7699,-6.774,-6.7576,-6.7209,-6.7373,-6.7687,-6.7687,-6.7797,-6.8128,-6.8935,-6.9375,-6.9952,-7.1398,-7.2606,-7.3615,-7.4334,-7.5457,-7.641,-7.6591,-7.678,-7.7002,-7.7187,-7.7048,-7.6942,-7.7103,-7.7,-7.6945,-7.7104,-7.7187,-7.7187,0.0,-7.6834,0.0,-7.656,-7.6389,0.0,-7.7246,-7.763,-7.7746,-7.7553,-7.8708,-7.9455,-7.9608,-8.0025,-8.0273,-8.0273,-8.0273,-8.0273,-8.0273,-8.0937,-8.1289,-8.1289,-8.1992,-8.2304,-8.2304,-8.2304,-8.2304,-8.2304,-8.2304,-8.2304,-8.2304,-8.2304,-8.2304,-8.2304,-8.2304,-8.2304,-8.2263,0.0,0.0,0.0,0.0,0.0,0.0,0.0,-6.1719,-6.1719,-6.1719,-6.1719,-6.1719,-6.1719,-6.1719,-6.1719,0.0,0.0,0.0,0.0,0.0,0.0,0.0,0.0,0.0,0.0,0.0,0.0,-6.1719,-6.1719,0.0,0.0,0.0,0.0,0.0,0.0,-6.1719,-6.1719,-6.1719,0.0,0.0,0.0,0.0,0.0,0.0,0.0,0.0,0.0,-6.7166,-6.761,-6.7949,-6.8345,-6.8689,-6.8955,-6.8413,-6.7687,-6.7687,0.0,0.0,-6.9779,-7.093,-7.2124,-7.298,-7.4039,-7.4922,-7.4998,-7.5813,-7.656,-7.6621,-7.6922,-7.7187,-7.7187,-7.7048,-7.6922,-7.6933,-7.6926,-7.6926,-7.6933,-7.7099,-7.7145,-7.6942,0.0,0.0,-7.6348,-7.6829,-7.7207,-7.7284,-7.8707,-7.9208,-7.8438,-7.96,-8.0294,-8.0316,-8.1451,-8.207,-8.207,-8.207,-8.207,-8.207,-8.2148,-8.2187,-8.2187,-8.2265,-8.2304,-8.2304,-8.2304,-8.2304,-8.2304,-8.2304,-8.2304,-8.2304,-8.2304,-8.2304,-8.2304,-8.2304,-8.2304,-8.2265,0.0,0.0,0.0,0.0,0.0,0.0,-6.1719,-6.1719,-6.1719,-6.1719,-6.1719,-6.1719,-6.1719,-6.1719,-6.1719,-6.1719,0.0,0.0,0.0,0.0,0.0,0.0,0.0,0.0,0.0,0.0,-6.1719,-6.1719,-6.1719,0.0,0.0,0.0,0.0,0.0,0.0,0.0,-6.1719,-6.2265,0.0,0.0,0.0,0.0,0.0,0.0,0.0,0.0,0.0,0.0,-6.8559,-6.8574,-6.9099,-6.9751,-6.9784,-6.9632,-6.936,-6.8989,-6.9742,-7.0741,-7.1216,-7.1999,-7.2906,-7.3709,-7.453,-7.5142,-7.5261,-7.5956,-7.6618,-7.6755,-7.7,-7.7187,-7.7187,-7.6936,-7.6755,-7.6868,-7.6709,-7.6567,-7.6715,-7.6775,-7.6856,-7.6919,-7.6636,0.0,0.0,0.0,-7.7707,-7.8746,-7.99,-8.0468,-8.028,-8.0845,-8.1182,-8.1182,-8.1917,-8.2304,-8.2304,-8.2304,-8.2304,-8.2304,-8.2304,-8.2304,-8.2304,-8.2304,-8.2304,-8.2304,-8.2304,-8.2304,-8.2304,-8.2304,-8.2304,-8.2304,-8.2304,-8.2304,-8.2304,-8.2304,-8.2304,-8.2265,0.0,0.0,0.0,0.0,0.0,-6.1719,-6.1719,-6.1719,-6.1719,-6.1719,-6.1719,-6.1719,-6.1719,-6.1719,-6.1719,-6.1719,-6.1719,0.0,0.0,0.0,0.0,0.0,0.0,0.0,0.0,0.0,-6.1719,-6.1719,-6.1719,-6.1719,0.0,0.0,0.0,0.0,0.0,0.0,0.0,0.0,0.0,0.0,0.0,0.0,0.0,0.0,0.0,0.0,0.0,0.0,0.0,0.0,0.0,-7.0632,-7.0489,-7.0921,-7.1257,-7.027,-7.1034,-7.2213,-7.2407,-7.3025,-7.3773,-7.4396,-7.4978,-7.5503,-7.5628,-7.6206,-7.6732,-7.6864,-7.7054,-7.7187,-7.7105,-7.6843,-7.6643,-7.6715,-7.6501,-7.6369,-7.651,-7.6545,-7.6728,0.0,0.0,-7.7035,-7.7914,-7.8052,-7.8631,-8.0092,-8.0746,-8.1196,-8.1395,-8.16,-8.171,-8.1805,-8.212,-8.2304,-8.2304,-8.2304,-8.2304,-8.2304,-8.2304,-8.2304,-8.2304,-8.2304,-8.2304,-8.2304,-8.2304,-8.2304,-8.2304,-8.2304,-8.2304,-8.2304,-8.2304,-8.2304,-8.2304,-8.2304,-8.2304,-8.2265,0.0,0.0,0.0,0.0,0.0,0.0,-6.1719,-6.1719,-6.1719,-6.1719,-6.1719,-6.1719,-6.1719,-6.1719,-6.1719,-6.1719,-6.1719,0.0,0.0,0.0,0.0,0.0,0.0,0.0,0.0,0.0,-6.1719,-6.1719,-6.1719,-6.1719,-6.1719,-6.1719,-6.1719,-6.1758,0.0,0.0,0.0,0.0,0.0,0.0,0.0,0.0,-6.6914,0.0,0.0,0.0,0.0,0.0,0.0,0.0,0.0,0.0,0.0,-7.2235,-7.3085,-7.1162,-7.1748,-7.2994,-7.2973,-7.4027,-7.5091,-7.5091,-7.5668,-7.6295,-7.6295,-7.6597,-7.6919,-7.6919,-7.7054,-7.7145,-7.6936,-7.6738,-7.6552,-7.6348,-7.6295,-7.6295,-7.6306,-7.6484,-7.6855,0.0,0.0,-7.7831,-7.8421,-7.9246,-8.0131,-8.1016,-8.1093,-8.1196,-8.1395,-8.16,-8.1805,-8.1988,-8.2178,-8.2304,-8.2304,-8.2304,-8.2304,-8.2304,-8.2304,-8.2304,-8.2304,-8.2304,-8.2304,-8.2304,-8.2304,-8.2304,-8.2304,-8.2304,-8.2304,-8.2304,-8.2304,-8.2304,-8.2304,-8.2304,-8.2304,-8.2304,0.0,0.0,0.0,0.0,0.0,0.0,0.0,-6.1719,-6.1719,-6.1719,-6.1719,-6.1719,-6.1719,-6.1719,-6.1719,-6.1719,-6.1719,0.0,0.0,0.0,0.0,0.0,0.0,0.0,0.0,-6.1719,-6.1719,-6.1719,-6.1719,-6.1719,-6.1719,-6.1719,-6.2031,-6.2617,-6.289,0.0,0.0,0.0,0.0,0.0,0.0,-6.6914,-6.6914,0.0,0.0,0.0,0.0,0.0,0.0,0.0,0.0,0.0,0.0,0.0,0.0,-7.3104,-7.3955,-7.497,-7.4702,-7.5287,-7.5915,-7.5915,-7.6189,-7.6521,-7.669,-7.679,-7.6939,-7.7097,-7.7147,-7.7145,-7.6936,-7.6738,-7.6513,-7.6338,-7.6185,-7.6122,-7.6273,0.0,0.0,-7.7628,-7.8811,-7.9534,0.0,0.0,-8.1137,-8.1311,-8.1285,-8.1395,-8.16,-8.1687,-8.1773,-8.1988,-8.2217,-8.2304,-8.2304,-8.2304,-8.2304,-8.2304,-8.2304,-8.2304,-8.2304,-8.2304,-8.2304,-8.2304,-8.2304,-8.2304,-8.2304,-8.2304,-8.2304,-8.2304,-8.2304,-8.2304,-8.2304,-8.2304,-8.2304,-8.2304,0.0,0.0,0.0,0.0,0.0,0.0,0.0,-6.1678,-6.1719,-6.1719,-6.1719,-6.1719,-6.1719,-6.1719,-6.1719,-6.1719,-6.1719,0.0,0.0,0.0,0.0,0.0,0.0,0.0,-6.1719,-6.1719,-6.1719,-6.1719,-6.1719,-6.1875,-6.2187,-6.2187,-6.2656,-6.3515,-6.3828,-6.4297,0.0,0.0,0.0,0.0,-6.6914,-6.6914,-6.6914,0.0,0.0,0.0,0.0,0.0,0.0,0.0,0.0,0.0,0.0,0.0,0.0,0.0,-7.5366,-7.6181,-7.591,-7.6133,-7.641,-7.641,-7.6545,0.0,-7.6864,-7.6945,-7.7052,-7.7187,-7.7187,-7.7104,-7.6843,-7.6696,-7.6527,-7.6231,-7.6093,-7.6066,-7.625,-7.6566,0.0,-7.8622,0.0,0.0,-8.0699,-8.1295,-8.1627,-8.143,-8.148,-8.1572,-8.168,-8.1753,-8.1899,-8.2115,-8.2222,-8.2304,-8.2304,-8.2304,-8.2304,-8.2304,-8.2304,-8.2304,-8.2304,-8.2304,-8.2304,-8.2304,-8.2304,-8.2304,0.0,-8.2304,-8.2304,-8.2304,-8.2304,-8.2304,-8.2304,-8.2304,-8.2304,-8.2304,0.0,0.0,0.0,0.0,0.0,0.0,0.0,-6.1584,-6.1678,-6.1678,-6.1678,-6.1678,-6.1678,-6.1678,-6.1678,-6.1678,-6.1678,0.0,0.0,0.0,0.0,0.0,0.0,0.0,-6.1719,-6.1719,-6.1719,-6.1719,-6.1758,-6.2226,-6.3008,-6.3047,-6.3555,-6.4414,-6.5234,-6.5625,-6.5742,0.0,0.0,0.0,-6.6914,-6.6914,0.0,0.0,0.0,0.0,0.0,0.0,0.0,0.0,0.0,0.0,0.0,0.0,0.0,0.0,0.0,0.0,0.0,-7.6611,-7.6604,-7.6604,-7.6765,-7.6929,-7.6929,-7.7055,0.0,-7.7187,-7.7187,-7.7097,-7.6702,-7.6604,-7.6501,-7.6106,-7.6087,-7.621,-7.64,-7.724,0.0,0.0,-8.1204,-8.1703,-8.1703,-8.1718,-8.1679,-8.1458,-8.1609,-8.1688,-8.1703,-8.1883,-8.2065,-8.2304,-8.2304,-8.2304,-8.2304,-8.2304,-8.2304,-8.2304,-8.2304,-8.2304,-8.2304,-8.2304,-8.2304,-8.2304,-8.2304,-8.2304,-8.2304,-8.2304,-8.2304,-8.2304,-8.2304,-8.2304,-8.2304,-8.2304,-8.2304,-8.2304,0.0,0.0,0.0,0.0,0.0,0.0,0.0,0.0,0.0,0.0,-6.1383,-6.1383,-6.1383,-6.1383,-6.1383,0.0,0.0,0.0,0.0,0.0,0.0,0.0,0.0,0.0,-6.1719,-6.1719,-6.1719,-6.1719,-6.2383,-6.2812,-6.3008,-6.3672,-6.4453,-6.5312,-6.5508,-6.5976,-6.6601,-6.6797,0.0,0.0,-6.6914,-6.6914,0.0,0.0,0.0,0.0,-6.8125,-6.914,0.0,0.0,0.0,0.0,0.0,0.0,0.0,0.0,-7.6397,-7.7054,-7.7054,0.0,-7.6839,-7.6839,-7.6993,-7.7145,0.0,-7.7186,-7.7187,-7.7187,-7.7187,-7.7105,-7.6864,-7.6843,-7.6715,-7.6295,-7.6932,-7.7473,-7.7524,-7.8942,0.0,-8.0583,-8.1402,-8.1914,-8.1914,-8.2062,-8.2065,-8.1873,-8.1739,-8.1785,-8.1904,-8.1837,-8.1914,-8.2304,-8.2304,-8.2304,-8.2304,-8.2304,-8.2304,-8.2304,-8.2304,-8.2304,-8.2304,-8.2304,-8.2304,-8.2304,-8.2304,-8.2304,-8.2304,-8.2304,-8.2304,-8.2304,-8.2304,-8.2304,-8.2304,-8.2304,-8.2304,-8.2304,0.0,0.0,0.0,0.0,0.0,0.0,0.0,0.0,0.0,0.0,-6.1283,-6.1283,-6.1283,-6.1283,0.0,0.0,0.0,0.0,0.0,0.0,0.0,0.0,0.0,-6.1579,-6.1719,-6.2026,-6.2221,-6.2305,-6.3164,-6.3789,-6.4219,-6.4687,-6.5351,-6.6211,-6.6211,-6.6445,-6.6914,-6.6914,-6.6914,-6.6914,-6.6914,0.0,0.0,0.0,0.0,0.0,-6.9062,-6.9922,0.0,-7.1172,-7.1601,-7.2226,0.0,0.0,0.0,0.0,-7.6836,-7.7187,-7.7187,-7.7104,-7.7048,-7.7048,-7.7104,-7.7187,-7.7187,-7.7187,-7.7187,-7.7187,-7.7187,-7.7145,-7.6936,-7.6919,-7.6941,-7.7015,-7.7532,-7.8185,0.0,0.0,-8.0941,-8.1254,-8.1795,-8.2125,-8.2125,-8.2222,-8.222,-8.2039,-8.1984,-8.1984,-8.1992,-8.1984,-8.2065,-8.2304,-8.2304,-8.2304,-8.2304,-8.2304,-8.2304,-8.2304,-8.2304,-8.2304,-8.2304,-8.2304,-8.2304,-8.2304,-8.2304,-8.2304,-8.2304,-8.2304,-8.2304,-8.2304,-8.2304,-8.2304,-8.2304,-8.2304,-8.2304,-8.2304,0.0,0.0,0.0,0.0,0.0,0.0,0.0,0.0,0.0,0.0,0.0,0.0,0.0,0.0,0.0,0.0,0.0,0.0,0.0,0.0,0.0,0.0,-6.1417,-6.1482,-6.1873,-6.2471,-6.2943,-6.3203,-6.4062,-6.4883,-6.5586,-6.5742,-6.6172,-6.6914,-6.6914,-6.6914,-6.6914,-6.6914,-6.6914,-6.6914,-6.6914,0.0,0.0,0.0,0.0,0.0,0.0,0.0,0.0,-7.1758,-7.2109,-7.2461,-7.4101,0.0,0.0,0.0,0.0,0.0,-7.7187,-7.7187,-7.7187,-7.7187,-7.7187,-7.7187,-7.7187,-7.7187,-7.7187,-7.7187,-7.7187,-7.7146,-7.699,-7.7056,-7.7337,-7.7871,-7.8157,-7.8864,-8.0487,-8.0978,-8.1402,-8.1984,-8.2217,-8.2304,-8.2304,-8.2304,-8.2222,-8.2059,-8.2173,-8.2178,-8.2056,-8.2175,-8.2265,-8.2304,-8.2304,-8.2304,-8.2304,-8.2304,-8.2304,-8.2304,-8.2304,-8.2304,-8.2304,-8.2304,-8.2304,-8.2304,-8.2304,-8.2304,-8.2304,-8.2304,-8.2304,-8.2304,-8.2304,-8.2304,-8.2304,-8.2304,-8.2304,-8.2304,0.0,0.0,0.0,0.0,0.0,0.0,0.0,0.0,0.0,0.0,0.0,0.0,0.0,0.0,0.0,0.0,0.0,0.0,0.0,0.0,0.0,-6.2128,-6.1609,-6.1715,-6.2613,-6.2722,-6.3217,-6.4101,-6.4961,-6.5469,-6.5625,-6.6367,-6.6758,-6.6914,-6.6914,-6.6914,-6.6914,-6.6914,-6.6914,-6.6914,-6.6914,0.0,0.0,0.0,0.0,0.0,0.0,0.0,0.0,-7.1953,-7.25,-7.3281,-7.4297,0.0,0.0,0.0,0.0,0.0,-7.7187,-7.7187,-7.7187,-7.7187,-7.7187,-7.7187,-7.7187,-7.7187,-7.7187,-7.7187,-7.7187,-7.7187,-7.7147,-7.7772,-7.8232,-7.8164,-7.9322,-8.068,-8.1825,-8.2069,-8.2148,-8.2225,-8.2265,-8.2304,-8.2304,-8.2304,-8.2304,-8.2264,-8.2122,-8.2115,-8.2263,-8.212,-8.212,-8.2304,-8.2304,-8.2304,-8.2304,-8.2304,-8.2304,-8.2304,-8.2304,-8.2304,-8.2304,-8.2304,-8.2304,-8.2304,-8.2304,-8.2304,-8.2304,-8.2304,-8.2304,-8.2304,-8.2304,-8.2304,-8.2304,-8.2304,-8.2304,-8.2304,0.0,0.0,0.0,0.0,0.0,0.0,0.0,0.0,0.0,0.0,0.0,0.0,0.0,0.0,0.0,0.0,0.0,0.0,0.0,0.0,-6.1697,-6.2176,-6.2327,-6.2672,-6.3322,-6.3681,-6.4143,-6.473,-6.567,-6.6153,-6.6154,-6.6678,-6.6914,-6.6914,-6.6914,-6.6914,-6.6914,-6.6914,-6.7187,-6.7617,0.0,0.0,0.0,0.0,0.0,0.0,0.0,0.0,0.0,0.0,-7.2828,-7.3377,-7.4705,0.0,0.0,0.0,0.0,0.0,-7.7055,-7.7104,-7.7187,-7.7055,-7.7104,-7.7187,-7.7187,-7.7187,-7.7187,-7.7187,-7.7187,-7.7187,-7.7187,-7.7539,-7.8046,-7.8894,-8.0455,-8.1703,-8.2088,-8.2222,-8.2264,-8.2168,-8.2222,-8.2304,-8.2304,-8.2304,-8.2304,-8.2304,-8.222,-8.2218,-8.2304,-8.2219,-8.2218,-8.2304,-8.2304,-8.2304,-8.2304,-8.2304,-8.2304,-8.2304,-8.2304,-8.2304,-8.2304,-8.2304,-8.2304,-8.2304,-8.2304,-8.2304,-8.2304,-8.2304,-8.2304,-8.2344,-8.2812,-8.3008,-8.3047,-8.3515,-8.3711,-8.3711,0.0,0.0,0.0,0.0,0.0,0.0,0.0,0.0,0.0,0.0,0.0,0.0,0.0,0.0,0.0,0.0,0.0,0.0,0.0,-6.1897,-6.2486,-6.2666,-6.3281,-6.3752,-6.4044,-6.4532,-6.4984,-6.5408,-6.6186,-6.6545,-6.6545,-6.6727,-6.6788,-6.6833,-6.6833,-6.6952,-6.7187,-6.7187,-6.7695,-6.8476,0.0,0.0,0.0,0.0,0.0,0.0,0.0,0.0,0.0,0.0,0.0,0.0,0.0,0.0,0.0,-7.6812,-7.7054,-7.7046,-7.6864,-7.6936,-7.7048,-7.6933,-7.7054,-7.7187,-7.7187,-7.7187,-7.7187,-7.7187,-7.7187,-7.7265,-7.7461,-7.7812,-7.8594,-8.0078,-8.1445,-8.2263,-8.2071,-8.2218,-8.2223,-8.211,-8.2218,-8.2304,-8.2304,-8.2304,-8.2304,-8.2304,-8.2304,-8.2304,-8.2304,-8.2304,-8.2304,-8.2304,-8.2304,-8.2304,-8.2304,-8.2304,-8.2304,-8.2304,-8.2304,-8.2304,-8.2304,-8.2304,-8.2304,-8.2304,-8.2304,-8.2304,-8.2304,-8.2539,-8.2617,-8.2695,-8.3554,-8.3906,-8.3984,-8.4648,-8.4883,-8.4883,0.0,0.0,0.0,0.0,0.0,0.0,0.0,0.0,0.0,0.0,0.0,0.0,0.0,0.0,0.0,0.0,0.0,0.0,0.0,-6.2743,-6.3589,-6.4397,-6.4474,-6.459,-6.4733,-6.4763,-6.5303,-6.6309,-6.636,-6.6406,-6.6406,-6.6418,-6.6493,-6.6625,-6.6625,-6.7166,-6.8125,-6.8125,-6.8555,-6.9297,-6.9297,0.0,0.0,0.0,0.0,0.0,0.0,0.0,0.0,0.0,0.0,0.0,0.0,0.0,-7.6782,-7.6663,-7.6624,-7.6657,-7.6643,-7.6611,-7.6696,-7.686,-7.7054,-7.7187,-7.7187,-7.7187,-7.7187,-7.7187,-7.7187,-7.7461,-7.8242,-7.9687,-8.1015,-8.1953,-8.2226,-8.2304,-8.2265,-8.2304,-8.2304,-8.2265,-8.2304,-8.2304,-8.2304,-8.2304,-8.2304,-8.2304,-8.2304,-8.2304,-8.2304,-8.2304,-8.2304,-8.2304,-8.2304,-8.2304,-8.2304,-8.2304,-8.2304,-8.2304,-8.2304,-8.2304,-8.2304,-8.2304,-8.2304,-8.2304,-8.2304,-8.2304,-8.2344,-8.3164,-8.3515,-8.3594,-8.4453,-8.4804,-8.4804,-8.4883,-8.4883,-8.4883,0.0,0.0,0.0,0.0,0.0,0.0,0.0,0.0,0.0,0.0,0.0,0.0,0.0,0.0,0.0,0.0,0.0,0.0,0.0,-6.3628,-6.4282,-6.4589,-6.5128,-6.5421,-6.5461,-6.5461,-6.5672,-6.6088,-6.6174,-6.6275,-6.6387,-6.6387,-6.669,-6.7208,-6.7208,-6.7824,-6.88,-6.88,-6.9364,-7.0195,-7.0195,-7.0742,0.0,0.0,0.0,0.0,0.0,0.0,0.0,0.0,-7.487,-7.5345,-7.5917,-7.6398,-7.6709,-7.6604,-7.6582,-7.6582,-7.6582,-7.6702,-7.679,-7.6868,-7.7052,-7.7187,-7.7187,-7.7187,-7.7187,-7.7187,-7.7187,-7.7461,-7.8359,-7.9414,-8.0469,-8.1367,-8.1953,-8.2304,-8.2304,-8.2304,-8.2304,-8.2304,-8.2304,-8.2304,-8.2304,-8.2304,-8.2304,-8.2304,-8.2304,-8.2304,-8.2304,-8.2304,-8.2304,-8.2304,-8.2304,-8.2304,-8.2304,-8.2304,-8.2304,-8.2304,-8.2304,-8.2304,-8.2304,-8.2304,-8.2304,-8.2344,-8.2851,-8.3125,-8.3164,-8.4062,-8.4414,-8.4492,-8.5351,-8.6054,-8.6523,-8.6523,-8.64,-8.6257,0.0,0.0,0.0,0.0,0.0,0.0,0.0,0.0,0.0,0.0,0.0,0.0,0.0,0.0,0.0,0.0,0.0,0.0,-6.3666,-6.4551,-6.5013,-6.5013,-6.559,-6.5897,-6.5897,-6.5897,-6.5897,-6.5897,-6.5997,-6.6235,-6.6631,-6.6631,-6.7091,-6.7922,-6.7922,-6.8495,-6.9527,-6.9564,-7.0158,-7.1009,-7.1093,-7.1484,0.0,0.0,0.0,0.0,0.0,0.0,0.0,0.0,-7.5588,-7.5721,-7.6295,-7.6527,-7.651,-7.6429,-7.6466,-7.6527,-7.6518,-7.6631,-7.6839,-7.6872,-7.7,-7.7105,-7.7187,-7.7187,-7.7187,-7.7187,-7.7617,-7.8164,-7.8789,-7.9765,-8.0703,-8.1328,-8.1914,-8.2304,-8.2304,-8.2304,-8.2304,-8.2304,-8.2304,-8.2304,-8.2304,-8.2304,-8.2304,-8.2304,-8.2304,-8.2304,-8.2304,-8.2304,-8.2304,-8.2304,-8.2304,-8.2304,-8.2304,-8.2304,-8.2304,-8.2304,-8.2304,-8.2304,-8.2304,-8.2304,-8.2461,-8.2734,-8.3359,-8.375,-8.4062,-8.4961,-8.5469,-8.5781,-8.6367,-8.6953,-8.75,-8.7417,-8.7275,-8.71,0.0,0.0,0.0,0.0,0.0,0.0,0.0,0.0,0.0,0.0,0.0,0.0,0.0,0.0,0.0,0.0,0.0,0.0,-6.4628,-6.5436,-6.5897,-6.5897,-6.5897,-6.5897,-6.5897,-6.5897,-6.5897,-6.5897,-6.5897,-6.632,-6.709,-6.709,-6.7648,-6.8607,-6.8607,-6.9213,-7.0239,-7.0433,-7.0987,-7.1738,-7.1909,-7.1992,-7.1992,0.0,0.0,0.0,0.0,0.0,0.0,0.0,-7.5631,-7.5707,-7.6157,-7.6306,-7.625,-7.6052,-7.6122,-7.6295,-7.6295,-7.6457,-7.667,-7.6852,-7.688,-7.6945,-7.7147,-7.7187,-7.7187,-7.7187,-7.8515,-7.9687,-7.9687,-8.1133,-8.2304,-8.2304,-8.2304,-8.2304,-8.2304,-8.2304,-8.2304,-8.2304,-8.2304,-8.2304,-8.2304,-8.2304,-8.2304,-8.2304,-8.2304,-8.2304,-8.2304,-8.2304,-8.2304,-8.2304,-8.2304,-8.2304,-8.2304,-8.2304,-8.2304,-8.2304,-8.2304,-8.2304,-8.2304,-8.2304,-8.2773,-8.3594,-8.3633,-8.4101,-8.4961,-8.5859,-8.6719,-8.75,-8.75,-8.75,-8.746,-8.7219,-8.7104,-8.7082,0.0,0.0,0.0,0.0,0.0,0.0,0.0,0.0,0.0,0.0,0.0,0.0,0.0,0.0,0.0,0.0,0.0,0.0,-6.5474,-6.5743,-6.5897,-6.5897,-6.5897,-6.5897,-6.5897,-6.5897,-6.5897,-6.5897,-6.6474,-6.6859,-6.709,-6.7744,-6.8535,-6.9507,-6.9507,-7.0168,-7.1257,-7.1328,-7.1566,-7.1909,-7.1992,-7.2383,-7.289,0.0,0.0,0.0,0.0,0.0,0.0,0.0,0.0,0.0,-7.654,-7.6488,-7.6448,-7.6081,-7.616,-7.6338,-7.6484,-7.6677,-7.686,-7.7054,-7.7103,-7.7144,-7.7187,-7.7187,-7.7187,-7.7187,-7.8086,-7.9023,-7.9609,-8.0625,-8.1601,-8.2187,-8.2304,-8.2304,-8.2304,-8.2304,-8.2304,-8.2304,-8.2304,-8.2304,-8.2304,-8.2304,-8.2304,-8.2304,-8.2304,-8.2304,-8.2304,-8.2304,-8.2304,-8.2304,-8.2304,-8.2304,-8.2304,-8.2304,-8.2304,-8.2304,-8.2304,-8.2304,-8.2304,-8.2929,-8.3359,-8.3672,-8.4883,-8.5586,-8.5898,-8.6758,-8.7265,-8.75,-8.75,-8.7376,-8.7222,-8.7116,-8.6936,-8.6651,0.0,0.0,0.0,0.0,0.0,0.0,0.0,0.0,0.0,0.0,-6.1793,-6.2216,0.0,0.0,0.0,0.0,0.0,0.0,0.0,-6.5897,-6.5897,-6.5897,-6.5897,-6.5897,-6.5897,-6.6205,-6.6359,-6.6359,-6.6859,-6.7436,-6.8129,-6.8667,-6.9387,-7.0313,-7.0395,-7.0809,-7.151,-7.1655,-7.1953,-7.2412,-7.2499,-7.3047,-7.3828,0.0,0.0,0.0,0.0,0.0,0.0,0.0,0.0,0.0,-7.6715,-7.6568,-7.6438,-7.6197,-7.6277,-7.6466,-7.6644,-7.6864,-7.7052,-7.7187,-7.7187,-7.7187,-7.7187,-7.7187,-7.7187,-7.7187,-7.8164,-7.9101,-7.9609,-8.0703,-8.1679,-8.2226,-8.2304,-8.2304,-8.2304,-8.2304,-8.2304,-8.2304,-8.2304,-8.2304,-8.2304,-8.2304,-8.2304,-8.2304,-8.2304,-8.2304,-8.2304,-8.2304,-8.2304,-8.2304,-8.2304,-8.2304,-8.2304,-8.2304,-8.2304,-8.2304,-8.2656,-8.2812,-8.2812,-8.3359,-8.3984,-8.4726,-8.6094,-8.6719,-8.6758,-8.7265,-8.75,-8.75,-8.75,-8.733,-8.71,-8.7008,-8.6791,-8.6494,0.0,0.0,0.0,0.0,0.0,0.0,0.0,0.0,0.0,0.0,-6.2293,-6.2589,0.0,0.0,0.0,0.0,0.0,0.0,0.0,-6.5897,-6.5897,-6.5897,-6.5974,-6.6013,-6.6013,-6.6782,-6.7244,-6.7321,-6.7321,-6.8129,-6.9706,-6.9783,-7.0219,-7.0927,-7.1104,-7.1241,-7.1358,-7.1682,-7.232,-7.3156,-7.3355,-7.3945,-7.4726,-7.4726,0.0,0.0,0.0,0.0,0.0,0.0,0.0,0.0,-7.6683,-7.6484,-7.6327,-7.6295,-7.6448,-7.6624,-7.6852,-7.7052,-7.7187,-7.7187,-7.7187,-7.7187,-7.7187,-7.7187,-7.7187,-7.7187,-7.8515,-7.9687,-7.9687,-8.1133,-8.2304,-8.2304,-8.2304,-8.2304,-8.2304,-8.2304,-8.2304,-8.2304,-8.2304,-8.2304,-8.2304,-8.2304,-8.2304,-8.2304,-8.2304,-8.2304,-8.2304,-8.2304,-8.2304,-8.2304,-8.2304,-8.2304,-8.2304,-8.2304,-8.2344,-8.2422,-8.3203,-8.3672,-8.3828,-8.3828,-8.4726,-8.6367,-8.7148,-8.75,-8.75,-8.75,-8.75,-8.75,-8.746,-8.7284,-8.7034,-8.6864,-8.662,-8.6429,0.0,0.0,0.0,0.0,0.0,0.0,0.0,0.0,0.0,0.0,0.0,0.0,0.0,0.0,0.0,0.0,0.0,0.0,0.0,-6.5897,-6.5897,-6.5897,-6.6513,-6.6821,-6.6821,-6.7667,-6.8475,-6.9129,-6.9129,-6.9321,-6.9706,-7.036,-7.0812,-7.1126,-7.119,-7.1714,-7.2603,-7.2689,-7.3327,-7.4255,-7.4297,-7.4844,-7.5625,-7.5625,-7.6172,0.0,0.0,0.0,0.0,0.0,0.0,0.0,-7.6721,-7.6552,-7.648,-7.6359,-7.6448,-7.6624,-7.6852,-7.7052,-7.7187,-7.7187,-7.7187,-7.7187,-7.7187,-7.7187,-7.7187,-7.7187,-7.8515,-7.9687,-7.9687,-8.1133,-8.2304,-8.2304,-8.2304,-8.2304,-8.2304,-8.2304,-8.2304,-8.2304,-8.2304,-8.2304,-8.2304,-8.2304,-8.2304,-8.2304,-8.2304,-8.2304,-8.2304,-8.2304,-8.2304,-8.2304,-8.2304,-8.2304,-8.2304,-8.2304,-8.2656,-8.332,-8.3515,-8.4336,-8.5625,-8.5625,-8.6211,-8.7226,-8.7422,-8.75,-8.75,-8.75,-8.75,-8.7461,-8.7277,-8.7068,-8.6857,-8.6648,-8.6403,-8.6184,0.0,0.0,0.0,0.0,0.0,0.0,0.0,0.0,0.0,0.0,0.0,0.0,0.0,0.0,0.0,0.0,0.0,0.0,0.0,0.0,-6.6051,-6.6436,-6.6859,-6.7282,-6.7705,-6.859,-6.9244,-6.9706,-7.009,-7.0283,-7.0283,-7.0706,-7.0953,-7.1089,-7.1584,-7.218,-7.2796,-7.3363,-7.4173,-7.5101,-7.5194,-7.5742,-7.6523,-7.6523,-7.6797,-7.7187,-7.7187,0.0,0.0,0.0,0.0,0.0,0.0,0.0,-7.6545,-7.6379,-7.6448,-7.6624,-7.6852,-7.7052,-7.7187,-7.7187,-7.7187,-7.7187,-7.7187,-7.7187,-7.7187,-7.7187,-7.8515,-7.9687,-7.9687,-8.1133,-8.2304,-8.2304,-8.2304,-8.2304,-8.2304,-8.2304,-8.2304,-8.2304,-8.2304,-8.2304,-8.2304,-8.2304,-8.2304,-8.2304,-8.2304,-8.2304,-8.2304,-8.2304,-8.2304,-8.2304,-8.2304,-8.2304,-8.2304,-8.2304,-8.2734,-8.3594,-8.4023,-8.5156,-8.6836,-8.6836,-8.707,-8.75,-8.75,-8.75,-8.75,-8.75,-8.75,-8.75,-8.7332,-8.7155,-8.6943,-8.6841,-8.6594,-8.6274,0.0,0.0,0.0,0.0,0.0,0.0,0.0,0.0,0.0,0.0,0.0,0.0,0.0,0.0,0.0,0.0,0.0,0.0,0.0,0.0,0.0,-6.7282,-6.7475,-6.7898,-6.8629,-6.9475,-6.9898,-6.9898,-7.0552,-7.0898,-7.0898,-7.0898,-7.0975,-7.1143,-7.2039,-7.264,-7.2995,-7.4008,-7.4988,-7.5833,-7.6049,-7.6562,-7.7187,-7.7187,-7.7187,-7.7187,-7.7187,-7.7187,-7.7187,-7.7187,0.0,0.0,0.0,0.0,-7.656,-7.6448,-7.651,-7.6631,-7.6876,-7.7057,-7.7187,-7.7187,-7.7187,0.0,-7.7187,-7.7187,-7.7187,-7.7187,-7.8515,-7.9687,-7.9687,-8.1133,-8.2304,-8.2304,-8.2304,-8.2304,-8.2304,-8.2304,-8.2304,-8.2304,-8.2304,-8.2304,-8.2304,-8.2304,-8.2304,-8.2304,-8.2304,-8.2304,-8.2304,-8.2304,-8.2304,-8.2304,-8.2304,-8.2304,-8.2304,-8.2304,-8.2812,-8.3828,-8.4844,-8.6094,-8.75,-8.75,-8.75,-8.75,-8.75,-8.75,-8.75,-8.75,-8.75,-8.75,-8.7459,-8.7284,-8.71,-8.7019,-8.68,-8.6468,0.0,0.0,0.0,0.0,0.0,0.0,0.0,0.0,0.0,0.0,-6.5743,0.0,0.0,0.0,0.0,0.0,0.0,0.0,0.0,0.0,0.0,-6.8205,-6.8936,-6.9398,-6.9513,-7.0321,-7.0744,-7.0744,-7.086,-7.0898,-7.0898,-7.0898,-7.1283,-7.2028,-7.2184,-7.3149,-7.47,-7.5012,-7.5769,-7.6734,-7.6947,-7.7109,-7.7187,-7.7187,-7.7187,-7.7187,-7.7187,-7.7187,-7.7187,-7.7187,-7.7187,0.0,0.0,0.0,-7.665,-7.6765,-7.6721,-7.6696,-7.7054,0.0,-7.7187,0.0,-7.7187,-7.7187,0.0,0.0,-7.7187,0.0,-7.8515,-7.9687,-7.9687,-8.1133,-8.2304,-8.2304,-8.2304,-8.2304,-8.2304,-8.2304,-8.2304,-8.2304,-8.2304,-8.2304,-8.2304,-8.2304,-8.2304,-8.2304,-8.2304,-8.2304,-8.2304,-8.2304,-8.2304,-8.2304,-8.2304,-8.2304,-8.2304,-8.2304,-8.3125,-8.4765,-8.6367,-8.7265,-8.75,-8.75,-8.75,-8.75,-8.75,-8.75,-8.75,-8.75,-8.75,-8.7461,-8.723,-8.7116,-8.7039,-8.671,-8.6553,-8.6481,0.0,0.0,0.0,0.0,0.0,0.0,0.0,0.0,0.0,0.0,0.0,-6.5897,0.0,0.0,0.0,0.0,0.0,0.0,0.0,0.0,0.0,-6.909,-6.9513,-6.9898,-7.036,-7.0706,-7.0898,-7.0898,-7.0898,-7.1168,-7.1629,-7.1629,-7.1822,-7.2245,-7.3168,-7.4073,-7.4886,-7.5583,-7.6179,-7.6749,-7.6942,-7.7046,-7.705,-7.7147,-7.7145,-7.7052,-7.7147,-7.7187,-7.7187,-7.7187,-7.7187,-7.7147,-7.6945,0.0,0.0,0.0,-7.6749,-7.6843,-7.7104,-7.7187,-7.7187,0.0,-7.7187,-7.7187,-7.7187,-7.7187,-7.7187,-7.7187,-7.8164,-7.918,-7.9609,-8.0742,-8.1719,-8.2226,-8.2304,-8.2304,-8.2304,-8.2304,-8.2304,-8.2304,-8.2304,-8.2304,-8.2304,-8.2304,-8.2304,-8.2304,-8.2304,-8.2304,-8.2304,-8.2304,-8.2304,-8.2304,-8.2304,-8.2304,-8.2304,-8.2773,-8.3906,-8.5625,-8.6914,-8.75,-8.75,-8.75,-8.75,-8.75,-8.75,-8.75,-8.75,-8.75,-8.75,-8.75,-8.7374,-8.7327,-8.7279,-8.6955,-8.6774,-8.6648,0.0,0.0,0.0,0.0,0.0,0.0,0.0,0.0,0.0,0.0,0.0,0.0,0.0,0.0,0.0,0.0,0.0,0.0,0.0,0.0,0.0,-6.9975,-7.0014,-7.0283,-7.0898,-7.0898,-7.0898,-7.0898,-7.1129,-7.1552,-7.2206,-7.2629,-7.2822,-7.2899,-7.413,-7.4822,-7.5082,-7.5925,-7.641,-7.6597,-7.676,-7.6856,-7.6926,-7.7055,-7.7048,-7.6933,-7.7144,-7.7187,-7.7187,-7.7187,-7.7187,-7.7187,-7.7005,-7.6936,0.0,0.0,0.0,-7.7,0.0,0.0,-7.7187,-7.7187,-7.7187,-7.7187,0.0,0.0,-7.7187,0.0,-7.7734,-7.8476,-7.9492,-8.039,-8.1289,-8.2148,-8.2304,-8.2304,-8.2304,-8.2304,-8.2304,-8.2304,-8.2304,-8.2304,-8.2304,-8.2304,-8.2304,-8.2304,-8.2304,-8.2304,-8.2304,-8.2304,-8.2304,-8.2304,-8.2304,-8.2304,-8.2304,-8.3398,-8.4687,-8.6211,-8.707,-8.75,-8.75,-8.75,-8.75,-8.75,-8.75,-8.75,-8.75,-8.75,-8.75,-8.75,-8.75,-8.75,-8.746,-8.7151,-8.6943,-8.6774,0.0,0.0,0.0,0.0,0.0,0.0,0.0,0.0,0.0,0.0,0.0,0.0,-6.5897,-6.5897,-6.5897,-6.5897,-6.659,0.0,0.0,0.0,0.0,-7.0783,-7.0821,0.0,-7.0898,-7.0898,-7.0898,-7.0898,-7.1745,-7.2168,-7.2206,-7.3822,-7.4591,-7.4591,-7.4668,-7.5168,-7.5967,-7.6207,-7.6419,-7.6582,-7.6597,-7.6738,-7.6883,-7.6922,-7.6922,-7.6929,-7.7144,-7.7187,-7.7187,-7.7187,-7.7187,-7.7187,-7.7187,-7.7052,-7.6933,0.0,0.0,0.0,0.0,-7.7187,0.0,-7.7187,-7.7187,0.0,0.0,0.0,-7.7187,-7.7187,-7.7226,-7.7773,-7.9414,-8.039,-8.1289,-8.2148,-8.2304,-8.2304,-8.2304,-8.2304,-8.2304,-8.2304,-8.2304,-8.2304,-8.2304,-8.2304,-8.2304,-8.2304,-8.2304,-8.2304,-8.2304,-8.2304,-8.2304,-8.2304,-8.2304,-8.2304,-8.2304,-8.3984,-8.5273,-8.6211,-8.707,-8.75,-8.75,-8.75,-8.75,-8.75,-8.75,-8.75,-8.75,-8.75,-8.75,-8.75,-8.75,-8.75,-8.7459,-8.6968,-8.6825,-8.6708,0.0,0.0,0.0,0.0,0.0,0.0,0.0,0.0,0.0,0.0,0.0,0.0,0.0,-6.6359,-6.6667,-6.6667,-6.7975,0.0,0.0,0.0,0.0,-7.0898,-7.0898,-7.0898,-7.0898,-7.0898,-7.0898,-7.0898,-7.1783,-7.2476,-7.3053,-7.4168,-7.5014,-7.5515,-7.5515,-7.5707,-7.6005,-7.6195,-7.641,-7.6582,-7.6582,-7.6624,-7.6727,-7.6856,-7.6834,-7.6749,-7.7097,-7.7187,-7.7187,-7.7187,-7.7187,-7.7187,-7.7187,-7.7146,-7.7101,-7.7187,0.0,0.0,0.0,0.0,0.0,-7.7187,-7.7101,-7.705,-7.7187,-7.7187,-7.7187,-7.7187,-7.7187,-7.7695,-7.9375,-7.9961,-8.0625,-8.207,-8.2304,-8.2304,-8.2304,-8.2304,-8.2304,-8.2304,-8.2304,-8.2304,-8.2304,-8.2304,-8.2304,-8.2304,-8.2304,-8.2304,-8.2304,-8.2304,-8.2304,-8.2304,-8.2304,-8.2851,-8.3945,-8.4609,-8.5625,-8.7031,-8.7344,-8.75,-8.75,-8.75,-8.75,-8.75,-8.75,-8.75,-8.75,-8.75,-8.75,-8.75,-8.75,-8.75,-8.7459,-8.6962,-8.6817,-8.6747,0.0,0.0,0.0,0.0,0.0,0.0,0.0,0.0,-6.5897,-6.5897,0.0,0.0,0.0,0.0,-6.7321,-6.7936,-6.9013,-6.9821,-7.009,-7.0591,-7.0898,-7.0898,-7.0898,-7.0898,-7.0898,-7.0629,-7.0783,-7.1321,-7.1898,-7.2783,-7.3937,-7.4745,-7.5438,-7.6015,-7.6015,-7.6015,-7.6005,-7.6195,-7.641,-7.6582,-7.6582,-7.6582,-7.6604,-7.6839,-7.677,-7.6631,-7.7054,-7.7187,-7.7187,-7.7187,-7.7187,-7.7187,-7.7187,-7.7187,-7.7187,0.0,0.0,0.0,-7.7187,0.0,0.0,0.0,0.0,-7.6936,-7.7057,0.0,-7.7187,-7.7187,-7.7187,-7.7695,-7.9375,-7.9687,-8.0273,-8.2031,-8.2304,-8.2304,-8.2304,-8.2304,-8.2304,-8.2304,-8.2304,-8.2304,-8.2304,-8.2304,-8.2304,-8.2304,-8.2304,-8.2304,-8.2304,-8.2304,-8.2304,-8.2304,-8.2304,-8.3125,-8.4883,-8.4883,-8.5781,-8.75,-8.75,-8.75,-8.75,-8.75,-8.75,-8.75,-8.75,-8.75,-8.75,-8.75,-8.75,-8.75,-8.75,-8.7459,-8.7325,-8.6936,-8.6765,-8.663,0.0,0.0,0.0,0.0,0.0,0.0,0.0,0.0,-6.5897,-6.5936,0.0,0.0,0.0,0.0,0.0,-6.959,-6.9744,-7.0052,-7.086,-7.0898,-7.0898,-7.0898,0.0,0.0,-7.0937,-7.0167,-7.0591,-7.2245,-7.2245,-7.3091,-7.4707,-7.5592,-7.6015,-7.6015,-7.6015,-7.6015,-7.6005,-7.6195,-7.641,-7.6582,-7.6575,-7.6582,-7.665,-7.6834,-7.6765,-7.6677,-7.7054,-7.7187,-7.7187,-7.7187,-7.7187,-7.7187,-7.7187,-7.7187,-7.7187,0.0,0.0,0.0,0.0,0.0,0.0,0.0,0.0,0.0,-7.6883,0.0,-7.7187,-7.7187,-7.7187,-7.7695,-7.9375,-7.9687,-8.0273,-8.2031,-8.2304,-8.2304,-8.2304,-8.2304,-8.2304,-8.2304,-8.2304,-8.2304,-8.2304,-8.2304,-8.2304,-8.2304,-8.2304,-8.2304,-8.2304,-8.2304,-8.2304,-8.2304,-8.2304,-8.3125,-8.4883,-8.4883,-8.5781,-8.75,-8.75,-8.75,-8.75,-8.75,-8.75,-8.75,-8.75,-8.75,-8.75,-8.75,-8.75,-8.75,-8.75,-8.733,-8.7096,-8.6894,-8.6661,-8.6481,0.0,0.0,0.0,0.0,0.0,-6.6109,-6.6109,-6.5986,-6.609,0.0,0.0,0.0,-6.7936,-6.859,-6.9398,-7.0475,-7.0552,-7.0667,-7.0898,-7.0898,-7.0898,-7.0898,-7.0898,-7.1206,-7.1822,-7.1629,-7.2052,-7.3129,-7.3707,-7.4245,-7.4707,-7.5592,-7.6015,-7.6015,-7.6015,-7.6015,-7.6005,-7.6195,-7.641,-7.6606,-7.6448,-7.6576,-7.679,-7.6727,-7.6744,-7.6856,-7.7103,-7.7187,-7.7187,-7.7187,-7.7187,-7.7187,-7.7187,-7.7187,0.0,0.0,0.0,0.0,-7.7187,0.0,0.0,0.0,0.0,0.0,0.0,0.0,-7.7007,-7.7187,-7.7187,-7.7695,-7.9375,-7.9687,-8.0273,-8.2031,-8.2304,-8.2304,-8.2304,-8.2304,-8.2304,-8.2304,-8.2304,-8.2304,-8.2304,-8.2304,-8.2304,-8.2304,-8.2304,-8.2304,-8.2304,-8.2304,-8.2304,-8.2304,-8.2304,-8.3125,-8.4883,-8.4883,-8.5781,-8.75,-8.75,-8.75,-8.75,-8.75,-8.75,-8.75,-8.75,-8.75,-8.75,-8.75,-8.75,-8.75,-8.75,-8.7459,-8.7329,-8.6943,-8.6774,-8.6651,0.0,0.0,0.0,0.0,-6.6399,-6.6337,-6.6678,-6.6527,-6.6705,0.0,0.0,0.0,-6.8859,-6.9706,-7.0398,-7.086,-7.0898,-7.0898,-7.0898,-7.0898,-7.1052,-7.1437,-7.1437,-7.186,-7.2706,-7.2399,-7.2783,-7.4014,-7.413,-7.4553,-7.5245,-7.5745,-7.6015,-7.6015,-7.6015,-7.6015,-7.6029,-7.6121,-7.6273,-7.6493,-7.6552,-7.6624,-7.677,-7.6843,-7.6864,-7.6933,-7.7145,-7.7187,-7.7187,-7.7187,-7.7187,-7.7187,-7.7187,-7.7187,0.0,0.0,0.0,0.0,0.0,0.0,0.0,0.0,0.0,0.0,-7.6765,-7.6883,-7.7054,0.0,-7.7187,-7.7695,-7.9375,-7.9687,-8.0273,-8.2031,-8.2304,-8.2304,-8.2304,-8.2304,-8.2304,-8.2304,-8.2304,-8.2304,-8.2304,-8.2304,-8.2304,-8.2304,-8.2304,-8.2304,-8.2304,-8.2304,-8.2304,-8.2304,-8.2304,-8.3125,-8.4883,-8.4883,-8.5781,-8.75,-8.75,-8.75,-8.75,-8.75,-8.75,-8.75,-8.75,-8.75,-8.75,-8.75,-8.75,-8.75,-8.75,-8.7372,-8.7155,-8.6909,-8.669,-8.6466,0.0,0.0,-6.6727,-6.6991,-6.6759,-6.6815,-6.7626,-6.7444,-6.7552,0.0,-6.8615,-6.8975,-6.9744,-7.0475,-7.0898,-7.0898,-7.0975,-7.1052,-7.1052,-7.1129,-7.1514,-7.2322,-7.2322,-7.2745,-7.363,-7.286,-7.3245,-7.4861,-7.413,-7.4553,-7.6015,-7.6015,-7.6015,-7.6015,-7.6015,0.0,-7.6015,-7.6015,-7.6108,-7.6338,-7.6702,-7.6755,-7.669,-7.7048,-7.7057,-7.6945,-7.7145,-7.7187,-7.7187,-7.7187,-7.7187,-7.7187,-7.7187,-7.7187,0.0,0.0,-7.7187,0.0,0.0,0.0,0.0,0.0,0.0,0.0,-7.6638,-7.6876,-7.7146,0.0,-7.7187,-7.7695,-7.9258,-7.9648,-8.0234,-8.1875,-8.2226,-8.2304,-8.2304,-8.2304,-8.2304,-8.2304,-8.2304,-8.2304,-8.2304,-8.2304,-8.2304,-8.2304,-8.2304,-8.2304,-8.2304,-8.2304,-8.2304,-8.2304,-8.2304,-8.3086,-8.4726,-8.4844,-8.5742,-8.7344,-8.7461,-8.75,-8.75,-8.75,-8.75,-8.75,-8.75,-8.75,-8.75,-8.75,-8.75,-8.75,-8.75,-8.7261,-8.688,-8.6833,-8.656,-8.6184,0.0,-6.6874,-6.7069,-6.7812,-6.7614,-6.7665,-6.8527,-6.8372,-6.8475,-6.9321,-7.0014,-7.0475,-7.0667,-7.0821,-7.0898,-7.0898,-7.1552,-7.1937,-7.1937,-7.2591,-7.3091,-7.3245,-7.3245,-7.363,-7.4437,-7.4322,-7.4707,-7.5745,-7.5592,-7.5668,-7.6015,-7.6015,-7.6015,-7.6015,-7.6015,-7.6015,-7.6015,-7.6015,-7.6108,-7.6295,-7.641,-7.6606,-7.6856,-7.6933,-7.7048,-7.7146,-7.7187,-7.7187,-7.7187,-7.7187,-7.7187,-7.7187,-7.7187,-7.7187,0.0,-7.7187,0.0,0.0,0.0,0.0,0.0,0.0,-7.665,0.0,-7.6765,-7.6765,-7.6829,0.0,-7.7187,-7.75,-7.8555,-7.9258,-8.0039,-8.1094,-8.1836,-8.2304,-8.2304,-8.2304,-8.2304,-8.2304,-8.2304,-8.2304,-8.2304,-8.2304,-8.2304,-8.2304,-8.2304,-8.2304,-8.2304,-8.2304,-8.2304,-8.2304,-8.2304,-8.2812,-8.3828,-8.4531,-8.5429,-8.6445,-8.7148,-8.75,-8.75,-8.75,-8.75,-8.75,-8.75,-8.75,-8.75,-8.75,-8.75,-8.75,-8.75,-8.7459,-8.7321,-8.6936,-8.6756,-8.6609,0.0,-6.8164,-6.832,-6.8789,-6.8515,-6.8527,-6.9415,-6.9262,-6.936,-7.0206,-7.0667,-7.1052,-7.1514,-7.1552,-7.1706,-7.2168,-7.2591,-7.286,-7.286,-7.3245,-7.3668,-7.4091,-7.4091,-7.4476,-7.5322,-7.5361,-7.5553,-7.6015,-7.6015,-7.6015,-7.6015,-7.6015,-7.6015,-7.6015,-7.6015,-7.6015,-7.6029,-7.6095,-7.6195,-7.6306,-7.64,-7.6611,-7.6926,-7.7002,-7.7104,-7.7187,-7.7187,-7.7187,-7.7187,-7.7187,-7.7187,-7.7187,-7.7187,-7.7187,-7.7187,0.0,-7.7187,-7.7187,0.0,0.0,0.0,-7.6785,0.0,0.0,0.0,-7.6582,-7.6677,-7.686,-7.688,-7.727,-7.8558,-7.9143,-7.9863,-8.1265,-8.1855,-8.2176,-8.2304,-8.2304,-8.2304,-8.2304,-8.2304,-8.2304,-8.2304,-8.2304,-8.2304,-8.2304,-8.2304,-8.2304,-8.2304,-8.2304,-8.2304,-8.2304,-8.2304,-8.2734,-8.3594,-8.4453,-8.5351,-8.6211,-8.707,-8.75,-8.75,-8.75,-8.75,-8.75,-8.75,-8.75,-8.75,-8.75,-8.75,-8.75,-8.75,-8.7418,-8.7272,-8.6929,-8.6738,-8.6605,-6.9297,-6.9453,-6.9531,-6.9687,-6.9426,-6.9499,-7.031,-7.0194,-7.0208,-7.0835,-7.1052,-7.1398,-7.2129,-7.236,-7.2745,-7.3437,-7.363,-7.3745,-7.3745,-7.3899,-7.4284,-7.4938,-7.4938,-7.5284,-7.5976,-7.6015,-7.6015,-7.6015,-7.6015,-7.6015,-7.6015,-7.6015,-7.6015,-7.6015,-7.6048,-7.6052,-7.6079,-7.6261,0.0,-7.6429,0.0,-7.6755,-7.6933,-7.7105,-7.7187,-7.7187,-7.7187,-7.7187,-7.7226,-7.7383,-7.7461,-7.7461,-7.7617,-7.7578,0.0,0.0,0.0,0.0,0.0,0.0,0.0,0.0,0.0,-7.6765,0.0,0.0,0.0,0.0,0.0,0.0,0.0,0.0,0.0,0.0,0.0,0.0,0.0,-8.222,0.0,-8.2304,-8.2304,-8.2304,-8.2304,-8.2304,-8.2304,-8.2304,-8.2304,-8.2304,-8.2304,-8.2304,-8.2304,-8.2304,-8.2304,-8.2656,-8.3359,-8.4375,-8.5234,-8.5976,-8.6992,-8.75,-8.75,-8.75,-8.75,-8.75,-8.75,-8.75,-8.75,-8.75,-8.75,-8.75,-8.75,-8.733,-8.7091,-8.6855,-8.6661,-8.6468,-6.9531,-6.9414,-6.9648,-7.043,-7.0442,-7.0546,-7.1232,-7.1162,-7.1004,-7.09,-7.1552,-7.2091,-7.2168,-7.2899,-7.3399,-7.35,-7.4168,-7.4553,-7.4553,-7.5284,-7.5745,-7.5861,-7.5861,-7.5899,-7.6015,-7.6015,-7.6015,-7.6015,-7.6015,-7.6015,-7.6015,-7.6015,-7.6015,-7.5991,-7.6185,-7.6277,-7.6273,-7.6493,-7.6683,0.0,-7.686,-7.6872,0.0,-7.7105,-7.7187,-7.7187,-7.7187,-7.7187,-7.7305,-7.8086,-7.8359,-7.8476,0.0,-7.8945,-7.8359,-7.8359,0.0,0.0,0.0,0.0,0.0,0.0,-7.6872,0.0,0.0,0.0,-7.7055,-7.7792,0.0,0.0,0.0,0.0,0.0,0.0,0.0,0.0,-8.1805,-8.1909,-8.2113,-8.2265,-8.2304,-8.2304,-8.2304,-8.2304,-8.2304,-8.2304,-8.2304,-8.2304,-8.2304,-8.2304,-8.2304,-8.2304,-8.2304,-8.2344,-8.2461,-8.4062,-8.4961,-8.5078,-8.6719,-8.75,-8.75,-8.75,-8.75,-8.75,-8.75,-8.75,-8.75,-8.75,-8.75,-8.75,-8.75,-8.733,-8.7091,-8.6855,-8.6661,-8.6468,-7.0976,-7.0898,-7.1015,-7.1406,-7.1307,-7.1265,-7.1472,-7.1771,-7.1926,-7.1843,-7.2592,-7.3287,-7.3751,-7.4062,-7.4399,-7.4899,-7.5245,-7.5438,-7.5438,-7.5784,-7.6015,-7.6015,-7.6015,-7.6015,-7.6015,-7.6015,-7.6015,-7.6015,-7.6121,-7.6172,-7.6185,-7.6284,-7.6359,-7.6369,-7.6438,-7.6484,-7.6501,-7.6702,-7.6839,0.0,0.0,-7.7058,0.0,-7.7187,-7.75,-7.7969,-7.7969,-7.8242,-7.8711,-7.9062,-7.9219,0.0,0.0,0.0,0.0,0.0,0.0,0.0,0.0,0.0,0.0,0.0,0.0,0.0,-7.8334,0.0,-7.8306,0.0,0.0,0.0,0.0,0.0,0.0,0.0,-8.1367,0.0,0.0,0.0,-8.1861,0.0,0.0,0.0,-8.2304,-8.2304,-8.2304,-8.2304,-8.2304,-8.2304,-8.2304,-8.2304,-8.2304,-8.2304,-8.2304,-8.2304,-8.2304,-8.4023,-8.484,-8.4736,-8.6599,-8.7418,-8.7277,-8.7419,-8.75,-8.75,-8.733,-8.7277,-8.7275,-8.7143,-8.7078,-8.7078,-8.7078,-8.7087,-8.7091,-8.6855,-8.6661,-8.6468,-7.1992,0.0,0.0,-7.1992,-7.1815,-7.1733,-7.1823,-7.2207,-7.2597,-7.283,-7.3594,-7.4337,-7.4866,-7.4988,-7.5322,-7.5938,-7.6015,-7.6015,-7.6015,-7.6015,-7.6015,-7.6015,-7.6015,-7.6015,-7.6015,-7.6038,-7.6093,-7.6093,-7.6273,-7.6371,-7.6381,-7.6513,-7.6582,-7.6582,-7.6677,-7.6696,-7.6709,-7.6919,-7.6993,-7.6998,-7.7145,-7.7344,-7.7578,-7.7578,-7.8086,-7.8828,-7.8828,-7.9219,-7.9726,-7.9961,-8.0078,-8.0117,-8.0351,-8.0234,0.0,0.0,0.0,0.0,-7.9687,0.0,0.0,0.0,0.0,0.0,0.0,0.0,0.0,0.0,0.0,0.0,0.0,0.0,0.0,-8.1195,0.0,-8.1414,0.0,-8.1591,0.0,0.0,0.0,0.0,0.0,-8.2265,-8.2304,-8.2304,-8.2304,-8.2304,-8.2304,-8.2304,-8.2304,-8.2304,-8.2304,-8.2265,-8.222,-8.3939,-8.4695,-8.4512,-8.6396,-8.7212,-8.7019,-8.7216,-8.7318,-8.7316,-8.7096,-8.7013,-8.7008,-8.6841,-8.6817,-8.6817,-8.6817,-8.6872,-8.6936,-8.6783,-8.6583,-8.6373,-7.1992,-7.1992,0.0,0.0,-7.1815,-7.1928,-7.2647,-7.2604,-7.2791,-7.3633,-7.4446,-7.4916,0.0,0.0,-7.5976,-7.6015,-7.6015,-7.6015,-7.6015,-7.6015,-7.6015,-7.6015,-7.6015,-7.6015,-7.6015,-7.621,-7.6284,-7.6273,-7.6501,-7.6575,-7.6575,-7.6621,-7.6582,-7.659,-7.679,-7.6876,-7.6919,-7.7101,-7.7187,-7.7187,-7.7187,-7.7695,-7.8476,0.0,-7.8945,-7.9648,-7.9648,-7.9687,-7.9844,-8.0664,-8.0976,-8.1094,-8.1953,-8.164,0.0,0.0,0.0,0.0,0.0,-7.9687,0.0,-7.9687,0.0,0.0,0.0,0.0,-7.9569,0.0,0.0,0.0,0.0,0.0,0.0,-8.1108,0.0,0.0,0.0,0.0,0.0,0.0,0.0,0.0,0.0,-8.2176,-8.2304,-8.2304,-8.2304,-8.2304,-8.2304,-8.2304,-8.2304,-8.2304,-8.2304,-8.2218,-8.1996,-8.3748,-8.4468,-8.4217,-8.5977,-8.6833,-8.6825,-8.6833,-8.6841,-8.6833,-8.6794,-8.6825,-8.6825,-8.6817,-8.6817,-8.6817,-8.6817,-8.6681,-8.6505,-8.6492,-8.6346,-8.611,0.0,0.0,0.0,0.0,0.0,-7.2987,-7.3688,-7.4126,0.0,0.0,-7.5411,0.0,0.0,-7.59,-7.6015,-7.6015,-7.6015,-7.6015,-7.6015,-7.6015,-7.6015,-7.6015,-7.6015,-7.6015,-7.6015,-7.6222,-7.6295,-7.6295,-7.6618,-7.6785,-7.6785,-7.6936,-7.6998,-7.6998,-7.7057,-7.7101,0.0,0.0,0.0,0.0,0.0,-7.8906,-8.0078,-7.9492,-7.9805,-8.0547,-8.0547,-8.0937,-8.1484,-8.1758,-8.1875,-8.1914,-8.2226,-8.2109,-8.1875,-8.1875,-8.164,-8.1406,-8.1406,-8.1406,-8.1406,-8.1406,-8.1406,-8.1406,0.0,0.0,0.0,0.0,0.0,0.0,0.0,0.0,0.0,-8.1285,0.0,0.0,0.0,0.0,0.0,0.0,0.0,0.0,0.0,0.0,-8.217,-8.2304,-8.2304,-8.2304,-8.2304,-8.2304,-8.2304,-8.2304,-8.2304,-8.2218,-8.1992,-8.3744,-8.4403,-8.4034,-8.5883,-8.6738,-8.6605,-8.6747,-8.6817,-8.6808,-8.6641,-8.6594,-8.6583,-8.6404,-8.6349,-8.6349,-8.6349,-8.6303,-8.6268,-8.6429,-8.6331,-8.6094,-7.2461,0.0,0.0,0.0,0.0,0.0,-7.463,0.0,0.0,0.0,-7.608,0.0,-7.6183,0.0,-7.6015,-7.6015,-7.6015,-7.6015,-7.6015,-7.6015,-7.6015,-7.6015,-7.6066,-7.6095,-7.6095,-7.6361,-7.6496,-7.6496,-7.6852,-7.7,-7.7,-7.7145,-7.7187,-7.7187,-7.7187,-7.7187,-7.7187,-7.7187,-7.7383,0.0,0.0,-8.0039,0.0,-8.0703,-8.0976,-8.1445,-8.1445,-8.1836,-8.2304,-8.2304,-8.2304,-8.2304,-8.2304,-8.2304,-8.2304,-8.2304,-8.2304,-8.2304,-8.2304,-8.2304,-8.2304,-8.2304,-8.2304,-8.2304,-8.2304,0.0,-8.1992,0.0,0.0,0.0,0.0,0.0,0.0,0.0,0.0,0.0,0.0,-8.1093,0.0,0.0,0.0,0.0,0.0,-8.2003,-8.217,-8.2304,-8.2304,-8.2304,-8.2304,-8.2304,-8.2304,-8.2304,-8.2222,-8.2113,-8.1889,-8.3539,-8.4145,-8.3809,-8.5665,-8.6466,-8.6373,-8.649,-8.6533,-8.6522,-8.6391,-8.6373,-8.6346,-8.6168,-8.6094,-8.6094,-8.6094,-8.6094,-8.6126,-8.6274,-8.6253,-8.6094,0.0,0.0,0.0,0.0,-7.3967,-7.4666,-7.5521,0.0,-7.5648,0.0,-7.64,-7.6195,-7.602,-7.6015,-7.6015,-7.6015,-7.6015,-7.6015,-7.6015,-7.6015,-7.5991,0.0,-7.6222,-7.6306,-7.6306,0.0,0.0,-7.6883,-7.7101,-7.7187,-7.7187,-7.7187,-7.7187,-7.7187,-7.7187,0.0,-7.7187,-7.7265,-7.7773,-7.875,-8.0351,-8.1015,-8.1133,-8.1992,-8.2304,-8.2304,-8.2304,-8.2304,-8.2304,-8.2304,-8.2304,-8.2304,-8.2304,-8.2304,-8.2304,-8.2304,-8.2304,-8.2304,-8.2304,-8.2304,-8.2304,-8.2304,-8.2304,-8.2304,-8.2304,-8.2127,-8.1992,0.0,0.0,0.0,0.0,0.0,0.0,0.0,0.0,0.0,0.0,0.0,0.0,0.0,0.0,0.0,0.0,-8.2059,-8.2304,-8.2304,-8.2304,-8.2304,-8.2304,-8.2304,-8.2304,-8.2304,-8.2115,-8.1894,-8.1688,-8.3169,-8.3823,-8.3593,-8.5286,-8.6094,-8.6094,-8.6094,-8.6094,-8.6094,-8.6094,-8.6094,-8.6094,-8.6094,-8.6094,-8.6094,-8.6094,-8.6094,-8.6094,-8.6094,-8.6094,-8.6094,-7.4258,-7.4961,-7.5703,0.0,-7.5819,-7.573,-7.6464,-7.6387,0.0,0.0,-7.6183,-7.6052,-7.6029,-7.6015,-7.6015,-7.6015,-7.6015,0.0,0.0,0.0,0.0,-7.6234,-7.625,-7.6361,-7.6535,-7.6765,-7.688,-7.6919,-7.7101,-7.7187,-7.7187,-7.7187,-7.7187,-7.7187,-7.7187,-7.7187,-7.7226,-7.789,-7.9023,-8.039,-8.082,-8.1406,-8.1992,-8.2226,-8.2304,-8.2304,-8.2304,-8.2304,-8.2304,-8.2304,-8.2304,-8.2304,-8.2304,-8.2304,-8.2304,-8.2304,-8.2304,-8.2304,-8.2304,-8.2304,-8.2304,-8.2304,-8.2304,-8.2304,-8.2304,-8.2127,-8.2049,-8.2178,-8.1923,-8.1773,-8.2071,-8.1799,-8.1494,0.0,0.0,0.0,0.0,0.0,0.0,-8.1285,0.0,0.0,0.0,-8.1914,-8.2125,-8.2304,-8.2304,-8.2304,-8.2304,-8.2304,-8.2304,-8.2304,-8.2115,-8.1894,-8.1688,-8.3169,-8.3823,-8.3593,-8.5286,-8.6094,-8.6094,-8.6094,-8.6094,-8.6094,-8.6094,-8.6094,-8.6094,-8.6094,-8.6094,-8.6094,-8.6094,-8.6094,-8.6094,-8.6094,-8.6094,-8.6094,-7.5156,0.0,0.0,-7.7109,-7.6714,-7.6462,-7.6848,-7.6732,0.0,-7.6338,-7.6134,0.0,-7.6015,-7.6015,-7.6015,-7.6015,-7.6015,0.0,-7.6015,0.0,0.0,-7.6284,-7.6484,-7.6636,-7.6732,-7.6933,0.0,-7.7046,0.0,-7.7187,-7.7187,-7.7187,-7.7187,-7.7187,-7.7187,-7.7422,-7.7851,-7.9062,-8.0156,-8.1015,-8.1406,-8.1875,0.0,-8.2304,-8.2304,-8.2304,-8.2304,-8.2304,-8.2304,-8.2304,-8.2304,-8.2304,-8.2304,-8.2304,-8.2304,-8.2304,-8.2304,-8.2304,-8.2304,-8.2304,-8.2304,-8.2304,-8.2304,-8.2304,-8.2304,-8.2219,-8.2171,-8.2265,-8.212,-8.2049,-8.2264,-8.2003,-8.1819,0.0,0.0,0.0,0.0,0.0,0.0,0.0,-8.1688,0.0,-8.1844,-8.2,-8.2175,-8.2304,-8.2304,-8.2304,-8.2304,-8.2304,-8.2264,-8.2173,-8.2059,-8.1861,-8.1572,-8.3103,-8.3823,-8.3593,-8.5286,-8.6094,-8.6094,-8.6094,-8.6094,-8.6094,-8.6094,-8.6094,-8.6094,-8.6094,-8.6094,-8.6094,-8.6094,-8.6094,-8.6094,-8.6094,-8.6094,-8.6094,0.0,0.0,0.0,0.0,0.0,-7.6876,-7.686,-7.6702,-7.6501,-7.6284,0.0,-7.6048,-7.6048,-7.6052,-7.6079,-7.6079,-7.6038,-7.6038,-7.6079,-7.6207,-7.6327,-7.64,-7.6721,-7.6926,-7.6936,-7.7103,-7.7187,0.0,0.0,-7.7187,-7.7187,-7.7187,-7.7187,-7.7187,-7.7187,0.0,0.0,-8.0312,-8.1054,-8.125,-8.1992,-8.2304,-8.2304,-8.2304,-8.2304,-8.2304,-8.2304,-8.2304,-8.2304,-8.2304,-8.2304,-8.2304,-8.2304,-8.2304,-8.2304,-8.2304,-8.2304,-8.2304,-8.2304,-8.2304,-8.2304,-8.2304,-8.2304,-8.2304,-8.2304,-8.2304,-8.2304,-8.2304,-8.2304,-8.2304,-8.2304,-8.2265,0.0,0.0,0.0,0.0,0.0,0.0,0.0,0.0,0.0,0.0,-8.2049,-8.2217,-8.2304,-8.2304,-8.2304,-8.2304,-8.2304,-8.2304,-8.2219,-8.1996,-8.1976,-8.1805,-8.1436,-8.3036,-8.3796,-8.3672,-8.5318,-8.6094,-8.6094,-8.6094,-8.6094,-8.6094,-8.6094,-8.6094,-8.6094,-8.6094,-8.6094,-8.6094,-8.6094,-8.6094,-8.6094,-8.6094,-8.6094,-8.6094,0.0,0.0,0.0,0.0,0.0,-7.6847,-7.669,-7.6493,-7.6273,-7.6093,-7.6172,-7.6254,-7.6254,-7.6391,-7.6471,-7.6471,-7.6359,0.0,0.0,0.0,0.0,-7.6775,-7.6864,-7.6993,-7.7145,-7.7187,-7.7187,0.0,0.0,-7.7187,-7.7187,-7.7187,-7.7187,-7.7187,0.0,0.0,-7.957,-8.0586,0.0,-8.2109,-8.2226,-8.2304,-8.2304,-8.2304,-8.2304,-8.2304,-8.2304,-8.2304,-8.2304,-8.2304,-8.2304,-8.2304,-8.2304,-8.2304,-8.2304,-8.2304,-8.2304,-8.2304,-8.2304,-8.2304,-8.2304,-8.2304,-8.2304,-8.2304,-8.2304,-8.2304,-8.2304,-8.2304,-8.2304,-8.2304,-8.2304,-8.2171,-8.1984,0.0,0.0,0.0,0.0,0.0,0.0,0.0,0.0,-8.2062,0.0,0.0,-8.2304,-8.2304,-8.2304,-8.2304,-8.2304,-8.2304,-8.2219,-8.1996,-8.185,-8.1703,-8.167,-8.2973,-8.3707,-8.385,-8.5368,-8.6094,-8.6094,-8.6094,-8.6094,-8.6094,-8.6094,-8.6094,-8.6094,-8.6094,-8.6094,-8.6094,-8.6094,-8.6094,-8.6094,-8.6094,-8.6094,-8.6094,0.0,0.0,0.0,0.0,0.0,-7.669,-7.6493,-7.6341,-7.6277,-7.616,-7.6243,-7.6348,-7.6448,-7.6521,-7.6582,-7.6582,-7.6488,-7.651,-7.6575,-7.659,-7.6715,-7.688,-7.7,-7.7101,-7.7187,-7.7187,-7.7187,-7.7187,-7.7187,-7.7187,-7.7187,-7.7187,-7.7187,-7.7226,0.0,-7.9219,0.0,0.0,-8.1914,-8.2304,-8.2304,-8.2304,-8.2304,-8.2304,-8.2304,-8.2304,-8.2304,-8.2304,-8.2304,-8.2304,-8.2304,-8.2304,-8.2304,-8.2304,-8.2304,-8.2304,-8.2304,-8.2304,-8.2304,-8.2304,-8.2304,-8.2304,-8.2304,-8.2304,-8.2304,-8.2304,-8.2304,-8.2304,-8.2304,-8.2304,-8.2304,-8.222,-8.2122,-8.2046,-8.2,0.0,0.0,0.0,0.0,0.0,0.0,0.0,0.0,0.0,0.0,0.0,0.0,0.0,-8.2304,-8.2218,-8.2056,-8.1855,-8.1732,-8.1609,-8.1395,-8.2973,-8.374,-8.3765,-8.5344,-8.6094,-8.6094,-8.6094,-8.6094,-8.6094,-8.6094,-8.6094,-8.6094,-8.6094,-8.6094,-8.6094,-8.6094,-8.6094,-8.6094,-8.6094,-8.6094,-8.6094,0.0,-7.7187,0.0,0.0,-7.6709,-7.651,-7.6371,-7.6327,-7.6284,-7.6295,-7.6361,-7.6501,-7.6663,-7.6715,-7.6732,-7.6732,-7.6702,-7.6696,-7.6732,-7.6847,-7.6929,-7.6948,-7.7104,-7.7187,-7.7187,-7.7187,-7.7187,0.0,-7.7187,-7.7109,-7.6914,-7.7109,-7.7305,-7.7539,-7.9023,-8.0195,-8.1054,-8.1914,-8.2304,-8.2304,-8.2304,-8.2304,-8.2304,-8.2304,-8.2304,-8.2304,-8.2304,-8.2304,-8.2304,-8.2304,-8.2304,-8.2304,-8.2304,-8.2304,-8.2304,-8.2304,-8.2304,-8.2304,-8.2304,-8.2304,-8.2304,-8.2304,-8.2304,-8.2304,-8.2304,-8.2304,-8.2304,-8.2304,-8.2304,-8.2304,-8.2304,-8.2304,-8.2304,-8.2304,-8.2304,0.0,0.0,0.0,0.0,0.0,0.0,0.0,-8.2304,0.0,0.0,0.0,0.0,0.0,-8.2304,-8.2168,-8.1976,-8.1753,-8.1703,-8.1543,-8.1228,-8.2973,-8.3782,-8.368,-8.5334,-8.6094,-8.6094,-8.6094,-8.6094,-8.6094,-8.6094,-8.6094,-8.6094,-8.6094,-8.6094,-8.6094,-8.6094,-8.6094,-8.6094,-8.6094,-8.6094,-8.6094,0.0,0.0,0.0,0.0,-7.6567,-7.6371,-7.6568,-7.641,-7.6295,-7.6295,-7.6604,-7.6856,-7.6868,-7.7048,-7.7146,-7.7146,-7.6993,-7.6942,-7.7145,-7.6998,-7.6993,-7.7147,-7.7187,-7.7187,-7.7187,-7.7187,-7.7187,0.0,-7.7187,-7.6797,-7.6055,-7.6836,-7.7617,-7.8437,-7.9297,-8.0195,-8.1054,-8.1914,-8.2304,-8.2304,-8.2304,-8.2304,-8.2304,-8.2304,-8.2304,-8.2304,-8.2304,-8.2304,-8.2304,-8.2304,-8.2304,-8.2304,-8.2304,-8.2304,-8.2304,-8.2304,-8.2304,-8.2304,-8.2304,-8.2304,-8.2304,-8.2304,-8.2304,-8.2304,-8.2304,-8.2304,-8.2304,-8.2304,-8.2304,-8.2304,-8.2304,-8.2304,-8.2304,-8.2304,-8.2304,0.0,0.0,0.0,-8.2304,0.0,0.0,0.0,0.0,-8.2304,0.0,0.0,-8.2304,0.0,-8.2304,-8.2265,-8.2175,-8.198,-8.1812,-8.1664,-8.1623,-8.2947,-8.3693,-8.3889,-8.5383,-8.6094,-8.6094,-8.6094,-8.6094,-8.6094,-8.6094,-8.6094,-8.6094,-8.6094,-8.6094,-8.6094,-8.6094,-8.6094,-8.6094,-8.6094,-8.6094,-8.6094,-7.7187,-7.7145,-7.705,-7.6929,-7.6683,-7.6527,-7.6567,-7.6513,-7.6505,-7.6624,-7.6785,-7.6939,-7.7057,-7.7147,-7.7187,-7.7187,-7.7144,-7.7104,-7.7187,-7.7105,-7.7104,-7.7187,-7.7187,-7.7187,-7.7187,-7.7187,-7.7187,0.0,0.0,-7.7031,-7.668,-7.7031,-7.793,-7.9258,-8.0117,-8.0976,-8.1797,-8.2148,-8.2304,-8.2304,-8.2304,-8.2304,-8.2304,-8.2304,-8.2304,-8.2304,-8.2304,-8.2304,-8.2304,-8.2304,-8.2304,-8.2304,-8.2304,-8.2304,-8.2304,-8.2304,-8.2304,-8.2304,-8.2304,-8.2304,-8.2304,-8.2304,-8.2304,-8.2304,-8.2304,-8.2304,-8.2304,-8.2304,-8.2304,-8.2304,-8.2304,-8.2304,-8.2304,-8.2304,-8.2304,-8.2304,0.0,0.0,0.0,0.0,0.0,0.0,0.0,-8.2304,0.0,0.0,0.0,-8.2304,-8.2304,-8.2065,-8.1971,-8.1992,-8.1572,-8.1407,-8.1504,-8.2916,-8.3649,-8.3746,-8.5328,-8.6094,-8.6094,-8.6094,-8.6094,-8.6094,-8.6094,-8.6094,-8.6094,-8.6094,-8.6094,-8.6094,-8.6094,-8.6094,-8.6094,-8.6094,-8.6094,-8.6094,-7.7187,-7.7147,-7.7055,-7.6929,-7.6738,-7.6604,-7.6696,-7.6702,-7.676,-7.6948,-7.6995,-7.705,-7.7187,-7.7187,-7.7187,-7.7187,-7.7187,-7.7187,-7.7187,-7.7187,-7.7187,-7.7187,-7.7187,0.0,-7.7187,-7.7187,-7.7187,-7.7187,-7.7187,-7.707,-7.6836,-7.707,-7.8086,-7.9726,-8.0625,-8.1484,-8.2304,-8.2304,-8.2304,-8.2304,-8.2304,-8.2304,-8.2304,-8.2304,-8.2304,-8.2304,-8.2304,-8.2304,-8.2304,-8.2304,-8.2304,-8.2304,-8.2304,-8.2304,-8.2304,-8.2304,-8.2304,-8.2304,-8.2304,-8.2304,-8.2304,-8.2304,-8.2304,-8.2304,-8.2304,-8.2304,-8.2304,-8.2304,-8.2304,-8.2304,-8.2304,-8.2304,-8.2304,-8.2304,-8.2304,-8.2304,0.0,-8.2304,0.0,0.0,-8.2304,-8.2304,-8.2304,-8.2304,0.0,0.0,-8.2304,-8.2265,-8.222,-8.1923,-8.1837,-8.1899,-8.1425,-8.1244,-8.1407,-8.2868,-8.3593,-8.3593,-8.5286,-8.6094,-8.6094,-8.6094,-8.6094,-8.6094,-8.6094,-8.6094,-8.6094,-8.6094,-8.6094,-8.6094,-8.6094,-8.6094,-8.6094,-8.6094,-8.6094,-8.6094,-7.7187,-7.705,-7.6883,-7.6883,-7.6738,-7.6683,-7.6864,-7.688,-7.699,-7.7187,-7.7187,-7.7187,-7.7187,-7.7187,-7.7187,-7.7187,-7.7187,-7.7187,-7.7187,-7.7187,-7.7187,0.0,0.0,-7.7187,-7.7187,-7.7187,-7.7187,-7.7187,0.0,-7.6758,-7.5937,-7.6797,-7.8086,-7.9726,-8.0625,-8.1484,-8.2304,-8.2304,-8.2304,-8.2304,-8.2304,-8.2304,-8.2304,-8.2304,-8.2304,-8.2304,-8.2304,-8.2304,-8.2304,-8.2304,-8.2304,-8.2304,-8.2304,-8.2304,-8.2304,-8.2304,-8.2304,-8.2304,-8.2304,-8.2304,-8.2304,-8.2304,-8.2304,-8.2304,-8.2304,-8.2304,-8.2304,-8.2304,-8.2304,-8.2304,-8.2304,-8.2304,-8.2304,-8.2304,-8.2304,-8.2304,0.0,-8.2304,0.0,-8.2304,-8.2304,-8.2304,-8.2304,-8.2304,0.0,0.0,-8.2304,-8.2219,-8.2,-8.1992,-8.1899,-8.1695,-8.1483,-8.1407,-8.1407,-8.2868,-8.3593,-8.3593,-8.5286,-8.6094,-8.6094,-8.6094,-8.6094,-8.6094,-8.6094,-8.6094,-8.6094,-8.6094,-8.6094,-8.6094,-8.6094,-8.6094,-8.6094,-8.6094,-8.6094,-8.6094,-7.7187,-7.7146,-7.7103,-7.7103,-7.6936,-7.6868,-7.7057,-7.6995,-7.699,-7.7187,-7.7187,-7.7187,-7.7187,-7.7187,-7.7187,0.0,-7.7187,-7.7187,-7.7187,-7.7187,-7.7187,-7.7187,-7.7187,-7.7187,-7.7187,-7.7187,-7.7187,-7.7187,-7.7187,-7.707,-7.6836,-7.8242,-7.918,-7.9765,-8.1211,-8.2031,-8.2304,-8.2304,-8.2304,-8.2304,-8.2304,-8.2304,-8.2304,-8.2304,-8.2304,-8.2304,-8.2304,-8.2304,-8.2304,-8.2304,-8.2304,-8.2304,-8.2304,-8.2304,-8.2304,-8.2304,-8.2304,-8.2304,-8.2304,-8.2304,-8.2304,-8.2304,-8.2304,-8.2304,-8.2304,-8.2304,-8.2304,-8.2304,-8.2304,-8.2304,-8.2304,-8.2304,-8.2304,-8.2304,-8.2304,-8.2304,-8.2304,0.0,-8.2304,0.0,-8.2304,-8.2304,-8.2304,-8.2304,-8.2304,-8.2304,-8.2304,-8.2219,-8.1996,-8.1873,-8.1785,-8.1688,-8.1359,-8.1258,-8.1407,-8.2868,-8.3593,-8.3593,-8.5286,-8.6094,-8.6094,-8.6094,-8.6094,-8.6094,-8.6094,-8.6094,-8.6094,-8.6094,-8.6094,-8.6094,-8.6094,-8.6094,-8.6094,-8.6094,-8.6094,-8.6094,-7.7187,-7.7187,-7.7187,-7.7187,-7.71,-7.7054,-7.7187,-7.71,-7.7054,-7.7187,-7.7187,-7.7187,-7.7187,-7.7187,-7.7187,-7.7187,-7.7187,-7.7187,-7.7187,-7.7187,-7.7187,-7.7187,-7.7187,-7.7187,-7.7187,-7.7187,-7.7187,-7.7187,-7.7187,-7.7383,-7.7734,-7.9062,-7.9883,-8.0234,-8.1679,-8.2304,-8.2304,-8.2304,-8.2304,-8.2304,-8.2304,-8.2304,-8.2304,-8.2304,-8.2304,-8.2304,-8.2304,-8.2304,-8.2304,-8.2304,-8.2304,-8.2304,-8.2304,-8.2304,-8.2304,-8.2304,-8.2304,-8.2304,-8.2304,-8.2304,-8.2304,-8.2304,-8.2304,-8.2304,-8.2304,-8.2304,-8.2304,-8.2304,-8.2304,-8.2304,-8.2304,-8.2304,-8.2304,-8.2304,-8.2304,-8.2304,-8.2304,0.0,-8.2304,0.0,0.0,-8.2304,-8.2304,-8.2304,-8.2304,-8.2304,0.0,-8.2219,-8.1996,-8.1825,-8.1645,-8.1491,-8.1228,-8.1176,-8.1298,-8.2847,-8.3593,-8.3593,-8.5286,-8.6094,-8.6094,-8.6094,-8.6094,-8.6094,-8.6094,-8.6094,-8.6094,-8.6094,-8.6094,-8.6094,-8.6094,-8.6094,-8.6094,-8.6094,-8.6094,-8.6094,-7.7187,-7.7187,-7.7187,-7.7187,-7.7187,-7.7187,-7.7187,-7.7187,-7.7187,-7.7187,-7.7187,-7.7187,-7.7187,-7.7187,-7.7187,-7.7187,-7.7187,-7.7187,-7.7187,-7.7187,-7.7187,-7.7187,-7.7187,-7.7187,-7.7187,-7.7187,-7.7187,-7.7187,-7.7187,-7.7656,-7.8515,-7.9336,-8.0156,-8.1054,-8.1914,-8.2304,-8.2304,-8.2304,-8.2304,-8.2304,-8.2304,-8.2304,-8.2304,-8.2304,-8.2304,-8.2304,-8.2304,-8.2304,-8.2304,-8.2304,-8.2304,-8.2304,-8.2304,-8.2304,-8.2304,-8.2304,-8.2304,-8.2304,-8.2304,-8.2304,-8.2304,-8.2304,-8.2304,-8.2304,-8.2304,-8.2304,-8.2304,-8.2304,-8.2304,-8.2304,-8.2304,-8.2304,-8.2304,-8.2304,-8.2304,-8.2304,-8.2304,-8.2304,-8.2304,-8.2304,-8.2304,-8.2304,-8.2304,-8.2304,-8.2304,-8.2304,0.0,-8.2218,-8.1988,-8.1819,-8.1514,-8.1116,-8.1108,-8.1093,-8.1093,-8.2747,-8.367,-8.3785,-8.5363,-8.6094,-8.6094,-8.6094,-8.6094,-8.6094,-8.6094,-8.6094,-8.6094,-8.6094,-8.6094,-8.6094,-8.6094,-8.6094,-8.6094,-8.6094,-8.6094,-8.6094,-7.7187,-7.7187,-7.7187,-7.7187,-7.7187,-7.7187,-7.7187,-7.7187,-7.7187,-7.7187,-7.7187,-7.7187,-7.7187,-7.7187,-7.7187,-7.7187,-7.7187,-7.7187,-7.7187,-7.7187,-7.7187,-7.7187,-7.7187,-7.7187,-7.7187,-7.7187,-7.7187,-7.7187,-7.7187,-7.7656,-7.8515,-7.9336,-8.0156,-8.1054,-8.1914,-8.2304,-8.2304,-8.2304,-8.2304,-8.2304,-8.2304,-8.2304,-8.2304,-8.2304,-8.2304,-8.2304,-8.2304,-8.2304,-8.2304,-8.2304,-8.2304,-8.2304,-8.2304,-8.2304,-8.2304,-8.2304,-8.2304,-8.2304,-8.2304,-8.2304,-8.2304,-8.2304,-8.2304,-8.2304,-8.2304,-8.2304,-8.2304,-8.2304,-8.2304,-8.2304,-8.2304,-8.2304,-8.2304,-8.2304,-8.2304,-8.2304,-8.2304,-8.2304,-8.2304,-8.2304,-8.2304,-8.2304,-8.2304,-8.2304,-8.2304,-8.2304,-8.2304,-8.2168,-8.1805,-8.1749,-8.1591,-8.1349,-8.1181,-8.1093,-8.1093,-8.2747,-8.4247,-8.5517,-8.5901,-8.6094,-8.6094,-8.6094,-8.6094,-8.6094,-8.6094,-8.6094,-8.6094,-8.6094,-8.6094,-8.6094,-8.6094,-8.6094,-8.6094,-8.6094,-8.6094,-8.6094,-7.7187,-7.7187,-7.7187,-7.7187,-7.7187,-7.7187,-7.7187,-7.7187,-7.7187,-7.7187,-7.7187,-7.7187,-7.7187,-7.7187,-7.7187,-7.7187,-7.7187,-7.7187,-7.7187,-7.7187,-7.7187,-7.7187,-7.7187,-7.7187,-7.7187,-7.7187,-7.7187,-7.7187,-7.7187,-7.7812,-7.9062,-7.9492,-8.039,-8.1601,-8.2109,-8.2304,-8.2304,-8.2304,-8.2304,-8.2304,-8.2304,-8.2304,-8.2304,-8.2304,-8.2304,-8.2304,-8.2304,-8.2304,-8.2304,-8.2304,-8.2304,-8.2304,-8.2304,-8.2304,-8.2304,-8.2304,-8.2304,-8.2304,-8.2304,-8.2304,-8.2304,-8.2304,-8.2304,-8.2304,-8.2304,-8.2304,-8.2304,-8.2304,-8.2304,-8.2304,-8.2304,-8.2304,-8.2304,-8.2304,-8.2304,-8.2304,-8.2304,-8.2304,-8.2304,-8.2304,-8.2304,-8.2304,-8.2304,-8.2304,-8.2304,-8.2304,-8.2304,-8.2171,-8.1861,-8.1732,-8.1563,-8.1271,-8.1176,-8.1093,-8.1093,-8.2747,-8.4439,-8.6094,-8.6094,-8.6094,-8.6094,-8.6094,-8.6094,-8.6094,-8.6094,-8.6094,-8.6094,-8.6094,-8.6094,-8.6094,-8.6094,-8.6094,-8.6094,-8.6094,-8.6094,-8.6094,-7.7187,-7.7187,-7.7187,-7.7187,-7.7187,-7.7187,-7.7187,-7.7187,-7.7187,-7.7187,-7.7187,-7.7187,-7.7187,-7.7187,-7.7187,-7.7187,-7.7187,-7.7187,-7.7187,-7.7187,-7.7187,-7.7187,-7.7187,-7.7187,-7.7187,-7.7187,-7.7187,-7.7187,-7.7187,-7.8047,-7.9687,-7.9687,-8.0625,-8.2304,-8.2304,-8.2304,-8.2304,-8.2304,-8.2304,-8.2304,-8.2304,-8.2304,-8.2304,-8.2304,-8.2304,-8.2304,-8.2304,-8.2304,-8.2304,-8.2304,-8.2304,-8.2304,-8.2304,-8.2304,-8.2304,-8.2304,-8.2304,-8.2304,-8.2304,-8.2304,-8.2304,-8.2304,-8.2304,-8.2304,-8.2304,-8.2304,-8.2304,-8.2304,-8.2304,-8.2304,-8.2304,-8.2304,-8.2304,-8.2304,-8.2304,-8.2304,-8.2304,-8.2304,-8.2304,-8.2304,-8.2304,-8.2304,-8.2304,-8.2304,-8.2304,-8.2304,-8.2304,-8.2218,-8.1976,-8.1773,-8.1504,-8.1124,-8.1093,-8.1208,-8.1477,-8.2901,-8.4439,-8.6094,-8.6094,-8.6094,-8.6094,-8.6094,-8.6094,-8.6094,-8.6094,-8.6094,-8.6094,-8.6094,-8.6094,-8.6094,-8.6094,-8.6094,-8.6094,-8.6094,-8.6094,-8.6094,-7.7187,-7.7187,-7.7187,-7.7187,-7.7187,-7.7187,-7.7187,-7.7187,-7.7187,-7.7187,-7.7187,-7.7187,-7.7187,-7.7187,-7.7187,-7.7187,-7.7187,-7.7187,-7.7187,-7.7187,-7.7187,-7.7187,-7.7187,-7.7187,-7.7187,-7.7187,-7.7187,-7.7187,-7.7187,-7.8047,-7.9687,-7.9687,-8.0625,-8.2304,-8.2304,-8.2304,-8.2304,-8.2304,-8.2304,-8.2304,-8.2304,-8.2304,-8.2304,-8.2304,-8.2304,-8.2304,-8.2304,-8.2304,-8.2304,-8.2304,-8.2304,-8.2304,-8.2304,-8.2304,-8.2304,-8.2304,-8.2304,-8.2304,-8.2304,-8.2304,-8.2304,-8.2304,-8.2304,-8.2304,-8.2304,-8.2304,-8.2304,-8.2304,-8.2304,-8.2304,-8.2304,-8.2304,-8.2304,-8.2304,-8.2304,-8.2304,-8.2304,-8.2304,-8.2304,-8.2304,-8.2304,-8.2304,-8.2304,-8.2304,-8.2304,-8.2304,-8.2304,-8.2127,-8.1785,-8.1703,-8.1504,-8.1124,-8.1093,-8.1785,-8.3208,-8.3478,-8.4439,-8.6094,-8.6094,-8.6094,-8.6094,-8.6094,-8.6094,-8.6094,-8.6094,-8.6094,-8.6094,-8.6094,-8.6094,-8.6094,-8.6094,-8.6094,-8.6094,-8.6094,-8.6094,-8.6094,-7.7187,-7.7187,-7.7187,-7.7187,-7.7187,-7.7187,-7.7187,-7.7187,-7.7187,-7.7187,-7.7187,-7.7187,-7.7187,-7.7187,-7.7187,-7.7187,-7.7187,-7.7187,-7.7187,-7.7187,-7.7187,-7.7187,-7.7187,-7.7187,-7.7187,-7.7187,-7.7187,-7.7187,-7.7187,-7.8047,-7.9687,-7.9687,-8.0625,-8.2304,-8.2304,-8.2304,-8.2304,-8.2304,-8.2304,-8.2304,-8.2304,-8.2304,-8.2304,-8.2304,-8.2304,-8.2304,-8.2304,-8.2304,-8.2304,-8.2304,-8.2304,-8.2304,-8.2304,-8.2304,-8.2304,-8.2304,-8.2304,-8.2304,-8.2304,-8.2304,-8.2304,-8.2304,-8.2304,-8.2304,-8.2304,-8.2304,-8.2304,-8.2304,-8.2304,-8.2304,-8.2304,-8.2304,-8.2304,-8.2304,-8.2304,-8.2304,-8.2304,-8.2304,-8.2304,-8.2304,-8.2304,-8.2304,-8.2304,-8.2304,-8.2304,-8.2304,-8.2304,-8.2122,-8.1703,-8.1688,-8.1504,-8.1124,-8.1093,-8.19,-8.3555,-8.3593,-8.4439,-8.6094,-8.6094,-8.6094,-8.6094,-8.6094,-8.6094,-8.6094,-8.6094,-8.6094,-8.6094,-8.6094,-8.6094,-8.6094,-8.6094,-8.6094,-8.6094,-8.6094,-8.6094,-8.6094,-7.7187,-7.7187,-7.7187,-7.7187,-7.7187,-7.7187,-7.7187,-7.7187,-7.7187,-7.7187,-7.7187,-7.7187,-7.7187,-7.7187,-7.7187,-7.7187,-7.7187,-7.7187,-7.7187,-7.7187,-7.7187,-7.7187,-7.7187,-7.7187,-7.7187,-7.7187,-7.7187,-7.7187,-7.7187,-7.8047,-7.9687,-7.9687,-8.0625,-8.2304,-8.2304,-8.2304,-8.2304,-8.2304,-8.2304,-8.2304,-8.2304,-8.2304,-8.2304,-8.2304,-8.2304,-8.2304,-8.2304,-8.2304,-8.2304,-8.2304,-8.2304,-8.2304,-8.2304,-8.2304,-8.2304,-8.2304,-8.2304,-8.2304,-8.2304,-8.2304,-8.2304,-8.2304,-8.2304,-8.2304,-8.2304,-8.2304,-8.2304,-8.2304,-8.2304,-8.2304,-8.2304,-8.2304,-8.2304,-8.2304,-8.2304,-8.2304,-8.2304,-8.2304,-8.2304,-8.2304,-8.2304,-8.2304,-8.2304,-8.2304,-8.2304,-8.2304,-8.2304,-8.2122,-8.1703,-8.1688,-8.1504,-8.1124,-8.1093,-8.19,-8.3555,-8.3593,-8.4439,-8.6094,-8.6094,-8.6094,-8.6094,-8.6094,-8.6094,-8.6094,-8.6094,-8.6094,-8.6094,-8.6094,-8.6094,-8.6094,-8.6094,-8.6094,-8.6094,-8.6094,-8.6094,-8.6094,-7.7187,-7.7187,-7.7187,-7.7187,-7.7187,-7.7187,-7.7187,-7.7187,-7.7187,-7.7187,-7.7187,-7.7187,-7.7187,-7.7187,-7.7187,-7.7187,-7.7187,-7.7187,-7.7187,-7.7187,-7.7187,-7.7187,-7.7187,-7.7187,-7.7187,-7.7187,-7.7187,-7.7187,-7.7187,-7.8047,-7.9687,-7.9687,-8.0625,-8.2304,-8.2304,-8.2304,-8.2304,-8.2304,-8.2304,-8.2304,-8.2304,-8.2304,-8.2304,-8.2304,-8.2304,-8.2304,-8.2304,-8.2304,-8.2304,-8.2304,-8.2304,-8.2304,-8.2304,-8.2304,-8.2304,-8.2304,-8.2304,-8.2304,-8.2304,-8.2304,-8.2304,-8.2304,-8.2304,-8.2304,-8.2304,-8.2304,-8.2304,-8.2304,-8.2304,-8.2304,-8.2304,-8.2304,-8.2304,-8.2304,-8.2304,-8.2304,-8.2304,-8.2304,-8.2304,-8.2304,-8.2304,-8.2304,-8.2304,-8.2304,-8.2304,-8.2304,-8.2304,-8.2122,-8.1703,-8.1688,-8.1504,-8.1124,-8.1093,-8.19,-8.3555,-8.3593,-8.4439,-8.6094,-8.6094,-8.6094,-8.6094,-8.6094,-8.6094,-8.6094,-8.6094,-8.6094,-8.6094,-8.6094,-8.6094,-8.6094,-8.6094,-8.6094,-8.6094,-8.6094,-8.6094,-8.6094,-7.7187,-7.7187,-7.7187,-7.7187,-7.7187,-7.7187,-7.7187,-7.7187,-7.7187,-7.7187,-7.7187,-7.7187,-7.7187,-7.7187,-7.7187,-7.7187,-7.7187,-7.7187,-7.7187,-7.7187,-7.7187,-7.7187,-7.7187,-7.7187,-7.7187,-7.7187,-7.7187,-7.7187,-7.7187,-7.8047,-7.9687,-7.9687,-8.0625,-8.2304,-8.2304,-8.2304,-8.2304,-8.2304,-8.2304,-8.2304,-8.2304,-8.2304,-8.2304,-8.2304,-8.2304,-8.2304,-8.2304,-8.2304,-8.2304,-8.2304,-8.2304,-8.2304,-8.2304,-8.2304,-8.2304,-8.2304,-8.2304,-8.2304,-8.2304,-8.2304,-8.2304,-8.2304,-8.2304,-8.2304,-8.2304,-8.2304,-8.2304,-8.2304,-8.2304,-8.2304,-8.2304,-8.2304,-8.2304,-8.2304,-8.2304,-8.2304,-8.2304,-8.2304,-8.2304,-8.2304,-8.2304,-8.2304,-8.2304,-8.2304,-8.2304,-8.2304,-8.2304,-8.2122,-8.1703,-8.1469,-8.1244,-8.1108,-8.1093,-8.1631,-8.2785,-8.3324,-8.417,-8.5363,-8.5863,-8.6094,-8.6094,-8.6094,-8.6094,-8.6094,-8.6094,-8.6094,-8.6094,-8.6094,-8.6094,-8.6094,-8.6094,-8.6094,-8.6094,-8.6094,-8.6094,-8.6094,-7.7187,-7.7187,-7.7187,-7.7187,-7.7187,-7.7187,-7.7187,-7.7187,-7.7187,-7.7187,-7.7187,-7.7187,-7.7187,-7.7187,-7.7187,-7.7187,-7.7187,-7.7187,-7.7187,-7.7187,-7.7187,-7.7187,-7.7187,-7.7187,-7.7187,-7.7187,-7.7187,-7.7187,-7.7187,-7.793,-7.9336,-7.957,-8.0469,-8.1914,-8.2187,-8.2304,-8.2304,-8.2304,-8.2304,-8.2304,-8.2304,-8.2304,-8.2304,-8.2304,-8.2304,-8.2304,-8.2304,-8.2304,-8.2304,-8.2304,-8.2304,-8.2304,-8.2304,-8.2304,-8.2304,-8.2304,-8.2304,-8.2304,-8.2304,-8.2304,-8.2304,-8.2304,-8.2304,-8.2304,-8.2304,-8.2304,-8.2304,-8.2304,-8.2304,-8.2304,-8.2304,-8.2304,-8.2304,-8.2304,-8.2304,-8.2304,-8.2304,-8.2304,-8.2304,-8.2304,-8.2304,-8.2304,-8.2304,-8.2304,-8.2304,-8.2304,-8.2304,-8.2122,-8.1703,-8.1311,-8.1093,-8.1093,-8.1093,-8.1362,-8.19,-8.3016,-8.4055,-8.4901,-8.5709,-8.6094,-8.6094,-8.6094,-8.6094,-8.6094,-8.6094,-8.6094,-8.6094,-8.6094,-8.6094,-8.6094,-8.6094,-8.6094,-8.6094,-8.6094,-8.6094,-8.6094,-7.7187,-7.7187,-7.7187,-7.7187,-7.7187,-7.7187,-7.7187,-7.7187,-7.7187,-7.7187,-7.7187,-7.7187,-7.7187,-7.7187,-7.7187,-7.7187,-7.7187,-7.7187,-7.7187,-7.7187,-7.7187,-7.7187,-7.7187,-7.7187,-7.7187,-7.7187,-7.7187,-7.7187,-7.7187,-7.7656,-7.8515,-7.9336,-8.0156,-8.1054,-8.1914,-8.2304,-8.2304,-8.2304,-8.2304,-8.2304,-8.2304,-8.2304,-8.2304,-8.2304,-8.2304,-8.2304,-8.2304,-8.2304,-8.2304,-8.2304,-8.2304,-8.2304,-8.2304,-8.2304,-8.2304,-8.2304,-8.2304,-8.2304,-8.2304,-8.2304,-8.2304,-8.2304,-8.2304,-8.2304,-8.2304,-8.2304,-8.2304,-8.2304,-8.2304,-8.2304,-8.2304,-8.2304,-8.2304,-8.2304,-8.2304,-8.2304,-8.2304,-8.2304,-8.2304,-8.2304,-8.2304,-8.2304,-8.2304,-8.2304,-8.2304,-8.2304,-8.2304,-8.212,-8.1703,-8.1311,-8.1093,-8.1093,-8.1093,-8.1093,-8.1093,-8.2747,-8.4016,-8.4901,-8.5709,-8.6094,-8.6094,-8.6094,-8.6094,-8.6094,-8.6094,-8.6094,-8.6094,-8.6094,-8.6094,-8.6094,-8.6094,-8.6094,-8.6094,-8.6094,-8.6094,-8.6094,-7.7187,-7.7187,-7.7187,-7.7187,-7.7187,-7.7187,-7.7187,-7.7187,-7.7187,-7.7187,-7.7187,-7.7187,-7.7187,-7.7187,-7.7187,-7.7187,-7.7187,-7.7187,-7.7187,-7.7187,-7.7187,-7.7187,-7.7187,-7.7187,-7.7187,-7.7187,-7.7187,-7.7187,-7.7187,-7.7656,-7.8515,-7.9336,-8.0156,-8.1054,-8.1914,-8.2304,-8.2304,-8.2304,-8.2304,-8.2304,-8.2304,-8.2304,-8.2304,-8.2304,-8.2304,-8.2304,-8.2304,-8.2304,-8.2304,-8.2304,-8.2304,-8.2304,-8.2304,-8.2304,-8.2304,-8.2304,-8.2304,-8.2304,-8.2304,-8.2304,-8.2304,-8.2304,-8.2304,-8.2304,-8.2304,-8.2304,-8.2304,-8.2304,-8.2304,-8.2304,-8.2304,-8.2304,-8.2304,-8.2304,-8.2304,-8.2304,-8.2304,-8.2304,-8.2304,-8.2304,-8.2304,-8.2304,-8.2304,-8.2304,-8.2304,-8.2304,-8.2049,-8.1837,-8.1688,-8.1311,-8.1093,-8.1093,-8.1093,-8.1093,-8.1093,-8.2747,-8.3708,-8.3978,-8.544,-8.6094,-8.6094,-8.6094,-8.6094,-8.6094,-8.6094,-8.6094,-8.6094,-8.6094,-8.6094,-8.6094,-8.6094,-8.6094,-8.6094,-8.6094,-8.6094,-8.6094,-7.7187,-7.7187,-7.7187,-7.7187,-7.7187,-7.7187,-7.7187,-7.7187,-7.7187,-7.7187,-7.7187,-7.7187,-7.7187,-7.7187,-7.7187,-7.7187,-7.7187,-7.7187,-7.7187,-7.7187,-7.7187,-7.7187,-7.7187,-7.7187,-7.7187,-7.7187,-7.7187,-7.7187,-7.7187,-7.7461,-7.8008,-7.914,-7.9961,-8.0547,-8.1758,-8.2304,-8.2304,-8.2304,-8.2304,-8.2304,-8.2304,-8.2304,-8.2304,-8.2304,-8.2304,-8.2304,-8.2304,-8.2304,-8.2304,-8.2304,-8.2304,-8.2304,-8.2304,-8.2304,-8.2304,-8.2304,-8.2304,-8.2304,-8.2304,-8.2304,-8.2304,-8.2304,-8.2304,-8.2304,-8.2304,-8.2304,-8.2304,-8.2304,-8.2304,-8.2304,-8.2304,-8.2304,-8.2304,-8.2304,-8.2304,-8.2304,-8.2304,-8.2304,-8.2304,-8.2304,-8.2304,-8.2304,-8.2304,-8.2304,-8.2304,-8.2304,-8.1914,-8.1688,-8.1688,-8.1311,-8.1093,-8.1093,-8.1093,-8.1093,-8.1093,-8.2401,-8.3247,-8.3593,-8.4978,-8.5786,-8.6094,-8.6094,-8.6094,-8.6094,-8.6094,-8.6094,-8.6094,-8.6094,-8.6094,-8.6094,-8.6094,-8.6094,-8.6094,-8.6094,-8.6094,-8.6094,-7.7187,-7.7187,-7.7187,-7.7187,-7.7187,-7.7187,-7.7187,-7.7187,-7.7187,-7.7187,-7.7187,-7.7187,-7.7187,-7.7187,-7.7187,-7.7187,-7.7187,-7.7187,-7.7187,-7.7187,-7.7187,-7.7187,-7.7187,-7.7187,-7.7187,-7.7187,-7.7187,-7.7187,-7.7187,-7.7187,-7.7226,-7.8906,-7.9687,-7.9765,-8.1523,-8.2304,-8.2304,-8.2304,-8.2304,-8.2304,-8.2304,-8.2304,-8.2304,-8.2304,-8.2304,-8.2304,-8.2304,-8.2304,-8.2304,-8.2304,-8.2304,-8.2304,-8.2304,-8.2304,-8.2304,-8.2304,-8.2304,-8.2304,-8.2304,-8.2304,-8.2304,-8.2304,-8.2304,-8.2304,-8.2304,-8.2304,-8.2304,-8.2304,-8.2304,-8.2304,-8.2304,-8.2304,-8.2304,-8.2304,-8.2304,-8.2304,-8.2304,-8.2304,-8.2304,-8.2304,-8.2304,-8.2304,-8.2304,-8.2304,-8.2304,-8.2304,-8.1914,-8.1688,-8.1688,-8.1311,-8.1093,-8.1093,-8.1093,-8.1093,-8.1093,-8.1823,-8.267,-8.3593,-8.4478,-8.5324,-8.6094,-8.6094,-8.6094,-8.6094,-8.6094,-8.6094,-8.6094,-8.6094,-8.6094,-8.6094,-8.6094,-8.6094,-8.6094,-8.6094,-8.6094,-8.6094,-7.7187,-7.7187,-7.7187,-7.7187,-7.7187,-7.7187,-7.7187,-7.7187,-7.7187,-7.7187,-7.7187,-7.7187,-7.7187,-7.7187,-7.7187,-7.7187,-7.7187,-7.7187,-7.7187,-7.7187,-7.7187,-7.7187,-7.7187,-7.7187,-7.7187,-7.7187,-7.7187,-7.7187,-7.7187,-7.7187,-7.7226,-7.8906,-7.9687,-7.9765,-8.1523,-8.2304,-8.2304,-8.2304,-8.2304,-8.2304,-8.2304,-8.2304,-8.2304,-8.2304,-8.2304,-8.2304,-8.2304,-8.2304,-8.2304,-8.2304,-8.2304,-8.2304,-8.2304,-8.2304,-8.2304,-8.2304,-8.2304,-8.2304,-8.2304,-8.2304,-8.2304,-8.2304,-8.2304,-8.2304,-8.2304,-8.2304,-8.2304,-8.2304,-8.2304,-8.2304,-8.2304,-8.2304,-8.2304,-8.2304,-8.2304,-8.2304,-8.2304,-8.2304,-8.2304,-8.2304,-8.2304,-8.2304,-8.2304,-8.2304,-8.2304,-8.2304,-8.1914,-8.1688,-8.1688,-8.1311,-8.1093,-8.1093,-8.1093,-8.1093,-8.1093,-8.1285,-8.2093,-8.3593,-8.4478,-8.5324,-8.6094,-8.6094,-8.6094,-8.6094,-8.6094,-8.6094,-8.6094,-8.6094,-8.6094,-8.6094,-8.6094,-8.6094,-8.6094,-8.6094,-8.6094,-8.6094,-7.7187,-7.7187,-7.7187,-7.7187,-7.7187,-7.7187,-7.7187,-7.7187,-7.7187,-7.7187,-7.7187,-7.7187,-7.7187,-7.7187,-7.7187,-7.7187,-7.7187,-7.7187,-7.7187,-7.7187,-7.7187,-7.7187,-7.7187,-7.7187,-7.7187,-7.7187,-7.7187,-7.7187,-7.7187,-7.7187,-7.7226,-7.8906,-7.9687,-7.9765,-8.1523,-8.2304,-8.2304,-8.2304,-8.2304,-8.2304,-8.2304,-8.2304,-8.2304,-8.2304,-8.2304,-8.2304,-8.2304,-8.2304,-8.2304,-8.2304,-8.2304,-8.2304,-8.2304,-8.2304,-8.2304,-8.2304,-8.2304,-8.2304,-8.2304,-8.2304,-8.2304,-8.2304,-8.2304,-8.2304,-8.2304,-8.2304,-8.2304,-8.2304,-8.2304,-8.2304,-8.2304,-8.2304,-8.2304,-8.2304,-8.2304,-8.2304,-8.2304,-8.2304,-8.2304,-8.2304,-8.2304,-8.2304,-8.2304,-8.2304,-8.2304,-8.2304,-8.1914,-8.1688,-8.1688,-8.1311,-8.1093,-8.1093,-8.1093,-8.1093,-8.1093,-8.1093,-8.1747,-8.2978,-8.3862,-8.4709,-8.5555,-8.594,-8.6094,-8.6094,-8.6094,-8.6094,-8.6094,-8.6094,-8.6094,-8.6094,-8.6094,-8.6094,-8.6094,-8.6094,-8.6094,-8.6094,-7.7187,-7.7187,-7.7187,-7.7187,-7.7187,-7.7187,-7.7187,-7.7187,-7.7187,-7.7187,-7.7187,-7.7187,-7.7187,-7.7187,-7.7187,-7.7187,-7.7187,-7.7187,-7.7187,-7.7187,-7.7187,-7.7187,-7.7187,-7.7187,-7.7187,-7.7187,-7.7187,-7.7187,-7.7187,-7.7187,-7.7226,-7.8789,-7.957,-7.9765,-8.1367,-8.2148,-8.2304,-8.2304,-8.2304,-8.2304,-8.2304,-8.2304,-8.2304,-8.2304,-8.2304,-8.2304,-8.2304,-8.2304,-8.2304,-8.2304,-8.2304,-8.2304,-8.2304,-8.2304,-8.2304,-8.2304,-8.2304,-8.2304,-8.2304,-8.2304,-8.2304,-8.2304,-8.2304,-8.2304,-8.2304,-8.2304,-8.2304,-8.2304,-8.2304,-8.2304,-8.2304,-8.2304,-8.2304,-8.2304,-8.2304,-8.2304,-8.2304,-8.2304,-8.2304,-8.2304,-8.2304,-8.2304,-8.2304,-8.2304,-8.2304,-8.2304,-8.1914,-8.1688,-8.1688,-8.1311,-8.1093,-8.1093,-8.1093,-8.1093,-8.1093,-8.1093,-8.1439,-8.2093,-8.2978,-8.3901,-8.4939,-8.5747,-8.6094,-8.6094,-8.6094,-8.6094,-8.6094,-8.6094,-8.6094,-8.6094,-8.6094,-8.6094,-8.6094,-8.6094,-8.6094,-8.6094,-7.7187,-7.7187,-7.7187,-7.7187,-7.7187,-7.7187,-7.7187,-7.7187,-7.7187,-7.7187,-7.7187,-7.7187,-7.7187,-7.7187,-7.7187,-7.7187,-7.7187,-7.7187,-7.7187,-7.7187,-7.7187,-7.7187,-7.7187,-7.7187,-7.7187,-7.7187,-7.7187,-7.7187,-7.7187,-7.7187,-7.7226,-7.8203,-7.9023,-7.9726,-8.0742,-8.1601,-8.2304,-8.2304,-8.2304,-8.2304,-8.2304,-8.2304,-8.2304,-8.2304,-8.2304,-8.2304,-8.2304,-8.2304,-8.2304,-8.2304,-8.2304,-8.2304,-8.2304,-8.2304,-8.2304,-8.2304,-8.2304,-8.2304,-8.2304,-8.2304,-8.2304,-8.2304,-8.2304,-8.2304,-8.2304,-8.2304,-8.2304,-8.2304,-8.2304,-8.2304,-8.2304,-8.2304,-8.2304,-8.2304,-8.2304,-8.2304,-8.2304,-8.2304,-8.2304,-8.2304,-8.2304,-8.2304,-8.2304,-8.2304,-8.2304,-8.2304,-8.1914,-8.1688,-8.1688,-8.1311,-8.1093,-8.1093,-8.1093,-8.1093,-8.1093,-8.1093,-8.1131,-8.1285,-8.2093,-8.3324,-8.4939,-8.5747,-8.6094,-8.6094,-8.6094,-8.6094,-8.6094,-8.6094,-8.6094,-8.6094,-8.6094,-8.6094,-8.6094,-8.6094,-8.6094,-8.6094,-7.7187,-7.7187,-7.7187,-7.7187,-7.7187,-7.7187,-7.7187,-7.7187,-7.7187,-7.7187,-7.7187,-7.7187,-7.7187,-7.7187,-7.7187,-7.7187,-7.7187,-7.7187,-7.7187,-7.7187,-7.7187,-7.7187,-7.7187,-7.7187,-7.7187,-7.7187,-7.7187,-7.7187,-7.7187,-7.7187,-7.7226,-7.8086,-7.8945,-7.9726,-8.0625,-8.1484,-8.2304,-8.2304,-8.2304,-8.2304,-8.2304,-8.2304,-8.2304,-8.2304,-8.2304,-8.2304,-8.2304,-8.2304,-8.2304,-8.2304,-8.2304,-8.2304,-8.2304,-8.2304,-8.2304,-8.2304,-8.2304,-8.2304,-8.2304,-8.2304,-8.2304,-8.2304,-8.2304,-8.2304,-8.2304,-8.2304,-8.2304,-8.2304,-8.2304,-8.2304,-8.2304,-8.2304,-8.2304,-8.2304,-8.2304,-8.2304,-8.2304,-8.2304,-8.2304,-8.2304,-8.2304,-8.2304,-8.2304,-8.2304,-8.2304,-8.2304,-8.1914,-8.1688,-8.1688,-8.1311,-8.1093,-8.1093,-8.1093,-8.1093,-8.1093,-8.1093,-8.1093,-8.1093,-8.19,-8.2978,-8.4209,-8.5055,-8.567,-8.6094,-8.6094,-8.6094,-8.6094,-8.6094,-8.6094,-8.6094,-8.6094,-8.6094,-8.6094,-8.6094,-8.6094,-8.6094]},{"header":{"parameterUnit":"m.s-1","parameterCategory":1,"la1":30.6,"la2":28.766,"lo1":-90.7593,"lo2":-88.6598,"dy":0.0162,"dx":0.0183,"nx":116,"ny":114,"refTime":"2023-04-20T12:00:00:Z","depth":0,"parameterNumber":3,"parameterNumberName":"V-component_of_WINDS"},"data":[0.0,0.0,0.0,0.0,0.0,0.0,0.0,0.0,0.0,0.0,0.0,0.0,0.0,0.0,0.0,0.0,0.0,0.0,0.0,0.0,0.0,0.0,0.0,0.0,0.0,0.0,0.0,0.0,0.0,0.0,0.0,0.0,0.0,0.0,0.0,0.0,0.0,0.0,0.0,0.0,0.0,0.0,0.0,0.0,0.0,0.0,0.0,0.0,0.0,0.0,0.0,0.0,0.0,0.0,0.0,0.0,0.0,0.0,0.0,0.0,0.0,0.0,0.0,0.0,0.0,0.0,0.0,0.0,0.0,0.0,0.0,0.0,0.0,0.0,0.0,0.0,0.0,0.0,0.0,0.0,0.0,0.0,0.0,0.0,0.0,0.0,0.0,0.0,0.0,0.0,0.0,0.0,0.0,0.0,0.0,0.0,0.0,0.0,0.0,0.0,0.0,0.0,0.0,0.0,0.0,0.0,0.0,0.0,0.0,0.0,0.0,0.0,0.0,0.0,0.0,0.0,0.0,0.0,0.0,0.0,0.0,0.0,0.0,0.0,0.0,0.0,0.0,0.0,0.0,0.0,0.0,0.0,0.0,0.0,0.0,0.0,0.0,0.0,0.0,0.0,0.0,0.0,0.0,0.0,0.0,0.0,0.0,0.0,0.0,0.0,0.0,0.0,0.0,0.0,0.0,0.0,0.0,0.0,0.0,0.0,0.0,0.0,0.0,0.0,0.0,0.0,0.0,0.0,0.0,0.0,0.0,0.0,0.0,0.0,0.0,0.0,0.0,0.0,0.0,0.0,0.0,0.0,0.0,0.0,0.0,0.0,0.0,0.0,0.0,0.0,0.0,0.0,0.0,0.0,0.0,0.0,0.0,0.0,0.0,0.0,0.0,0.0,0.0,0.0,0.0,0.0,0.0,0.0,0.0,0.0,0.0,0.0,0.0,0.0,0.0,0.0,0.0,0.0,0.0,0.0,0.0,0.0,0.0,0.0,0.0,0.0,0.0,0.0,0.0,0.0,0.0,0.0,0.0,0.0,0.0,0.0,0.0,0.0,0.0,0.0,0.0,0.0,0.0,0.0,0.0,0.0,0.0,0.0,0.0,0.0,0.0,0.0,0.0,0.0,0.0,0.0,0.0,0.0,0.0,0.0,0.0,0.0,0.0,0.0,0.0,0.0,0.0,0.0,0.0,0.0,0.0,0.0,0.0,0.0,0.0,0.0,0.0,0.0,0.0,0.0,0.0,0.0,0.0,0.0,0.0,0.0,0.0,0.0,0.0,0.0,0.0,0.0,0.0,0.0,0.0,0.0,0.0,0.0,0.0,0.0,0.0,0.0,0.0,0.0,0.0,0.0,0.0,0.0,0.0,0.0,0.0,0.0,0.0,0.0,0.0,0.0,0.0,0.0,0.0,0.0,0.0,0.0,0.0,0.0,0.0,0.0,0.0,0.0,0.0,0.0,0.0,0.0,0.0,0.0,0.0,0.0,0.0,0.0,0.0,0.0,0.0,0.0,0.0,0.0,0.0,0.0,0.0,0.0,0.0,0.0,0.0,0.0,0.0,0.0,0.0,0.0,0.0,0.0,0.0,0.0,0.0,0.0,0.0,0.0,0.0,0.0,0.0,0.0,0.0,0.0,0.0,0.0,0.0,0.0,0.0,0.0,0.0,0.0,0.0,0.0,0.0,0.0,0.0,0.0,0.0,0.0,0.0,0.0,0.0,0.0,0.0,0.0,0.0,0.0,0.0,0.0,0.0,0.0,0.0,0.0,0.0,0.0,0.0,0.0,0.0,0.0,0.0,0.0,0.0,0.0,0.0,0.0,0.0,0.0,0.0,0.0,0.0,0.0,0.0,0.0,0.0,0.0,0.0,0.0,0.0,0.0,0.0,0.0,0.0,0.0,0.0,0.0,0.0,0.0,0.0,0.0,0.0,0.0,0.0,0.0,0.0,0.0,0.0,0.0,0.0,0.0,0.0,0.0,0.0,0.0,0.0,0.0,0.0,0.0,0.0,0.0,0.0,0.0,0.0,0.0,0.0,0.0,0.0,0.0,0.0,0.0,0.0,0.0,0.0,0.0,0.0,0.0,0.0,0.0,0.0,0.0,0.0,0.0,0.0,0.0,0.0,0.0,0.0,0.0,0.0,0.0,0.0,0.0,0.0,0.0,0.0,0.0,0.0,0.0,0.0,0.0,0.0,0.0,0.0,0.0,0.0,0.0,0.0,0.0,0.0,0.0,0.0,0.0,0.0,0.0,0.0,0.0,0.0,0.0,0.0,0.0,0.0,0.0,0.0,0.0,0.0,0.0,0.0,0.0,0.0,0.0,0.0,0.0,0.0,0.0,0.0,0.0,0.0,0.0,0.0,0.0,0.0,0.0,0.0,0.0,0.0,0.0,0.0,0.0,0.0,0.0,0.0,0.0,0.0,0.0,0.0,0.0,0.0,0.0,0.0,0.0,0.0,0.0,0.0,0.0,0.0,0.0,0.0,0.0,0.0,0.0,0.0,0.0,0.0,0.0,0.0,0.0,0.0,0.0,0.0,0.0,0.0,0.0,0.0,0.0,0.0,0.0,0.0,0.0,0.0,0.0,0.0,0.0,0.0,0.0,0.0,0.0,0.0,0.0,0.0,0.0,0.0,0.0,0.0,0.0,0.0,0.0,0.0,0.0,0.0,0.0,0.0,0.0,0.0,0.0,0.0,0.0,0.0,0.0,0.0,0.0,0.0,0.0,0.0,0.0,0.0,0.0,0.0,0.0,0.0,0.0,0.0,0.0,0.0,0.0,0.0,0.0,0.0,0.0,0.0,0.0,0.0,0.0,0.0,0.0,0.0,0.0,0.0,0.0,0.0,0.0,0.0,0.0,0.0,0.0,0.0,0.0,0.0,0.0,0.0,0.0,0.0,0.0,0.0,0.0,0.0,0.0,0.0,0.0,0.0,0.0,0.0,0.0,0.0,0.0,0.0,0.0,0.0,0.0,0.0,0.0,0.0,0.0,0.0,0.0,0.0,0.0,0.0,0.0,0.0,0.0,0.0,0.0,0.0,0.0,0.0,0.0,0.0,0.0,0.0,0.0,0.0,0.0,0.0,0.0,0.0,0.0,0.0,0.0,0.0,0.0,0.0,0.0,0.0,0.0,0.0,0.0,0.0,0.0,0.0,0.0,0.0,0.0,0.0,0.0,0.0,0.0,0.0,0.0,0.0,0.0,0.0,0.0,0.0,0.0,0.0,0.0,0.0,0.0,0.0,0.0,0.0,0.0,0.0,0.0,0.0,0.0,0.0,0.0,0.0,0.0,0.0,0.0,0.0,0.0,0.0,0.0,0.0,0.0,0.0,0.0,0.0,0.0,0.0,0.0,0.0,0.0,0.0,0.0,0.0,0.0,0.0,0.0,0.0,0.0,0.0,0.0,0.0,0.0,0.0,0.0,0.0,0.0,0.0,0.0,0.0,0.0,0.0,0.0,0.0,0.0,0.0,0.0,0.0,0.0,0.0,0.0,0.0,0.0,0.0,0.0,0.0,0.0,0.0,0.0,0.0,0.0,0.0,0.0,0.0,0.0,0.0,0.0,0.0,0.0,0.0,0.0,0.0,0.0,0.0,0.0,0.0,0.0,0.0,0.0,0.0,0.0,0.0,0.0,0.0,0.0,0.0,0.0,0.0,0.0,0.0,0.0,0.0,0.0,0.0,0.0,0.0,0.0,0.0,0.0,0.0,0.0,0.0,0.0,0.0,0.0,0.0,0.0,0.0,0.0,0.0,0.0,0.0,0.0,0.0,0.0,0.0,0.0,0.0,0.0,0.0,0.0,0.0,0.0,0.0,0.0,0.0,0.0,0.0,0.0,0.0,0.0,0.0,0.0,0.0,0.0,0.0,0.0,0.0,0.0,0.0,0.0,0.0,0.0,0.0,0.0,0.0,0.0,0.0,0.0,0.0,0.0,0.0,0.0,0.0,0.0,0.0,0.0,0.0,0.0,0.0,0.0,0.0,0.0,0.0,0.0,0.0,0.0,0.0,0.0,0.0,0.0,0.0,0.0,0.0,0.0,0.0,0.0,0.0,0.0,0.0,0.0,0.0,0.0,0.0,0.0,0.0,0.0,0.0,0.0,0.0,0.0,0.0,0.0,0.0,0.0,0.0,0.0,0.0,0.0,0.0,0.0,0.0,0.0,0.0,0.0,0.0,0.0,0.0,0.0,0.0,0.0,0.0,0.0,0.0,0.0,0.0,0.0,0.0,0.0,0.0,0.0,0.0,0.0,0.0,0.0,0.0,0.0,0.0,0.0,0.0,0.0,0.0,0.0,0.0,0.0,0.0,0.0,0.0,0.0,0.0,0.0,0.0,0.0,0.0,0.0,0.0,0.0,0.0,0.0,0.0,0.0,0.0,0.0,0.0,0.0,0.0,0.0,0.0,0.0,0.0,0.0,0.0,0.0,0.0,0.0,0.0,0.0,0.0,0.0,0.0,0.0,0.0,0.0,0.0,0.0,0.0,0.0,0.0,0.0,0.0,0.0,0.0,0.0,0.0,0.0,0.0,0.0,0.0,0.0,0.0,0.0,0.0,0.0,0.0,0.0,0.0,0.0,0.0,0.0,0.0,0.0,0.0,0.0,0.0,0.0,0.0,0.0,0.0,0.0,0.0,0.0,0.0,0.0,0.0,0.0,0.0,0.0,0.0,0.0,0.0,0.0,0.0,0.0,0.0,0.0,0.0,0.0,0.0,0.0,0.0,0.0,0.0,0.0,0.0,0.0,0.0,0.0,0.0,0.0,0.0,0.0,0.0,0.0,0.0,0.0,0.0,0.0,0.0,0.0,0.0,0.0,0.0,0.0,0.0,0.0,0.0,0.0,0.0,0.0,0.0,0.0,0.0,0.0,0.0,0.0,0.0,0.0,0.0,0.0,0.0,0.0,0.0,0.0,0.0,0.0,0.0,0.0,0.0,0.0,0.0,0.0,0.0,0.0,0.0,0.0,0.0,0.0,0.0,0.0,0.0,0.0,0.0,0.0,0.0,0.0,0.0,0.0,0.0,0.0,0.0,0.0,0.0,0.0,0.0,0.0,0.0,0.0,0.0,0.0,0.0,0.0,0.0,0.0,0.0,0.0,0.0,0.0,0.0,0.0,0.0,0.0,0.0,0.0,0.0,0.0,0.0,0.0,0.0,0.0,0.0,0.0,0.0,0.0,0.0,0.0,0.0,0.0,0.0,0.0,0.0,0.0,0.0,0.0,0.0,0.0,0.0,0.0,0.0,0.0,0.0,0.0,0.0,0.0,0.0,0.0,0.0,0.0,0.0,0.0,0.0,0.0,0.0,0.0,0.0,0.0,0.0,0.0,0.0,0.0,0.0,0.0,0.0,0.0,0.0,0.0,0.0,0.0,0.0,0.0,0.0,0.0,0.0,0.0,0.0,0.0,0.0,0.0,0.0,0.0,0.0,0.0,0.0,0.0,0.0,0.0,0.0,0.0,0.0,0.0,0.0,0.0,0.0,0.0,0.0,0.0,0.0,0.0,0.0,0.0,0.0,0.0,0.0,0.0,0.0,0.0,0.0,0.0,0.0,0.0,0.0,0.0,0.0,0.0,0.0,0.0,0.0,0.0,0.0,0.0,0.0,0.0,0.0,0.0,0.0,0.0,0.0,0.0,0.0,0.0,0.0,0.0,0.0,0.0,0.0,0.0,0.0,0.0,0.0,0.0,0.0,0.0,0.0,0.0,0.0,0.0,0.0,0.0,0.0,0.0,0.0,0.0,0.0,0.0,0.0,0.0,0.0,0.0,0.0,0.0,0.0,0.0,0.0,0.0,0.0,0.0,0.0,0.0,0.0,0.0,0.0,0.0,0.0,0.0,0.0,0.0,0.0,0.0,0.0,0.0,0.0,0.0,0.0,0.0,0.0,0.0,0.0,0.0,0.0,0.0,0.0,0.0,0.0,0.0,0.0,0.0,0.0,0.0,0.0,0.0,0.0,0.0,0.0,0.0,0.0,0.0,0.0,0.0,0.0,0.0,0.0,0.0,0.0,0.0,0.0,0.0,0.0,0.0,0.0,0.0,0.0,0.0,0.0,0.0,0.0,0.0,0.0,0.0,0.0,0.0,3.381,3.9391,0.0,0.0,0.0,0.0,0.0,0.0,0.0,0.0,0.0,0.0,0.0,0.0,0.0,0.0,0.0,0.0,0.0,0.0,0.0,0.0,0.0,0.0,0.0,0.0,0.0,0.0,0.0,0.0,0.0,0.0,0.0,0.0,0.0,0.0,0.0,0.0,0.0,2.2404,2.2409,2.3251,2.484,2.5501,2.6517,2.7853,0.0,0.0,0.0,0.0,0.0,0.0,0.0,0.0,0.0,0.0,0.0,0.0,0.0,0.0,0.0,0.0,0.0,0.0,0.0,0.0,0.0,0.0,0.0,0.0,0.0,0.0,0.0,0.0,0.0,0.0,0.0,0.0,0.0,0.0,0.0,0.0,0.0,0.0,0.0,0.0,0.0,0.0,0.0,0.0,0.0,0.0,0.0,0.0,0.0,0.0,0.0,0.0,0.0,0.0,0.0,0.0,0.0,0.0,0.0,0.0,0.0,0.0,0.0,0.0,0.0,0.0,0.0,0.0,0.0,0.0,2.7561,3.2287,0.0,0.0,0.0,0.0,0.0,0.0,0.0,0.0,0.0,0.0,0.0,0.0,0.0,0.0,0.0,0.0,0.0,0.0,0.0,0.0,0.0,0.0,0.0,1.3709,1.2865,1.2865,1.2865,1.2865,1.2865,0.0,0.0,0.0,0.0,0.0,1.7988,1.6625,1.7474,2.0652,1.9228,1.9967,2.2688,2.2688,2.3606,2.5176,2.5354,0.0,0.0,0.0,0.0,0.0,0.0,0.0,0.0,0.0,0.0,0.0,0.0,0.0,0.0,0.0,0.0,0.0,0.0,0.0,0.0,0.0,0.0,0.0,0.0,0.0,0.0,0.0,0.0,0.0,0.0,0.0,0.0,0.0,0.0,0.0,0.0,0.0,0.0,0.0,0.0,0.0,0.0,0.0,0.0,0.0,0.0,0.0,0.0,0.0,0.0,0.0,0.0,0.0,0.0,0.0,0.0,0.0,0.0,0.0,0.0,0.0,0.0,0.0,1.98,1.9047,1.9047,1.9047,1.7551,1.5232,2.097,2.4086,2.5662,3.181,0.0,0.0,0.0,0.0,0.0,0.0,0.0,0.0,0.0,0.0,0.0,0.0,0.0,0.0,0.0,0.0,0.0,0.0,0.0,1.3062,1.1571,1.1174,1.1049,1.1049,1.1049,1.1049,1.1049,0.0,0.0,0.0,0.0,1.5978,1.6237,1.6043,1.6883,1.8832,1.864,1.8756,1.9139,1.9139,2.0106,2.1839,2.4654,2.5902,2.5902,0.0,0.0,0.0,0.0,0.0,0.0,0.0,0.0,0.0,0.0,0.0,0.0,0.0,0.0,0.0,0.0,0.0,0.0,0.0,0.0,0.0,0.0,0.0,0.0,0.0,0.0,0.0,0.0,0.0,0.0,0.0,0.0,0.0,0.0,0.0,0.0,0.0,0.0,0.0,0.0,0.0,2.4463,2.4225,0.0,0.0,0.0,0.0,0.0,0.0,0.0,0.0,0.0,0.0,0.0,0.0,0.0,2.0664,1.9032,1.7498,1.6049,1.4558,1.2833,1.1995,1.1995,1.1995,1.1805,1.149,1.3861,0.0,1.985,2.4633,0.0,0.0,0.0,0.0,0.0,0.0,0.0,0.0,0.0,0.0,0.0,0.0,0.0,0.0,0.0,0.0,0.0,0.0,0.0,0.0,0.0,1.0717,1.0717,1.0717,1.0717,1.0717,1.0717,1.1439,0.0,0.0,1.2545,1.3456,1.4428,1.3456,1.384,1.5589,1.656,1.7538,1.8512,1.8512,1.9419,2.1109,2.1595,2.2333,2.3248,2.3248,0.0,0.0,0.0,0.0,0.0,0.0,0.0,0.0,0.0,0.0,0.0,0.0,0.0,0.0,0.0,0.0,0.0,0.0,0.0,0.0,0.0,0.0,0.0,0.0,0.0,0.0,0.0,0.0,0.0,0.0,0.0,0.0,0.0,0.0,0.0,0.0,0.0,0.0,0.0,2.5549,2.4204,2.3526,2.6498,2.8667,0.0,0.0,0.0,0.0,0.0,0.0,0.0,0.0,0.0,1.8059,1.7074,1.5758,1.4056,1.3348,1.2568,1.197,1.1175,1.0894,1.0968,1.0968,1.0968,1.1036,1.1767,1.3553,1.6196,2.0869,2.5092,2.8928,0.0,0.0,0.0,0.0,3.4736,3.3056,0.0,0.0,0.0,0.0,0.0,0.0,0.0,0.0,0.0,0.0,0.0,0.0,1.0717,1.0717,1.0717,1.0717,1.0717,1.0717,1.0717,1.0717,1.0717,1.0717,1.0717,1.1306,1.261,1.1828,1.1762,1.261,1.4362,1.5913,1.7152,1.7152,1.8116,1.9737,1.8436,1.9024,2.1046,2.0132,2.074,2.2298,0.0,0.0,0.0,0.0,0.0,0.0,0.0,0.0,0.0,0.0,0.0,0.0,0.0,0.0,0.0,0.0,0.0,0.0,0.0,0.0,0.0,0.0,0.0,0.0,0.0,0.0,0.0,0.0,0.0,0.0,0.0,0.0,0.0,0.0,0.0,0.0,0.0,2.3503,2.2489,2.1603,2.3475,2.5113,0.0,0.0,0.0,0.0,0.0,0.0,1.9575,1.8006,1.6398,1.4697,1.3443,1.2147,1.0833,1.0833,1.0894,1.1002,1.1002,1.1056,1.1234,1.1234,1.1234,1.1234,1.1234,1.1909,1.3516,1.8012,2.1691,2.481,2.8211,3.0917,3.2888,3.1899,3.0569,2.8903,0.0,0.0,0.0,0.0,0.0,0.0,0.0,0.0,0.0,0.0,0.0,1.0717,1.0717,1.0717,1.0717,1.0717,1.0717,1.0717,1.0717,1.0717,1.0717,1.0717,1.0717,1.0717,1.085,1.2347,1.2413,1.085,1.261,1.3456,1.3578,1.3578,1.4493,1.6172,1.6043,1.7923,2.0856,1.7602,1.7141,1.8756,1.8756,0.0,0.0,0.0,0.0,0.0,0.0,0.0,0.0,0.0,0.0,0.0,0.0,0.0,0.0,0.0,0.0,0.0,0.0,0.0,0.0,0.0,0.0,0.0,0.0,0.0,0.0,0.0,0.0,0.0,0.0,0.0,0.0,0.0,0.0,0.0,0.0,0.0,0.0,1.6281,1.6347,0.0,0.0,0.0,0.0,2.0913,1.9411,1.7825,1.6347,1.4666,1.3065,1.1468,1.1345,1.1276,1.1207,1.1138,1.1214,1.1151,1.1151,1.1158,1.1234,1.1234,1.1234,1.1234,1.1234,1.1234,1.1641,1.5276,1.8772,2.2141,2.5486,2.7035,2.7277,2.7001,2.5977,2.4516,0.0,0.0,0.0,0.0,0.0,0.0,0.0,0.0,1.0717,1.0717,1.0717,1.0717,1.0717,1.0717,1.0717,1.0717,1.0717,1.0717,1.0717,1.0717,1.0717,1.0717,1.0717,1.0717,1.0717,1.1306,1.1306,1.0717,1.1306,1.2215,1.3325,1.3325,1.4232,1.5848,1.4754,1.5524,1.7667,1.6431,1.6237,1.6818,1.6818,1.7194,0.0,0.0,0.0,0.0,0.0,0.0,0.0,0.0,0.0,0.0,0.0,0.0,0.0,0.0,0.0,0.0,0.0,0.0,0.0,0.0,0.0,0.0,0.0,0.0,0.0,0.0,0.0,0.0,0.0,0.0,0.0,0.0,0.0,0.0,0.0,0.0,0.0,1.7396,1.653,0.0,1.8337,1.8003,1.7347,1.6369,1.4691,1.3537,1.2934,1.2354,1.1783,1.1227,1.1234,1.0606,0.9348,1.0599,1.0644,0.9462,1.0741,1.1362,1.1457,1.1457,1.1457,1.1457,1.1457,1.1457,1.1662,1.4168,1.587,1.7209,2.0701,2.2245,2.266,2.3785,2.388,2.3333,0.0,0.0,0.0,0.0,0.0,0.0,0.0,1.0717,1.0717,1.0717,1.0717,1.0717,1.0717,1.0717,1.0717,1.0717,1.0717,1.0717,1.0717,1.0114,1.0047,1.0651,1.0717,1.0717,1.0717,1.0717,1.0717,1.0717,1.0717,1.1306,1.2413,1.2413,1.3062,1.4101,1.2931,1.3062,1.4166,1.4166,1.4493,1.5005,1.5005,1.5005,1.507,0.0,0.0,0.0,0.0,0.0,0.0,0.0,0.0,0.0,0.0,0.0,0.0,0.0,0.0,0.0,0.0,0.0,0.0,0.0,0.0,0.0,0.0,0.0,0.0,0.0,0.0,0.0,0.0,0.0,0.0,0.0,0.0,0.0,0.0,1.7607,1.6229,1.7507,1.5564,1.4866,1.6786,1.5414,1.3957,1.2985,1.1841,1.1185,1.124,1.124,1.126,1.1314,1.1314,1.0391,0.8484,0.9724,0.9433,0.7639,0.8904,0.9914,1.0663,1.0663,1.1106,1.1769,1.1769,1.1769,1.1842,1.3127,1.3554,1.3863,1.7516,1.9472,2.0332,2.0917,2.2014,2.3166,0.0,0.0,0.0,0.0,0.0,0.0,1.0717,1.0717,1.0717,1.0717,1.0717,1.0717,1.0717,1.0717,1.0717,1.0717,1.0717,1.0651,1.0651,0.8972,0.8767,1.0518,1.0651,1.0717,1.0717,1.0717,1.0717,1.0717,1.0717,1.0717,1.0717,1.0717,1.0717,1.0717,1.0717,1.0717,1.0717,1.0717,1.1696,1.3193,1.3193,1.3193,1.339,0.0,0.0,0.0,0.0,0.0,0.0,0.0,0.0,0.0,0.0,0.0,0.0,0.0,0.0,0.0,0.0,0.0,0.0,0.0,0.0,0.0,0.0,0.0,0.0,0.0,0.0,0.0,0.0,0.0,0.0,0.0,0.0,0.0,1.778,1.6733,1.5749,1.5896,1.2949,1.1682,1.3524,1.2192,1.1241,1.1179,1.1248,1.1246,1.1396,1.1409,1.1484,1.1626,1.1633,1.0684,0.8641,0.8675,0.7694,0.5706,0.5771,0.6856,0.8815,0.8815,0.9949,1.1986,1.1986,1.206,1.2135,1.2135,1.2135,1.2412,1.6012,1.8581,2.0119,1.8342,2.0249,2.3696,0.0,0.0,0.0,0.0,0.0,0.0,1.0717,1.0717,1.0717,1.0717,1.0717,1.0717,1.0717,1.0717,1.0717,1.0717,1.0717,1.0114,0.8834,0.8296,0.823,0.8701,0.9981,1.0717,1.0717,1.0717,1.0717,1.0717,1.0717,1.0717,1.0717,1.0717,1.0717,1.0717,1.0717,1.0717,1.0717,1.0717,1.0982,1.1439,1.1439,1.1439,1.1505,0.0,0.0,0.0,0.0,0.0,0.0,0.0,0.0,0.0,0.0,0.0,0.0,0.0,0.0,0.0,0.0,0.0,0.0,0.0,0.0,0.0,0.0,0.0,0.0,0.0,0.0,0.0,0.0,0.0,0.0,0.0,1.27,1.09,1.4373,1.3478,1.2519,1.2513,1.1714,1.1365,1.1999,1.1608,1.1375,1.1484,1.1592,1.1667,1.1708,1.1816,1.1898,1.1938,1.1938,1.0293,0.6786,0.8155,0.7124,0.3681,0.5118,0.6101,0.6631,0.6631,0.7761,0.9794,0.9794,1.0622,1.2135,1.2135,1.2135,1.2352,1.471,1.5922,1.6515,1.7375,1.9297,2.1785,0.0,0.0,0.0,0.0,0.0,0.0,1.0717,1.0717,1.0717,1.0717,1.0717,1.0717,1.0717,1.0717,1.0717,1.0717,0.9981,0.9105,0.8097,0.803,0.803,0.803,0.9709,1.0717,1.0717,1.0717,1.0717,1.0717,1.0717,1.0717,1.0717,1.0717,1.0717,1.0717,1.0717,1.0717,1.0717,1.0717,1.0717,1.0717,1.0717,1.0717,1.0717,1.0717,1.0717,1.0452,0.8634,0.803,0.7764,0.5964,0.0,0.0,0.0,0.0,0.0,0.0,0.0,0.0,0.0,0.0,0.0,0.0,0.0,0.0,0.0,0.0,0.0,0.0,0.0,0.0,0.0,0.0,0.0,0.0,0.9641,0.8483,1.2079,1.1826,1.1185,1.1253,1.126,1.1341,1.1552,1.1579,1.164,1.1796,1.1884,1.1925,1.1925,1.2013,1.2135,1.2135,1.2135,1.0168,0.6029,0.7117,0.5698,0.1676,0.2831,0.3831,0.467,0.467,0.6274,0.9107,0.9107,1.0357,1.2338,1.2338,1.2379,1.2574,0.0,0.0,0.0,0.0,1.8262,1.8927,0.0,0.0,0.0,0.0,0.0,0.0,1.0717,1.0717,1.0717,1.0717,1.0717,1.0717,1.0717,1.0717,1.0717,1.0717,0.9039,0.7897,0.7698,0.7897,0.803,0.803,0.9709,1.0717,1.0717,1.0717,1.0717,1.0717,1.0717,1.0717,1.0717,1.0717,1.0717,1.0717,1.0717,1.0717,1.0717,1.0717,1.0717,1.0717,1.0717,1.0717,1.0717,1.0717,1.0585,1.018,0.8368,0.7564,0.7093,0.5158,0.0,0.0,0.0,0.0,0.0,0.0,0.0,0.0,0.0,0.0,0.0,0.0,0.0,0.0,0.0,0.0,0.0,0.0,0.0,0.0,0.0,0.0,0.0,0.0,0.6587,0.6793,1.058,1.1054,1.1098,1.1423,1.1457,1.1572,1.183,1.1857,1.1911,1.2128,1.2081,1.2088,1.2088,1.2176,0.0,0.0,0.0,1.0167,0.6077,0.6069,0.4019,0.0,0.0,0.0945,0.2751,0.2751,0.4946,0.8705,0.8705,1.0101,1.2358,1.2358,1.2595,1.2922,1.2522,1.3489,1.5295,1.7512,1.7121,1.6136,0.0,0.0,0.0,0.0,0.0,0.0,1.0717,1.0717,1.0717,1.0717,1.0717,1.0717,1.0717,1.0717,1.0717,1.0717,0.9039,0.7431,0.5964,0.7231,0.803,0.803,0.9709,1.0717,1.0717,1.0717,1.0717,1.0717,1.0717,1.0717,1.0717,1.0717,1.0717,1.0717,1.0717,1.0717,1.0717,1.0717,1.0717,1.0717,1.0717,1.0717,1.0717,1.0717,0.9775,0.8302,0.6564,0.4961,0.3218,-0.0067,-0.1609,-0.2414,-0.3885,-0.4824,0.0,0.0,0.0,0.0,0.0,0.0,0.0,0.0,0.0,0.0,0.0,0.0,0.0,0.0,0.0,0.0,0.0,0.0,0.0,0.5813,0.4632,0.485,0.881,0.9386,0.9922,1.1537,1.1857,1.1952,1.2013,1.202,1.2033,1.2135,1.2176,1.2244,1.2244,1.2352,1.2474,1.2596,1.2603,1.0594,0.6466,0.6404,0.4252,0.0,0.0,0.0,0.0565,0.0565,0.1936,0.4346,0.4346,0.6522,1.0164,1.0164,1.1308,1.2949,1.2868,1.3065,1.3692,1.5743,1.6215,1.6215,0.0,0.0,0.0,0.0,0.0,0.0,0.951,0.9371,0.9039,0.8174,0.8035,0.8035,0.8035,0.8035,0.8035,0.8035,0.7231,0.6297,0.5429,0.7031,0.8435,0.9305,1.0246,1.0717,1.0717,1.0717,1.0717,1.0717,1.0717,1.0717,1.0717,1.0717,1.0717,1.0717,1.0717,1.0717,1.0717,1.0717,1.0717,1.0651,0.9709,0.9371,0.9437,1.0386,0.9039,0.6564,0.5696,0.4225,0.2147,-0.1476,-0.3289,-0.4359,-0.6164,-0.7298,-0.8051,0.0,0.0,0.0,0.0,0.0,0.0,0.0,0.0,0.0,0.0,0.0,0.0,0.0,0.0,-0.0211,-0.0213,0.0,0.1966,0.3923,0.3471,0.4334,0.8359,0.8975,0.9763,1.1737,1.2013,1.2169,1.2169,1.2237,1.2311,1.2393,1.2542,1.2623,1.2623,1.2691,1.2766,1.284,1.2847,1.0782,0.6556,0.6475,0.4295,0.0,0.0,0.0,0.0,0.0,0.1138,0.3082,0.3082,0.4958,0.8169,0.9279,1.1114,1.318,1.318,1.3091,1.3116,1.4141,1.4533,1.4764,0.0,0.0,0.0,0.0,0.0,0.0,0.8296,0.803,0.7365,0.5629,0.5429,0.5429,0.5429,0.5429,0.5228,0.4894,0.5496,0.5763,0.5429,0.7365,0.9172,1.0651,1.0717,1.0717,1.0717,1.0717,1.0717,1.0717,1.0717,1.0717,1.0717,1.0717,1.0717,1.0717,1.0717,1.0717,1.0717,1.0717,1.0717,1.0518,0.8701,0.7831,0.7631,0.9105,0.7702,0.4894,0.4894,0.3689,0.1612,-0.2013,-0.4225,-0.5767,-0.7922,-0.9546,-1.0792,-1.0948,-1.0989,0.0,0.0,0.0,0.0,0.0,0.0,0.0,0.0,-0.9312,-0.6915,-0.6935,-0.5093,-0.3461,-0.3506,-0.1553,0.0522,0.2084,0.2331,0.379,0.7893,0.8588,0.955,1.2016,1.221,1.2237,1.2366,1.2508,1.2644,1.2766,1.2888,1.2963,1.2963,1.2963,1.2809,1.2427,1.2346,1.0325,0.595,0.5869,0.3917,0.0,0.0,0.0,0.0,0.0,0.09,0.2533,0.294,0.4183,0.612,0.8842,1.1048,1.281,1.3231,1.3254,1.3051,1.3051,1.3051,1.3286,0.0,0.0,0.0,0.0,0.0,0.0,0.0,0.0,0.7365,0.5629,0.5429,0.5429,0.5429,0.5429,0.476,0.3155,0.5893,0.7031,0.5496,0.8507,1.0518,1.0717,1.0717,1.0717,1.0717,1.0717,1.0717,1.0717,1.0717,1.0717,1.0717,1.0717,1.0717,1.0717,1.0717,1.0717,1.0717,1.0717,1.0717,1.0518,0.8701,0.7098,0.5696,0.5897,0.476,0.3021,0.3021,0.1814,-0.0269,-0.389,-0.5228,-0.5979,-0.9446,-1.0718,-1.0948,-1.1097,-1.1138,-1.1207,-1.1434,-1.2835,-1.464,-1.6638,-1.5554,-1.4073,0.0,-1.2465,-1.0953,-1.1087,-0.8099,-0.5474,-0.5615,-0.2559,0.0076,0.0302,0.0305,0.1851,0.6146,0.6762,0.8344,1.2443,1.2739,1.2664,1.2678,1.282,1.2915,1.2935,1.2949,1.2963,1.2963,1.2963,1.2117,1.0182,1.0182,0.809,0.3761,0.3679,0.2427,0.0,0.0,0.0,0.0,0.0,0.0168,0.0419,0.2427,0.343,0.4019,0.8286,1.0128,1.0549,1.2644,1.3383,1.3349,1.3349,1.3349,1.3349,0.0,0.0,0.0,0.0,0.0,0.0,0.0,0.0,0.5492,0.2618,0.2283,0.2283,0.2283,0.2283,0.1948,0.121,0.4426,0.6164,0.5429,0.8706,1.0717,1.0717,1.0717,1.0717,1.0717,1.0717,1.0717,1.0717,1.0717,1.0717,1.0717,1.0717,1.0717,1.0717,1.0717,1.0717,1.0717,1.0717,1.0114,0.9039,0.8296,0.6293,0.3823,0.3823,0.2685,0.1277,0.235,0.0873,0.0,-0.46,-0.6238,-0.7544,-1.0197,-1.107,-1.1104,-1.1253,-1.1294,-1.1797,-1.4109,-1.6966,-1.9209,-1.8974,-1.755,-1.5945,-1.4808,-1.318,-1.1891,-1.1952,-0.8746,-0.5917,-0.6023,-0.2734,0.0,0.0,0.0,0.1025,0.4108,0.5664,0.7645,1.0678,1.216,1.2956,1.2874,1.2996,1.3085,1.3085,1.3166,1.3214,1.3214,1.3214,1.2244,0.9973,0.989,0.7833,0.3357,0.3273,0.2184,0.0,0.0,0.0,0.0,0.0,0.0,0.0084,0.1009,0.21,0.3441,0.5365,0.7706,1.0128,1.1137,1.2305,1.3403,1.3403,1.3403,1.3403,0.0,0.0,0.0,0.0,0.0,0.0,0.0,0.0,0.0,0.0,0.0,0.0,0.0,0.0,0.0,0.0,0.2887,0.4894,0.5362,0.8235,1.018,1.0651,1.0717,1.0717,1.0717,1.0717,1.0717,1.0717,1.0717,1.0717,1.0717,1.0717,1.0717,1.0717,1.0717,1.0717,1.0717,1.0717,0.9915,0.8701,0.823,0.616,0.3423,0.2887,0.1549,0.0203,0.1487,0.027,-0.2302,-0.4792,-0.6461,-0.7991,-1.048,-1.1226,-1.1253,-1.1409,-1.1903,-1.3082,-1.6381,-1.9784,-2.1881,-1.9889,-1.8496,-1.6942,-1.4504,-1.3008,-1.2074,-1.2115,-0.886,-0.5991,-0.6087,-0.2774,0.0,0.0,0.0,0.0723,0.2895,0.5099,0.7328,0.9475,1.1767,1.3193,1.3091,1.3173,1.3234,1.3234,1.3336,1.3403,1.3403,1.3403,1.2056,0.9207,0.9124,0.6951,0.2436,0.2352,0.1597,0.0,0.0,0.0,0.0,0.0,0.0,0.0,0.0,0.0925,0.2436,0.3107,0.57,0.9212,0.9878,1.1469,1.3403,1.3403,1.3403,1.3403,0.0,0.0,0.0,0.0,0.0,0.0,0.0,0.0,0.0,0.0,0.0,0.0,0.0,0.0,0.0,0.0,0.168,0.3555,0.5295,0.7098,0.8834,1.0651,1.0717,1.0717,1.0717,1.0717,1.0717,1.0717,1.0717,1.0717,1.0717,1.0717,1.0717,1.0717,1.0717,1.0717,1.0717,1.0717,1.0651,1.0452,0.8701,0.6898,0.5095,0.3354,0.1559,0.0,0.0069,0.0,-0.0619,-0.4375,-0.565,-0.636,-1.0199,-1.1382,-1.1416,-1.1565,-1.3138,-1.52,-1.6989,-1.9162,-2.0445,-1.8113,-1.7723,-1.6873,-1.3081,-1.2135,-1.2101,-1.225,-0.8974,-0.6082,-0.6237,-0.2845,0.0,0.0,0.0,0.0734,0.2964,0.527,0.7518,0.9687,1.1961,1.339,0.0,1.339,1.3397,1.3397,1.3397,1.3403,1.3403,1.3403,1.1386,0.6951,0.6784,0.4612,0.0168,0.0084,0.0084,0.0,0.0,0.0,0.0,0.0,0.0,0.0,0.0,0.0,0.0253,0.2436,0.4695,0.7034,0.9212,1.1469,1.3403,1.3403,1.3403,1.3403,0.0,0.0,0.0,0.0,0.0,0.0,0.0,0.0,0.0,0.0,0.0,0.0,0.0,0.0,0.0,0.0,0.168,0.2954,0.3557,0.636,0.8296,0.89,1.0047,1.0717,1.0717,1.0717,1.0717,1.0717,1.0717,1.0717,1.0717,1.0717,1.0717,1.0717,1.0717,1.0717,1.0717,1.0717,0.9981,0.8972,0.9576,0.7298,0.3694,0.427,0.2595,0.0,0.0,-0.1611,-0.3894,-0.528,-0.742,-0.9707,-1.1064,-1.1545,-1.1851,-1.3362,-1.5252,-1.7286,-1.9238,-2.127,-2.1976,-1.861,-1.7882,-1.7018,-1.3108,-1.2284,-1.2366,-1.242,-0.9143,-0.622,-0.6326,-0.2882,0.0,0.0,0.0,0.0247,0.0992,0.3074,0.476,0.5446,0.8874,0.0,0.0,0.0,0.0,1.3403,1.3403,1.3403,1.3403,1.3403,1.1303,0.6871,0.67,0.4528,0.0084,0.0,0.0,0.0,0.0,0.0,0.0,0.0,0.0,0.0,0.0,0.0,0.0084,0.0842,0.2436,0.4695,0.6954,0.9207,1.1303,1.281,1.3403,1.3403,0.0,0.0,0.0,0.0,0.0,0.0,0.0,0.0,0.0,0.0,0.0,0.0,0.0,0.0,0.0,0.0,0.0,0.2016,0.2685,0.4824,0.6427,0.7031,0.8169,0.8773,0.8773,0.9443,0.9709,0.9709,1.0386,1.0717,1.0717,1.0717,1.0717,1.0717,1.0717,1.0717,1.0717,1.0717,1.0047,0.9039,0.951,0.7298,0.3696,0.4224,0.2613,0.0,0.0,-0.242,-0.5672,-0.5791,-0.7884,-1.0553,-1.137,-1.2151,-1.3233,-1.5485,-1.754,-1.9417,-2.0665,-2.2513,-2.3313,-1.9949,-1.8706,-1.7461,-1.4166,-1.3007,-1.2583,-1.2583,-0.9288,-0.6407,-0.6407,-0.2917,0.0,0.0,0.0,0.0,0.0,0.1924,0.3358,0.3273,0.7285,1.0044,0.0,0.0,0.0,1.3403,1.3403,1.3403,1.3403,1.3403,1.1303,0.6871,0.67,0.4528,0.0084,0.0,0.0,0.0,0.0,0.0,0.0,0.0,0.0,0.0,0.0,0.0,0.0,0.0,0.1346,0.3524,0.4947,0.7368,1.0211,1.1635,1.2727,1.3403,0.0,0.0,0.0,0.0,0.0,0.0,0.0,0.0,0.0,0.0,0.0,0.0,0.0,0.0,0.0,0.0,0.0,0.0,0.2417,0.2618,0.3488,0.5162,0.5362,0.5429,0.5429,0.7031,0.7897,0.7897,0.9576,1.0452,1.0585,1.0585,1.0585,1.0717,1.0717,1.0717,1.0717,1.0585,1.0585,1.0386,0.8568,0.6831,0.5041,0.3343,0.1593,0.0,0.0,-0.252,-0.5808,-0.5808,-0.7255,-0.9352,-1.1253,-1.337,-1.5514,-1.7802,-1.9867,-2.1372,-2.1384,-2.2915,-2.404,-2.1823,-1.9927,-1.8062,-1.6007,-1.4089,-1.2745,-1.2745,-0.9397,-0.6479,-0.6479,-0.2951,0.0,0.0,0.0,0.0,0.0,0.1849,0.3191,0.0,0.0,0.0,0.0,0.0,0.0,1.3403,1.3403,1.3403,1.3403,1.3403,1.1303,0.6871,0.67,0.4528,0.0084,0.0,0.0,0.0,0.0,0.0,0.0,0.0,0.0,0.0,0.0,0.0,0.0,0.0,0.1262,0.3191,0.3357,0.6035,0.9795,0.9795,1.1303,1.3231,0.0,0.0,0.0,0.0,0.0,0.0,0.0,0.0,0.0,0.0,0.0,0.0,0.0,0.0,0.0,0.0,0.0,0.0,0.0672,0.1948,0.2887,0.3354,0.4693,0.5429,0.5429,0.583,0.603,0.603,0.6498,0.7436,0.8701,0.8701,0.9443,1.0717,1.0717,1.0717,1.0585,0.9238,0.8701,0.8568,0.6765,0.4992,0.3345,0.2907,0.1546,0.0,0.0,-0.2468,-0.5808,-0.5808,-0.8971,-1.3302,-1.5453,-1.6562,-1.7583,-1.9925,-2.1047,-2.1879,-2.3311,-2.4127,-2.4092,-2.204,-2.0103,-1.8211,-1.6216,-1.4271,-1.2901,-1.2901,-0.9511,-0.6475,-0.6475,-0.2903,0.0,0.0,0.0,0.0,0.0,0.0505,0.0,0.0841,0.4863,0.7535,0.7535,1.1053,0.0,1.3403,1.3403,1.3403,1.3403,1.3403,1.1303,0.6871,0.67,0.4528,0.0084,0.0,0.0,0.0,0.0,0.0,0.0,0.0,0.0,0.0,0.0,0.0,0.0,0.0,0.0337,0.1009,0.2687,0.4027,0.5282,0.6951,0.8957,1.0882,0.0,0.0,0.0,0.0,0.0,0.0,0.0,0.0,0.0,0.0,0.0,0.0,0.0,0.0,0.0,0.0,0.0,0.0,0.0,0.0941,0.1545,0.1545,0.2484,0.3021,0.3021,0.3823,0.4225,0.4225,0.5028,0.5897,0.6831,0.6831,0.7431,0.8374,0.8374,0.8374,0.8307,0.7298,0.6831,0.0,0.0,0.3587,0.2609,0.1811,0.0919,0.0,0.0,-0.305,-0.7454,-1.0095,-1.3149,-1.6221,-1.8441,-1.9253,-1.9859,-2.2117,-2.2843,-2.319,-2.4253,-2.4636,-2.4367,-2.3341,-2.0962,-1.855,-1.7483,-1.5074,-1.2808,-1.1826,-0.8884,-0.6308,-0.5313,-0.2342,0.0,0.0,0.0,0.0,0.0,0.0,0.0,0.0,0.3944,0.0,0.67,1.0798,1.3403,1.3403,1.3403,1.3403,1.3403,1.2478,1.0299,0.6784,0.57,0.3524,0.0,0.0,0.0,0.0,0.0,0.0,0.0,0.0,0.0,0.0,0.0,0.0,0.0,0.0,0.0,0.0085,0.1364,0.2471,0.3574,0.4762,0.6629,0.8751,0.0,0.0,0.0,0.0,0.0,0.0,0.0,0.0,0.0,0.0,0.0,0.0,0.0,0.0,0.0,0.0,0.0,0.0,0.0,0.0,0.0,0.0,0.0,0.0,0.0,0.1545,0.235,0.235,0.389,0.4827,0.5028,0.5028,0.5162,0.5429,0.5429,0.5429,0.5362,0.5162,0.5028,0.4897,0.3094,0.2309,0.2204,0.0,0.0,0.0,-0.0291,-0.3912,-0.9512,-1.5373,-1.7643,-1.842,-2.0635,-2.1546,-2.2154,-2.4014,-2.4636,-2.4649,-2.469,-2.469,-2.477,-2.5064,-2.1983,-1.897,-1.9161,-1.5875,-1.2206,-1.0224,-0.79,-0.5616,-0.3692,-0.1513,0.0,0.0,0.0,0.0,0.0,0.0,0.0,0.0,0.3944,0.67,0.67,1.0798,1.3403,1.3403,1.3417,1.3424,1.3403,1.1552,0.93,0.6801,0.421,0.1941,0.0,0.0,0.0,0.0,0.0,0.0,0.0,0.0,0.0,0.0,0.0,0.0,0.0,0.0,0.0,0.0,0.0,0.1216,0.2948,0.2948,0.4331,0.6579,0.0,0.0,0.0,0.0,0.0,0.0,0.0,0.0,0.0,0.0,0.0,0.0,0.0,0.0,0.0,0.0,0.0,0.0,0.0,0.0,0.0,0.0,0.0,0.0,0.0,0.0336,0.0471,0.0471,0.0807,0.168,0.3155,0.3155,0.3957,0.5429,0.5429,0.5429,0.5295,0.3823,0.3155,0.3023,0.1226,0.0483,0.042,0.0142,0.0,0.0,-0.1818,-0.5066,-0.9297,-1.3818,-1.7368,-2.045,-2.2836,-2.3635,-2.3812,-2.4395,-2.4636,-2.469,-2.493,-2.4997,-2.5077,-2.5371,-2.2381,-1.9373,-1.9413,-1.4896,-1.0517,-1.0097,-0.6777,-0.386,-0.3357,-0.1513,0.0,0.0,0.0,0.0,0.0,0.0,0.0,0.0,0.3944,0.67,0.67,1.0798,0.0,0.0,1.3519,1.3532,1.341,1.3065,1.0931,0.6792,0.2747,0.0346,0.0,0.0,0.0,0.0,0.0,0.0,0.0,0.0,0.0,0.0,0.0,0.0,0.0,0.0,0.0,0.0,0.0,0.0261,0.0608,0.0608,0.1996,0.4331,0.0,0.0,0.0,0.0,0.0,0.0,0.0,0.0,0.0,0.0,0.0,0.0,0.0,0.0,0.0,0.0,0.0,0.0,0.0,0.0,0.0,0.0,0.0,0.0,0.0,0.0,0.0,0.0,0.0,0.0471,0.1277,0.1277,0.1747,0.2618,0.2618,0.2618,0.2551,0.168,0.1282,0.1224,0.0343,0.0,0.0,0.0,0.0,0.0,-0.2183,-0.5377,-0.9173,-1.2365,-1.6739,-2.1258,-2.3523,-2.4302,-2.4449,-2.4596,-2.4636,-2.4703,-2.4997,-2.5077,-2.5184,-2.5638,-2.258,-1.9514,-1.9715,-1.4676,-0.9711,-0.854,-0.57,-0.3023,-0.1765,0.0252,0.1346,0.0168,0.0925,0.1346,0.0168,0.0,0.0,0.0,0.3944,0.67,0.67,1.0798,1.3437,1.3512,1.3587,1.36,1.3526,1.1289,0.8535,0.5156,0.1818,0.0,0.0,0.0,0.0,0.0,0.0,0.0,0.0,0.0,0.0,0.0,0.0,0.0,0.0,0.0,0.0,0.0,0.0,0.0,0.0,0.0,0.0707,0.2118,0.0,0.0,0.0,0.0,0.0,0.0,0.0,0.0,0.0,0.0,0.0,0.0,0.0,0.0,0.0,0.0,0.0,0.0,0.0,0.0,0.0,0.0,0.0,0.0,0.0,0.0,0.0,0.0,0.0,0.0,0.0,0.0,0.0,0.0,0.0,0.0,0.0,0.0,0.0,0.0,0.0,0.0,0.0,0.0,0.0,0.0,0.0,-0.4819,-0.8538,-1.0798,-1.5328,-2.0258,-2.2325,-2.3775,-2.4636,-2.4636,-2.4676,-2.4796,-2.509,-2.4908,-2.4685,-2.5283,-2.2111,-1.8952,-1.9138,-1.407,-0.879,-0.7038,-0.4528,-0.21,-0.0337,0.1849,0.2771,0.1009,0.2184,0.2687,0.0925,0.0337,0.0168,0.0,0.4279,0.0,0.7372,1.1076,0.0,1.362,1.3688,1.3709,1.3675,0.9316,0.6079,0.4346,0.1484,0.0,0.0,0.0,0.0,0.0,0.0,0.0,0.0,0.0,0.0,0.0,0.0,0.0,0.0,0.0,0.0,0.0,0.0,0.0,0.0,0.0,0.0,0.0628,0.0,0.0,0.0,0.0,0.0,0.0,0.0,0.0,0.0,0.0,0.0,0.0,0.0,0.0,0.0,0.0,0.0,0.0,0.0,0.0,0.0,0.0,0.0,0.0,0.0,0.0,0.0,0.0,0.0,0.0,0.0,0.0,0.0,0.0,0.0,0.0,0.0,0.0,0.0,0.0,0.0,0.0,0.0,0.0,0.0,0.0,0.0,-0.2859,-0.6585,-0.8795,-1.2359,-1.6253,-1.8396,-2.1653,-2.4636,-2.4636,0.0,0.0,-2.5398,-2.425,-2.3,-2.3273,-2.0099,-1.6867,-1.6884,-1.1753,-0.6951,-0.6703,-0.3274,-0.0253,0.0,0.1849,0.3274,0.3023,0.3191,0.3191,0.3023,0.1262,0.0757,0.2771,0.0,0.0,0.9628,1.2083,1.3614,1.3627,1.3878,1.3966,1.3831,0.9421,0.6848,0.6586,0.2311,0.0,0.0,0.0,0.0,0.0,0.0,0.0,0.0,0.0,0.0,0.0,0.0,0.0,0.0,0.0,0.0,0.0,0.0,0.0,0.0,0.0,0.0,0.0359,0.0,0.0,0.0,0.0,0.0,0.0,0.0,0.0,0.0,0.0,0.0,0.0,0.0,0.0,0.0,0.0,0.0,0.0,0.0,0.0,0.0,0.0,0.0,0.0,0.0,0.0,0.0,0.0,0.0,0.0,0.0,0.0,0.0,0.0,0.0,0.0,0.0,0.0,0.0,0.0,0.0,0.0,0.0,0.0,0.0,0.0,0.0,0.0,-0.4569,-0.6754,-1.0173,-1.3953,-1.6031,-1.8739,-2.1371,-2.2666,-2.2241,-2.1797,-2.3397,-2.2356,-2.0819,-2.1136,-1.8842,-1.6229,-1.4885,-1.0506,-0.6282,-0.4947,-0.2184,0.0,0.0,0.2939,0.4947,0.3608,0.5616,0.6867,0.5533,0.4612,0.386,0.3358,0.6536,0.0,0.0,0.0,1.3702,1.3885,1.4089,1.3556,1.1998,0.8854,0.7013,0.7013,0.2413,0.0,0.0,0.0,0.0,0.0,0.0,0.0,0.0,0.0,0.0,0.0,0.0,0.0,0.0,0.0,0.0,0.0,0.0,0.0,0.0,0.0,0.0,0.0359,0.0,0.0,0.0,0.0,0.0,0.0,0.0,0.0,0.0,0.0,0.0,0.0,0.0,0.0,0.0,0.0,0.0,0.0,0.0,0.0,0.0,0.0,0.0,0.0,0.0,0.0,0.0,0.0,0.0,0.0,0.0,0.0,0.0,0.0,0.0,0.0,0.0,0.0,0.0,0.0,0.0,0.0,0.0,0.0,0.0,0.0,0.0,0.0,0.0,0.0,0.0,-1.1741,-1.3223,-1.5236,-1.7601,-2.0233,-2.0117,-1.9518,-2.1276,-2.0252,-1.865,-1.8894,-1.6794,-1.4249,-1.2656,-0.8851,-0.5282,-0.3692,-0.1597,0.0168,0.0841,0.4111,0.6453,0.5533,0.7956,0.9462,0.7873,0.7118,0.6376,0.0,0.0,0.98,0.9049,1.1839,1.3865,1.4122,1.4238,1.3224,1.0806,0.8397,0.679,0.6079,0.215,0.0,0.0,0.0,0.0,0.0,0.0,0.0,0.0,0.0,0.0,0.0,0.0,0.0,0.0,0.0,0.0,0.0,0.0,0.0,0.0,0.0,0.0,0.0269,0.0,0.0,0.0,0.0,0.0,0.0,0.0,0.0,0.0,0.0,0.0,0.0,0.0,0.0,0.0,0.0,0.0,0.0,0.0,0.0,0.0,0.0,0.0,0.0,0.0,0.0,0.0,0.0,0.0,0.0,0.0,0.0,0.0,0.0,0.0,0.0,0.0,0.0,0.0,0.0,0.0,0.0,0.0,0.0,0.0,0.0,0.0,0.0,0.0,0.0,0.0,0.0,0.0,-1.1118,-1.3793,-1.766,-1.9141,-1.9473,-1.9553,-1.8114,-1.6647,-1.6647,-1.3342,-1.0044,-1.0044,-0.6533,-0.3358,-0.3358,-0.1597,0.0673,0.2939,0.5198,0.7455,0.9628,1.0044,1.0044,0.9961,0.8123,0.757,0.0,0.0,1.1198,1.3475,1.3973,1.4129,1.4285,1.4299,1.3224,1.0806,0.8397,0.6079,0.3669,0.1255,0.0,0.0,0.0,0.0,0.0,0.0,0.0,0.0,0.0,0.0,0.0,0.0,0.0,0.0,0.0,0.0,0.0,0.0,0.0,0.0,0.0,0.0,0.0,0.0,0.0,0.0,0.0,0.0,0.0,0.0,0.0,0.0,0.0,0.0,0.0,0.0,0.0,0.0,0.0,0.0,0.0,0.0,0.0,0.0,0.0,0.0,0.0,0.0,0.0,0.0,0.0,0.0,0.0,0.0,0.0,0.0,0.0,0.0,0.0,0.0,0.0,0.0,0.0,0.0,0.0,0.0,0.0,0.0,0.0,0.0,0.0,0.0,0.0,0.0,0.0,0.0,0.0,0.0,-1.003,-1.2708,-1.5338,-1.5283,-1.3699,-1.2109,-1.2109,-0.9946,-0.7368,-0.5867,-0.436,-0.2855,-0.1346,-0.0505,0.0673,0.2939,0.5198,0.7452,0.9711,1.1386,1.1801,1.0211,0.0,0.0,0.8073,0.8023,0.8974,0.0,0.0,1.0052,1.1699,1.1876,1.0806,0.8397,0.7506,0.5987,0.3669,0.1256,0.0,0.0,0.0,0.0,0.0,0.0,0.0,0.0,0.0,0.0,0.0,0.0,0.0,0.0,0.0,0.0,0.0,0.0,0.0,0.0,0.0,0.0,0.0,0.0,0.0,0.0,0.0,0.0,0.0,0.0,-0.0471,0.0,0.0,0.0,0.0,0.0,0.0,0.0,0.0,0.0,0.0,0.0,0.0,0.0,0.0,0.0,0.0,0.0,0.0,0.0,0.0,0.0,0.0,0.0,0.0,0.0,0.0,0.0,0.0,0.0,0.0,0.0,0.0,0.0,0.0,0.0,0.0,0.0,0.0,0.0,0.0,0.0,0.0,0.0,0.0,0.0,0.0,0.0,0.0,-0.7921,-1.0876,-1.0837,-0.977,-0.879,-0.879,-0.7118,0.0,-0.3692,-0.2687,-0.1681,-0.0253,0.0,0.0925,0.4111,0.5784,0.7706,1.0798,1.2478,1.2644,1.0377,1.008,0.0,0.7138,0.0,0.0,0.9105,0.7917,0.8129,1.054,0.9824,0.8664,0.7146,0.6255,0.4651,0.233,0.0807,0.0,0.0,0.0,0.0,0.0,0.0,0.0,0.0,0.0,0.0,0.0,0.0,0.0,0.0,0.0,0.0,0.0,0.0,0.0,0.0,0.0,0.0,0.0,0.0,0.0,0.0,0.0,0.0,0.0,0.0,-0.1478,-0.0404,-0.0404,-0.0404,-0.0404,-0.0404,-0.0404,-0.0404,-0.0404,-0.0404,0.0,0.0,0.0,0.0,0.0,0.0,0.0,0.0,0.0,0.0,0.0,0.0,0.0,0.0,0.0,0.0,0.0,0.0,0.0,0.0,0.0,0.0,0.0,0.0,0.0,0.0,0.0,0.0,0.0,0.0,0.0,0.0,0.0,0.0,0.0,0.0,0.0,0.0,0.0,0.0,0.0,0.0,-0.6366,-0.6449,-0.6449,-0.4779,-0.3107,-0.3107,-0.1513,0.0,0.0,0.0,0.1346,0.57,0.6449,0.7956,1.2395,1.2989,1.2241,1.0143,0.9741,0.0,0.0,0.6748,0.6879,0.6879,0.67,0.7595,1.0002,0.8308,0.7057,0.6879,0.4919,0.2687,0.009,0.0,0.0,0.0,0.0,0.0,0.0,0.0,0.0,0.0,0.0,0.0,0.0,0.0,0.0,0.0,0.0,0.0,0.0,0.0,0.0,0.0,0.0,0.0,0.0,0.0,0.0,0.0,0.0,0.0,0.0,0.0,0.0,0.0,0.0,-0.4158,-0.4158,-0.4158,-0.4158,-0.4158,0.0,0.0,0.0,0.0,0.0,0.0,0.0,0.0,0.0,0.0,0.0,0.0,0.0,0.0,0.0,0.0,0.0,0.0,0.0,0.0,0.0,0.0,0.0,0.0,0.0,0.0,0.0,0.0,0.0,0.0,0.0,0.0,0.0,0.0,0.0,0.0,0.0,0.0,0.0,0.0,0.0,-0.1167,-0.1597,-0.1597,0.0,-0.4195,-0.4195,-0.2436,-0.0757,0.0,-0.0421,0.0,0.0,0.0,0.0841,0.3692,0.4111,0.5533,1.0044,0.9361,0.8057,0.755,0.6126,0.0,0.4399,0.4444,0.4383,0.4383,0.2776,0.2687,0.5097,0.6433,0.6347,0.4561,0.5633,0.4383,0.009,0.0,0.0,0.0,0.0,0.0,0.0,0.0,0.0,0.0,0.0,0.0,0.0,0.0,0.0,0.0,0.0,0.0,0.0,0.0,0.0,0.0,0.0,0.0,0.0,0.0,0.0,0.0,0.0,0.0,0.0,0.0,0.0,0.0,0.0,-0.5429,-0.5429,-0.5429,-0.5429,0.0,0.0,0.0,0.0,0.0,0.0,0.0,0.0,0.0,-0.168,-0.0067,-0.0812,-0.0815,0.0,0.0,0.0,0.0,0.0,0.0,0.0,0.0,0.0,0.0,0.0,0.0,0.0,0.0,0.0,0.0,0.0,0.0,0.0,0.0,0.0,0.0,0.0,0.0,0.0,0.0,0.0,0.0,0.0,0.0,0.0,0.0,-0.0925,-0.1849,-0.1849,-0.0925,0.0,0.0,0.0,0.0,0.0,0.0,0.0673,0.2939,0.3358,0.4453,0.7925,0.7465,0.6754,0.0,0.0,0.2385,0.3459,0.2588,0.1971,0.1971,0.0807,0.0987,0.3403,0.3759,0.3759,0.358,0.3759,0.2687,0.009,0.0,0.0,0.0,0.0,0.0,0.0,0.0,0.0,0.0,0.0,0.0,0.0,0.0,0.0,0.0,0.0,0.0,0.0,0.0,0.0,0.0,0.0,0.0,0.0,0.0,0.0,0.0,0.0,0.0,0.0,0.0,0.0,0.0,0.0,0.0,0.0,0.0,0.0,0.0,0.0,0.0,0.0,0.0,0.0,0.0,0.0,-0.4766,-0.3828,-0.0472,-0.1909,-0.1786,0.0,0.0,0.0,0.0,0.0,0.0,0.0,0.0,0.0,0.0,0.0,0.0,0.0,0.0,0.0,0.0,0.0,0.0,0.0,0.0,0.0,0.0,0.0,0.0,0.0,0.0,0.0,0.0,0.0,0.0,0.0,0.0,0.0,0.0,0.0,0.0,0.0,0.0,0.0,0.0,0.0,0.0,0.0589,0.252,0.2859,0.363,0.5787,0.6151,0.612,0.5893,0.2474,0.0799,0.2773,0.1256,0.0,0.0,0.0,0.0807,0.2866,0.1524,0.1255,0.2955,0.1434,0.0359,0.0,0.0,0.0,0.0,0.0,0.0,0.0,0.0,0.0,0.0,0.0,0.0,0.0,0.0,0.0,0.0,0.0,0.0,0.0,0.0,0.0,0.0,0.0,0.0,0.0,0.0,0.0,0.0,0.0,0.0,0.0,0.0,0.0,0.0,0.0,0.0,0.0,0.0,0.0,0.0,0.0,0.0,0.0,0.0,0.0,0.0,-0.7491,-0.6136,-0.4451,-0.2323,-0.2533,-0.1793,0.0,0.0,0.0,0.0,0.0,0.0,0.0,0.0,0.0,0.0,0.0,0.0,0.0,0.0,0.0,0.0,0.0,0.0,0.0,0.0,0.0,0.0,0.0,0.0,0.0,0.0,0.0,0.0,0.0,0.0,0.0,0.0,0.0,0.0,0.0,0.0,0.0,0.0,0.0,0.0,0.0,0.0,0.0084,0.0421,0.0509,0.128,0.3498,0.381,0.317,0.1339,0.0448,0.0179,0.0538,0.0269,0.0,0.0,0.0,0.018,0.0538,0.2061,0.233,0.0628,0.215,0.215,0.009,0.0,0.0,0.0,0.0,0.0,0.0,0.0,0.0,0.0,0.0,0.0,0.0,0.0,0.0,0.0,0.0,0.0,0.0,0.0,0.0,0.0,0.0,0.0,0.0,0.0,0.0,0.0,0.0,0.0,0.0,0.0,0.0,0.0,0.0,0.0,0.0,0.0,0.0,0.0,0.0,0.0,0.0,0.0,0.0,-1.0463,-0.9709,-0.8968,-0.721,-0.4428,-0.5361,-0.4978,-0.3109,-0.2078,-0.1588,-0.1516,-0.0509,0.0,0.0,0.0,0.0,0.0,0.0,0.0,0.0,0.0,0.0,0.0,0.0,0.0,0.0,0.0,0.0,0.0,0.0,0.1828,0.1761,0.1793,0.0,0.0,0.0,0.0,0.0,0.1513,0.0925,0.0253,0.1513,0.0925,0.0,0.0,0.0,0.0,0.0,0.0,0.0,0.0,0.0,0.0341,0.1377,0.1492,0.1604,0.1881,0.0807,0.0449,0.1793,0.0807,0.0,0.0,0.0,0.0,0.0,0.0987,0.1166,0.009,0.1076,0.1166,0.0,0.0,0.0,0.0,0.0,0.0,0.0,0.0,0.0,0.0,0.0,0.0,0.0,0.0,0.0,0.0,0.0,0.0,0.0,0.0,0.0,0.0,0.0,0.0,0.0,0.0,0.0,0.0,0.0,0.0,0.0,0.0,0.0,0.0,0.0,0.0,0.0,0.0,0.0,0.0,0.0,0.0,0.0,0.0,-1.0914,-1.0948,-1.105,-1.1158,-0.9741,-0.6519,-0.7781,-0.762,-0.5794,-0.4338,-0.356,-0.356,-0.2039,-0.1093,-0.0656,-0.0656,-0.0438,0.0,0.0,0.0,0.0,0.0,0.0,0.0,0.0,0.0,0.0,0.0,0.0,0.0,0.0,0.0,0.0,0.0,0.0,0.0,0.1928,0.1597,0.1933,0.3692,0.2939,0.1849,0.3023,0.1597,0.0,0.0,0.0,0.0,0.0,0.0,0.0,0.0,0.0,0.0,0.0,0.0,0.0628,0.2507,0.1166,0.0718,0.2509,0.1166,0.0,0.0,0.0,0.0,0.0,0.0,0.0,0.0,0.0,0.0,0.0,0.0,0.0,0.0,0.0,0.0,0.0,0.0,0.0,0.0,0.0,0.0,0.0,0.0,0.0,0.0,0.0,0.0,0.0,0.0,0.0,0.0,0.0,0.0,0.0,0.0,0.0,0.0,0.0,0.0,0.0,0.0,0.0,0.0,0.0,0.0,0.0,0.0,0.0,0.0,0.0,0.0,0.0,0.0,-1.1063,-1.1212,-1.1355,-1.1369,-1.0447,-0.8379,-0.8454,-0.7585,-0.5801,-0.566,-0.5591,-0.5591,-0.5446,-0.4431,-0.2691,-0.2691,-0.1685,0.0,0.0,0.0,0.0,0.0,0.0,0.0,0.0,0.0,0.0,0.0,0.0,0.0,0.0,0.0,0.0,0.0,0.0,0.3772,0.5697,0.6199,0.6285,0.6453,0.6366,0.5784,0.3776,0.1597,0.0,0.0,0.0,0.0,0.0,0.0,0.0,0.0,0.0,0.0,0.0,0.0,0.009,0.0269,0.009,0.009,0.0269,0.009,0.0,0.0,0.0,0.0,0.0,0.0,0.0,0.0,0.0,0.0,0.0,0.0,0.0,0.0,0.0,0.0,0.0,0.0,0.0,0.0,0.0,0.0,0.0,0.0,0.0,0.0,0.0,0.0,0.0,0.0,0.0,0.0,0.0,0.0,0.0,0.0,0.0,0.0,0.0,0.0,0.0,0.0,0.0,0.0,0.0,0.0,0.0,0.0,0.0,0.0,0.0,0.0,0.0,0.0,-1.1219,-1.1335,-1.1389,-1.1484,-1.1168,-1.0441,-1.0441,-1.0108,-0.9435,-0.8198,-0.6966,-0.5808,-0.5808,-0.5468,-0.4847,-0.4847,-0.3777,-0.1952,-0.1952,-0.1211,0.0,0.0,0.0,0.0,0.0,0.0,0.0,0.0,0.0,0.0,0.0,0.2778,0.2631,0.5725,0.6096,0.5616,0.6449,0.67,0.67,0.67,0.57,0.436,0.3608,0.1681,0.0,0.0,0.0,0.0,0.0,0.0,0.0,0.0,0.0,0.0,0.0,0.0,0.0,0.0,0.0,0.0,0.0,0.0,0.0,0.0,0.0,0.0,0.0,0.0,0.0,0.0,0.0,0.0,0.0,0.0,0.0,0.0,0.0,0.0,0.0,0.0,0.0,0.0,0.0,0.0,0.0,0.0,0.0,0.0,0.0,0.0,0.0,0.0,0.0,0.0,0.0,0.1037,0.2353,0.0,0.0,0.0,0.0,0.0,0.0,0.0,0.0,0.0,0.0,0.0,0.0,0.0,0.0,0.0,0.0,0.0,0.0,-1.1226,-1.1382,-1.1463,-1.1463,-1.1565,-1.1619,-1.1619,-1.1619,-1.1619,-1.1619,-1.0305,-0.8941,-0.7665,-0.7665,-0.7422,-0.6989,-0.6989,-0.5917,-0.41,-0.3417,-0.2297,-0.093,-0.0233,0.0,0.0,0.0,0.0,0.0,0.0,0.0,0.0,0.0,0.3383,0.3886,0.6843,0.7706,0.7873,0.8624,0.829,0.7706,0.7789,0.6115,0.4195,0.3524,0.2184,0.0841,0.0168,0.0,0.0,0.0,0.0,0.0,0.0,0.0,0.0,0.0,0.0,0.0,0.0,0.0,0.0,0.0,0.0,0.0,0.0,0.0,0.0,0.0,0.0,0.0,0.0,0.0,0.0,0.0,0.0,0.0,0.0,0.0,0.0,0.0,0.0,0.0,0.0,0.0,0.0,0.0,0.0,0.0,0.0,0.0,0.0,0.0,0.0,0.0,0.0095,0.0858,0.2285,0.3898,0.0,0.0,0.0,0.0,0.0,0.0,0.0,0.0,0.0,0.0,0.0,0.0,0.0,0.0,0.0,0.0,0.0,0.0,-1.1396,-1.1538,-1.1619,-1.1619,-1.1619,-1.1619,-1.1619,-1.1619,-1.1619,-1.1619,-1.1619,-1.1694,-1.183,-1.183,-1.0866,-0.9185,-0.9185,-0.8115,-0.6145,-0.3999,-0.3099,-0.2897,-0.0863,0.0,0.0,0.0,0.0,0.0,0.0,0.0,0.0,0.0,0.3302,0.4133,0.8593,0.9961,1.0377,1.2727,1.1801,1.0044,1.0044,0.8373,0.6118,0.3944,0.3357,0.2687,0.0505,0.0,0.0,0.0,0.0,0.0,0.0,0.0,0.0,0.0,0.0,0.0,0.0,0.0,0.0,0.0,0.0,0.0,0.0,0.0,0.0,0.0,0.0,0.0,0.0,0.0,0.0,0.0,0.0,0.0,0.0,0.0,0.0,0.0,0.0,0.0,0.0,0.0,0.0,0.0,0.0,0.0,0.0,0.0,0.0,0.0,0.0,0.0,0.0382,0.2855,0.3803,0.4278,0.0,0.0,0.0,0.0,0.0,0.0,0.0,0.0,0.0,0.0,0.0,0.0,0.0,0.0,0.0,0.0,0.0,0.0,-1.1545,-1.1592,-1.1619,-1.1619,-1.1619,-1.1619,-1.1619,-1.1619,-1.1619,-1.1619,-1.1721,-1.1789,-1.183,-1.1945,-1.1008,-0.9228,-0.9228,-0.7298,-0.3968,-0.3348,-0.2265,-0.0863,-0.0236,0.0,0.0,0.0,0.0,0.0,0.0,0.0,0.0,0.0,0.0,0.0,0.6276,0.7702,0.8457,1.2305,1.1807,0.9711,0.8123,0.6035,0.3776,0.1597,0.1009,0.0842,0.0168,0.0,0.0,0.0,0.0,0.0,0.0,0.0,0.0,0.0,0.0,0.0,0.0,0.0,0.0,0.0,0.0,0.0,0.0,0.0,0.0,0.0,0.0,0.0,0.0,0.0,0.0,0.0,0.0,0.0,0.0,0.0,0.0,0.0,0.0,0.0,0.0,0.0,0.0,0.0,0.0,0.0,0.0,0.0,0.0,0.0,0.0,0.1048,0.276,0.3518,0.6079,0.9299,0.0,0.0,0.0,0.0,0.0,0.0,0.0,0.0,0.0,0.0,-1.0826,-1.09,0.0,0.0,0.0,0.0,0.0,0.0,0.0,-1.1619,-1.1619,-1.1619,-1.1619,-1.1619,-1.1619,-1.1674,-1.1701,-1.1701,-1.1789,-1.1891,-1.2013,-1.2108,-1.1611,-1.0508,-0.9659,-0.7911,-0.5471,-0.3834,-0.2356,-0.1185,-0.0316,0.0,0.0,0.0,0.0,0.0,0.0,0.0,0.0,0.0,0.0,0.0,0.5533,0.7288,0.854,1.1303,1.0466,0.829,0.5948,0.3692,0.1681,0.0337,0.0,0.0,0.0,0.0,0.0,0.0,0.0,0.0,0.0,0.0,0.0,0.0,0.0,0.0,0.0,0.0,0.0,0.0,0.0,0.0,0.0,0.0,0.0,0.0,0.0,0.0,0.0,0.0,0.0,0.0,0.0,0.0,0.0,0.0,0.0,0.0,0.0,0.0,0.0,0.0,0.0,0.0,0.0,0.0,0.0,0.0,0.0,0.0,0.0,0.1524,0.3898,0.4941,0.788,1.1579,0.0,0.0,0.0,0.0,0.0,0.0,0.0,0.0,0.0,0.0,-1.0914,-1.1036,0.0,0.0,0.0,0.0,0.0,0.0,0.0,-1.1619,-1.1619,-1.1619,-1.1633,-1.164,-1.164,-1.1775,-1.1857,-1.187,-1.187,-1.2013,-1.2291,-1.2305,-1.2303,-1.2108,-1.023,-0.9221,-0.8604,-0.4698,-0.3,-0.2635,-0.08,0.0,0.0,0.0,0.0,0.0,0.0,0.0,0.0,0.0,0.0,0.0,0.5951,0.8123,0.9795,1.0044,0.8457,0.6199,0.3944,0.1681,0.0,0.0,0.0,0.0,0.0,0.0,0.0,0.0,0.0,0.0,0.0,0.0,0.0,0.0,0.0,0.0,0.0,0.0,0.0,0.0,0.0,0.0,0.0,0.0,0.0,0.0,0.0,0.0,0.0,0.0,0.0,0.0,0.0,0.0,0.0,0.0,0.0,0.0,0.0,0.0,0.0,0.0,0.0,0.0,0.0,0.0,0.0,0.0,0.0,0.0,0.0286,0.1905,0.4466,0.7027,0.9582,1.2051,0.0,0.0,0.0,0.0,0.0,0.0,0.0,0.0,0.0,0.0,0.0,0.0,0.0,0.0,0.0,0.0,0.0,0.0,0.0,-1.1619,-1.1619,-1.1619,-1.1728,-1.1782,-1.1782,-1.1932,-1.2074,-1.2189,-1.2189,-1.2223,-1.2291,-1.2406,-1.1612,-1.0075,-0.9609,-0.7537,-0.4361,-0.3492,-0.216,-0.0648,-0.0162,0.0,0.0,0.0,0.0,0.0,0.0,0.0,0.0,0.0,0.0,0.0,0.5449,0.7034,0.7785,0.9545,0.8457,0.6199,0.3944,0.1681,0.0,0.0,0.0,0.0,0.0,0.0,0.0,0.0,0.0,0.0,0.0,0.0,0.0,0.0,0.0,0.0,0.0,0.0,0.0,0.0,0.0,0.0,0.0,0.0,0.0,0.0,0.0,0.0,0.0,0.0,0.0,0.0,0.0,0.0,0.0,0.0,0.0,0.0,0.0,0.0,0.0,0.0,0.0,0.0,0.0,0.0,0.0,0.0,0.0,0.0191,0.219,0.4563,0.7122,0.9681,1.2239,1.4422,0.0,0.0,0.0,0.0,0.0,0.0,0.0,0.0,0.0,0.0,0.0,0.0,0.0,0.0,0.0,0.0,0.0,0.0,0.0,0.0,-1.1647,-1.1714,-1.1789,-1.1864,-1.1938,-1.2094,-1.221,-1.2291,-1.2359,-1.2393,-1.2393,-1.2467,-1.1953,-1.0862,-0.9901,-0.8304,-0.6049,-0.4086,-0.259,-0.1557,-0.041,0.0,0.0,0.0,0.0,0.0,0.0,0.0,0.0,0.0,0.0,0.0,0.0,0.0,0.7118,0.9378,0.8457,0.6199,0.3944,0.1681,0.0,0.0,0.0,0.0,0.0,0.0,0.0,0.0,0.0,0.0,0.0,0.0,0.0,0.0,0.0,0.0,0.0,0.0,0.0,0.0,0.0,0.0,0.0,0.0,0.0,0.0,0.0,0.0,0.0,0.0,0.0,0.0,0.0,0.0,0.0,0.0,0.0,0.0,0.0,0.0,0.0,0.0,0.0,0.0,0.0,0.0,0.0,0.0,0.0,0.0095,0.1429,0.352,0.5984,0.7311,1.0153,1.3375,0.0,0.0,0.0,0.0,0.0,0.0,0.0,0.0,0.0,0.0,0.0,0.0,0.0,0.0,0.0,0.0,0.0,0.0,0.0,0.0,0.0,-1.1864,-1.1898,-1.1972,-1.2101,-1.225,-1.2325,-1.2325,-1.244,-1.2501,-1.2501,-1.2501,-1.2515,-1.2464,-1.0847,-0.9967,-0.9367,-0.5581,-0.3684,-0.3145,-0.0913,0.0,0.0,0.0,0.0,0.0,0.0,0.0,0.0,0.0,0.0,0.0,0.0,0.0,0.6951,0.8457,0.7873,0.6115,0.3441,0.1429,0.0,0.0,0.0,0.0,0.0,0.0,0.0,0.0,0.0,0.0,0.0,0.0,0.0,0.0,0.0,0.0,0.0,0.0,0.0,0.0,0.0,0.0,0.0,0.0,0.0,0.0,0.0,0.0,0.0,0.0,0.0,0.0,0.0,0.0,0.0,0.0,0.0,0.0,0.0,0.0,0.0,0.0,0.0,0.0,0.0,0.0,0.0,0.0,0.0,0.0,0.0477,0.1905,0.3898,0.4751,0.7785,1.148,0.0,0.0,0.0,0.0,0.0,0.0,0.0,0.0,0.0,0.0,-1.1592,0.0,0.0,0.0,0.0,0.0,0.0,0.0,0.0,0.0,0.0,-1.2026,-1.2155,-1.2237,-1.2257,-1.24,-1.2474,-1.2474,-1.2494,-1.2501,-1.2501,-1.2501,-1.2569,-1.2619,-1.2403,-1.134,-0.9586,-0.714,-0.5049,-0.3099,-0.0923,0.0,0.0,0.0,0.0,0.0,0.0,0.0,0.0,0.0,0.0,0.0,0.0,0.0,0.6369,0.4779,0.5449,0.5784,0.1597,0.0,0.0,0.0,0.0,0.0,0.0,0.0,0.0,0.0,0.0,0.0,0.0,0.0,0.0,0.0,0.0,0.0,0.0,0.0,0.0,0.0,0.0,0.0,0.0,0.0,0.0,0.0,0.0,0.0,0.0,0.0,0.0,0.0,0.0,0.0,0.0,0.0,0.0,0.0,0.0,0.0,0.0,0.0,0.0,0.0,0.0,0.0,0.0,0.0,0.0,0.0191,0.2475,0.3518,0.4371,0.8731,1.0819,1.1673,0.0,0.0,0.0,0.0,0.0,0.0,0.0,0.0,0.0,0.0,0.0,-1.1619,0.0,0.0,0.0,0.0,0.0,0.0,0.0,0.0,0.0,-1.2182,-1.2257,-1.2325,-1.2406,-1.2467,-1.2501,-1.2501,-1.2501,-1.2549,-1.263,-1.263,-1.2664,-1.2739,-1.2901,-1.2479,-1.161,-0.9448,-0.7251,-0.503,-0.2771,-0.1933,-0.1765,-0.0505,-0.0757,-0.1681,-0.0421,0.0,0.0,0.0,0.0,0.0421,0.2687,0.0,0.0,0.0,0.503,0.4111,0.0925,0.0,0.0,0.0,0.0,0.0,0.0,0.0,0.0,0.0,0.0,0.0,0.0,0.0,0.0,0.0,0.0,0.0,0.0,0.0,0.0,0.0,0.0,0.0,0.0,0.0,0.0,0.0,0.0,0.0,0.0,0.0,0.0,0.0,0.0,0.0,0.0,0.0,0.0,0.0,0.0,0.0,0.0,0.0,0.0,0.0,0.0,0.0,0.0,0.0,0.0,0.0095,0.1239,0.1715,0.2095,0.5795,0.8069,0.9681,0.0,0.0,0.0,0.0,0.0,0.0,0.0,0.0,0.0,0.0,0.0,0.0,0.0,0.0,0.0,0.0,0.0,0.0,0.0,0.0,0.0,-1.2338,-1.2345,-1.2393,-1.2501,-1.2501,-1.2501,-1.2501,-1.2542,-1.2617,-1.2732,-1.2807,-1.284,-1.2854,-1.3071,-1.3193,-1.307,-1.1009,-0.879,-0.6533,-0.4863,-0.386,-0.3191,-0.1513,-0.1849,-0.3023,-0.0842,0.0,0.0,0.0,0.0,0.0337,0.2016,0.2939,0.0,0.0,0.0,0.2184,0.0,0.0,0.0,0.0,0.0,0.0,0.0,0.0,0.0,0.0,0.0,0.0,0.0,0.0,0.0,0.0,0.0,0.0,0.0,0.0,0.0,0.0,0.0,0.0,0.0,0.0,0.0,0.0,0.0,0.0,0.0,0.0,0.0,0.0,0.0,0.0,0.0,0.0,0.0,0.0,0.0,0.0,0.0,0.0,0.0,0.0,0.0,0.0,0.0,0.0,0.0,0.0,0.0,0.0,0.0382,0.3615,0.5984,0.8069,0.0,0.0,0.0,0.0,0.0,0.0,0.0,0.0,0.0,0.0,0.0,0.0,-1.1619,-1.1619,-1.1619,-1.1619,-1.1742,0.0,0.0,0.0,0.0,-1.2481,-1.2488,0.0,-1.2501,-1.2501,-1.2501,-1.2501,-1.2651,-1.2725,-1.2732,-1.3017,-1.3152,-1.3152,-1.3166,-1.3254,-1.3224,-1.0965,-0.8707,-0.67,-0.6533,-0.5198,-0.3273,-0.3274,-0.3274,-0.3107,-0.0842,0.0,0.0,0.0,0.0,0.0,0.0168,0.1681,0.3023,0.0,0.0,0.0,0.0,0.0,0.0,0.0,0.0,0.0,0.0,0.0,0.0,0.0,0.0,0.0,0.0,0.0,0.0,0.0,0.0,0.0,0.0,0.0,0.0,0.0,0.0,0.0,0.0,0.0,0.0,0.0,0.0,0.0,0.0,0.0,0.0,0.0,0.0,0.0,0.0,0.0,0.0,0.0,0.0,0.0,0.0,0.0,0.0,0.0,0.0,0.0,0.0,0.0,0.0,0.0,0.0,0.0,0.0572,0.5605,0.7501,0.8349,0.0,0.0,0.0,0.0,0.0,0.0,0.0,0.0,0.0,0.0,0.0,0.0,0.0,-1.1701,-1.1755,-1.1755,-1.1986,0.0,0.0,0.0,0.0,-1.2501,-1.2501,-1.2501,-1.2501,-1.2501,-1.2501,-1.2501,-1.2657,-1.2779,-1.2881,-1.3078,-1.3227,-1.3315,-1.3315,-1.3349,-1.3231,-1.1048,-0.879,-0.67,-0.67,-0.6199,-0.5365,-0.386,-0.4279,-0.503,-0.1346,0.0,0.0,0.0,0.0,0.0,0.0,0.0589,0.1093,0.0253,0.0,0.0,0.0,0.0,0.0,0.0337,0.1093,0.1765,0.0337,0.0,0.0,0.0,0.0,0.0,0.0,0.0,0.0,0.0,0.0,0.0,0.0,0.0,0.0,0.0,0.0,0.0,0.0,0.0,0.0,0.0,0.0,0.0,0.0,0.0,0.0,0.0,0.0,0.0,0.0,0.0,0.0,0.0,0.0,0.0,0.0,0.0,0.0,0.0,0.0,0.0,0.0,0.0,0.0,0.0,0.0,0.0,0.0572,0.57,0.7595,0.8353,0.0,0.0,0.0,0.0,0.0,0.0,0.0,0.0,-1.1619,-1.1619,0.0,0.0,0.0,0.0,-1.187,-1.1979,-1.2169,-1.2311,-1.2359,-1.2447,-1.2501,-1.2501,-1.2501,-1.2501,-1.2501,-1.2454,-1.2481,-1.2576,-1.2678,-1.2834,-1.3037,-1.318,-1.3302,-1.3403,-1.3403,-1.3403,-1.3231,-1.1048,-0.879,-0.67,-0.67,-0.67,-0.6449,-0.4195,-0.4695,-0.6115,-0.1597,0.0,0.0,0.0,0.0,0.0,0.0,0.0,0.0,0.0,0.0,0.0,0.0,0.0,0.0,0.0,0.0,0.2939,0.1429,0.0,0.0,0.0,0.0,0.0,0.0,0.0,0.0,0.0,0.0,0.0,0.0,0.0,0.0,0.0,0.0,0.0,0.0,0.0,0.0,0.0,0.0,0.0,0.0,0.0,0.0,0.0,0.0,0.0,0.0,0.0,0.0,0.0,0.0,0.0,0.0,0.0,0.0,0.0,0.0,0.0,0.0,0.0,0.0,0.0,0.0,0.0477,0.181,0.6079,0.8164,0.9488,0.0,0.0,0.0,0.0,0.0,0.0,0.0,0.0,-1.1619,-1.1626,0.0,0.0,0.0,0.0,0.0,-1.2271,-1.2298,-1.2352,-1.2494,-1.2501,-1.2501,-1.2501,0.0,0.0,-1.2508,-1.2372,-1.2447,-1.2739,-1.2739,-1.2888,-1.3173,-1.3329,-1.3403,-1.3403,-1.3403,-1.3403,-1.3231,-1.1048,-0.879,-0.67,-0.6784,-0.67,-0.6369,-0.4279,-0.4779,-0.6035,-0.1597,0.0,0.0,0.0,0.0,0.0,0.0,0.0,0.0,0.0,0.0,0.0,0.0,0.0,0.0,0.0,0.0,0.0,0.3273,0.0,0.0084,0.0,0.0,0.0,0.0,0.0,0.0,0.0,0.0,0.0,0.0,0.0,0.0,0.0,0.0,0.0,0.0,0.0,0.0,0.0,0.0,0.0,0.0,0.0,0.0,0.0,0.0,0.0,0.0,0.0,0.0,0.0,0.0,0.0,0.0,0.0,0.0,0.0,0.0,0.0,0.0,0.0,0.0,0.0,0.0,0.1524,0.3993,0.6648,0.9204,1.1673,0.0,0.0,0.0,0.0,0.0,-0.8703,-0.8703,-1.0377,-1.1653,0.0,0.0,0.0,-1.1979,-1.2094,-1.2237,-1.2427,-1.244,-1.2461,-1.2501,-1.2501,-1.2501,-1.2501,-1.2501,-1.2556,-1.2664,-1.263,-1.2705,-1.2895,-1.2996,-1.3091,-1.3173,-1.3329,-1.3403,-1.3403,-1.3403,-1.3403,-1.3231,-1.1048,-0.879,-0.6871,-0.8457,-0.7205,-0.436,-0.5365,-0.5114,-0.386,-0.1009,0.0,0.0,0.0,0.0,0.0,0.0,0.0,0.0,0.0,0.0,0.0,0.0,0.0,0.0,0.0,0.0,0.0,0.0,0.0,0.1932,0.0337,0.0,0.0,0.0,0.0,0.0,0.0,0.0,0.0,0.0,0.0,0.0,0.0,0.0,0.0,0.0,0.0,0.0,0.0,0.0,0.0,0.0,0.0,0.0,0.0,0.0,0.0,0.0,0.0,0.0,0.0,0.0,0.0,0.0,0.0,0.0,0.0,0.0,0.0,0.0,0.0,0.0,0.0,0.0,0.0477,0.162,0.5984,0.8069,0.9299,0.0,0.0,0.0,0.0,-0.5663,-0.7485,-0.7597,-0.9942,-1.1762,0.0,0.0,0.0,-1.2142,-1.2291,-1.2413,-1.2494,-1.2501,-1.2501,-1.2501,-1.2501,-1.2528,-1.2596,-1.2596,-1.2671,-1.282,-1.2766,-1.2834,-1.3051,-1.3071,-1.3146,-1.3268,-1.3356,-1.3403,-1.3403,-1.3403,-1.3403,-1.3321,-1.2056,-1.0211,-0.804,-0.7455,-0.6199,-0.4695,-0.4111,-0.3692,-0.3023,-0.0757,0.0,0.0,0.0,0.0,0.0,0.0,0.0,0.0,0.0,0.0,0.0,0.0,0.0,0.0,0.0,0.0,0.0,0.4779,0.3273,0.1597,0.0,0.0,0.0,0.0,0.0,0.0,0.0,0.0,0.0,0.0,0.0,0.0,0.0,0.0,0.0,0.0,0.0,0.0,0.0,0.0,0.0,0.0,0.0,0.0,0.0,0.0,0.0,0.0,0.0,0.0,0.0,0.0,0.0,0.0,0.0,0.0,0.0,0.0,0.0,0.0,0.0,0.0,0.0,0.0,0.1334,0.352,0.6458,0.892,1.1192,0.0,0.0,-0.2039,-0.0292,-0.3207,-0.5846,-0.5991,-0.9329,-1.1911,0.0,-1.2176,-1.2162,-1.2298,-1.2427,-1.2501,-1.2501,-1.2515,-1.2528,-1.2528,-1.2542,-1.261,-1.2752,-1.2752,-1.2827,-1.2983,-1.2847,-1.2915,-1.32,-1.3071,-1.3146,-1.3403,-1.3403,-1.3403,-1.3403,-1.3403,0.0,-1.3403,-1.3403,-1.2139,-0.9711,-0.57,-0.4947,-0.5867,-0.1849,-0.1429,-0.2687,-0.0673,0.0,0.0,0.0,0.0,0.0,0.0,0.0,0.0,0.0,0.0,0.0,0.0,0.0,0.0,0.0,0.0,0.0,0.6032,0.3441,0.0589,0.0,0.0,0.0,0.0,0.0,0.0,0.0,0.0,0.0,0.0,0.0,0.0,0.0,0.0,0.0,0.0,0.0,0.0,0.0,0.0,0.0,0.0,0.0,0.0,0.0,0.0,0.0,0.0,0.0,0.0,0.0,0.0,0.0,0.0,0.0,0.0,0.0,0.0,0.0,0.0,0.0,0.0,0.0,0.0,0.2761,0.6838,0.7406,1.0437,1.4422,0.0,-0.0292,-0.0439,-0.0074,-0.3322,-0.5994,-0.5995,-0.9457,-1.2074,-1.2223,-1.2345,-1.2427,-1.2461,-1.2488,-1.2501,-1.2501,-1.2617,-1.2684,-1.2684,-1.28,-1.2888,-1.2915,-1.2915,-1.2983,-1.3125,-1.3105,-1.3173,-1.3356,-1.3329,-1.3342,-1.3403,-1.3403,-1.3403,-1.3403,-1.3403,-1.3403,-1.3403,-1.3403,-1.2139,-1.0044,-0.9128,-0.6871,-0.386,-0.3023,-0.1849,-0.0589,-0.0168,0.0,0.0,0.0,0.0,0.0,0.0,0.0,0.0,0.0,0.0,0.0,0.0,0.0,0.0,0.0,0.6369,0.0,0.4779,0.4779,0.4363,0.0,0.0,0.0,0.0,0.0,0.0,0.0,0.0,0.0,0.0,0.0,0.0,0.0,0.0,0.0,0.0,0.0,0.0,0.0,0.0,0.0,0.0,0.0,0.0,0.0,0.0,0.0,0.0,0.0,0.0,0.0,0.0,0.0,0.0,0.0,0.0,0.0,0.0,0.0,0.0,0.0,0.0,0.0,0.0,0.0572,0.2001,0.6079,0.8258,0.9677,0.0,0.0,0.0,0.0,-0.3291,-0.5995,-0.6149,-0.958,-1.223,-1.2379,-1.2461,-1.2528,-1.261,-1.2617,-1.2644,-1.2725,-1.28,-1.2847,-1.2847,-1.2915,-1.299,-1.3064,-1.3064,-1.3132,-1.3281,-1.3288,-1.3322,-1.3403,-1.3403,-1.3403,-1.3403,-1.3403,-1.3403,-1.3403,-1.3403,-1.3403,-1.3321,-1.2222,-1.1048,-0.9961,-0.8874,-0.6366,-0.3191,-0.21,-0.0925,0.0,0.0,0.0,0.0,0.0,0.0,0.0,0.0,0.0,0.0,0.0,0.0,0.0,0.0,0.0,0.0,0.4444,0.0,0.0,0.0,0.67,0.6035,0.3776,0.3357,0.3374,0.343,0.3455,0.3051,0.1951,0.1786,0.1345,0.018,0.0,0.0,0.0,0.0,0.0,0.0,0.0,0.0,0.0,0.0,0.0,0.0,0.0,0.0,0.0,0.0,0.0,0.0,0.0,0.0,0.0,0.0,0.0,0.0,0.0,0.0,0.0,0.0,0.0,0.0,0.0,0.0,0.0,0.0,0.0763,0.2381,0.6174,0.8447,1.0059,0.0,0.0,0.0,0.0,-0.3031,-0.5622,-0.6229,-0.9397,-1.1906,-1.241,-1.2528,-1.2589,-1.2718,-1.2759,-1.2827,-1.2949,-1.2983,-1.3003,-1.3003,-1.303,-1.3098,-1.3214,-1.3214,-1.3275,-1.3397,-1.3403,-1.3403,-1.3403,-1.3403,-1.3403,-1.3403,-1.3403,-1.3403,-1.3403,-1.2982,-1.2727,-1.2561,-1.0294,0.0,-0.8624,0.0,-0.4947,-0.3023,-0.0841,0.0,0.0,0.0,0.0,0.0,0.0,0.0,0.0,0.0,0.0,0.0,0.0,0.0,0.0,0.0,0.0,0.0,0.0,0.0,0.4779,0.0,0.0,0.0,0.0,0.0,0.0,0.0,0.0,0.0,0.0,0.0,0.0,0.0,0.0987,0.0,0.009,0.0,0.0,0.0,0.0,0.0,0.0,0.0,0.0,0.0,0.0,0.0,0.0,0.0,0.0,0.0,0.0,0.0,0.0,0.0,0.0,0.0,0.0,0.0,0.0,0.0,0.0,0.0,0.0,0.0,0.0,0.0,0.1524,0.4088,0.6645,0.9204,1.1768,0.0,0.0,0.0,0.0,-0.1921,-0.4083,-0.5997,-0.8265,-1.0374,-1.2263,-1.2617,-1.2712,-1.2725,-1.2854,-1.2942,-1.3043,-1.3078,-1.3146,-1.3146,-1.3275,-1.3356,-1.3376,-1.3376,-1.3383,-1.3403,-1.3403,-1.3403,-1.3403,-1.3403,-1.3403,-1.3403,-1.3403,-1.3403,-1.3314,-1.1386,-1.0466,-1.0211,-0.804,-0.5951,0.0,-0.3776,-0.3524,0.0,-0.0841,0.0,0.0,0.0,0.0,0.0,0.0,0.0,0.0,0.0,0.0,0.0,0.0,0.0,0.0,0.0,0.0,0.0,0.0,0.3524,0.0,0.0,0.0,0.3785,0.3907,0.0,0.0,0.0,0.0,0.0,0.0,0.0,0.0,0.6079,0.4472,0.2419,0.0269,0.0,0.0,0.0,0.0,0.0,0.0,0.0,0.0,0.0,0.0,0.0,0.0,0.0,0.0,0.0,0.0,0.0,0.0,0.0,0.0,0.0,0.0,0.0,0.0,0.0,0.0,0.0,0.0,0.0,0.0,0.0,0.1524,0.4088,0.6645,0.9204,1.1768,0.0,0.0,0.0,0.0,-0.1712,-0.3813,-0.5939,-0.8098,-0.9709,-1.0577,-1.0849,-1.0953,-1.1022,-1.2311,-1.3119,-1.3207,-1.3268,-1.3302,-1.3302,-1.3363,-1.3403,-1.3403,-1.3403,-1.3403,-1.3403,-1.3403,-1.3403,-1.3403,-1.2056,-1.1469,-1.1386,-1.0128,-0.9545,-0.9462,-0.854,-0.8123,-0.7956,-0.57,-0.4195,0.0,0.0,-0.1345,0.0,-0.0337,0.0,0.0,0.0,0.0,0.0,0.0,0.0,0.0,0.0,0.0,0.0,0.0,0.0,0.0,0.0,0.0,0.0,0.0,0.0,0.0,0.402,0.0,0.5733,0.0,0.0,0.0,0.0,0.0,0.0,0.0,0.8373,0.0,0.0,0.0,0.5276,0.0,0.0,0.0,0.018,0.0,0.0,0.0,0.0,0.0,0.0,0.0,0.0,0.0,0.0,0.0,0.0,0.0,0.074,0.2219,0.0661,0.0763,0.219,0.0668,0.0,0.0095,0.1524,0.219,0.2285,0.3805,0.4373,0.4373,0.4373,0.4183,0.4088,0.6645,0.9204,1.1768,0.0,0.0,0.0,0.0,-0.1724,-0.3838,-0.5968,-0.8067,-0.9397,-0.9427,-0.9607,-0.9952,-1.0688,-1.2213,-1.3281,-1.339,-1.3403,-1.3403,-1.3403,-1.3403,-1.3403,-1.3403,-1.3403,-1.3403,-1.3403,-1.281,-1.2478,-1.2478,-1.0211,-0.9124,-0.904,-0.7452,-0.67,-0.67,-0.6035,-0.5784,-0.5616,-0.3358,-0.2436,-0.2268,-0.0673,0.0,0.0,0.0,0.0,0.0,0.0,0.0,0.0,0.0,0.0,0.0,0.0,0.0,0.0,0.0,0.0,0.0,0.0,0.0,0.0,0.0,0.0,0.0,0.0,0.0,0.0,0.0,0.0,0.0,0.0,0.0,0.0,1.1954,0.0,1.0357,0.0,0.8486,0.0,0.0,0.0,0.0,0.0,0.0359,0.0,0.0,0.0,0.0,0.0,0.0,0.0,0.0,0.0,0.0359,0.0987,0.1007,0.231,0.4799,0.2923,0.3046,0.4751,0.295,0.2096,0.2191,0.3993,0.4846,0.4941,0.6835,0.7595,0.7595,0.7595,0.6932,0.6079,0.7974,1.0248,1.2716,0.0,0.0,0.0,0.0,-0.1724,-0.3848,-0.5957,-0.8032,-0.9422,-0.9612,-0.9718,-1.0612,0.0,0.0,-1.3397,-1.3403,-1.3403,-1.3403,-1.3403,-1.3403,-1.3403,-1.3403,-1.3403,-1.3403,-1.3403,-1.122,-1.0128,-1.0211,-0.7956,-0.6784,-0.6784,-0.6703,-0.67,-0.6617,-0.436,-0.3441,-0.3358,-0.1093,-0.0084,-0.0084,0.0,0.0,0.0,0.0,0.0,0.0,0.0,0.0,0.0,0.0,0.0,0.0,0.0,0.0,0.0,0.0,0.0,0.0,0.0,0.0,0.0,0.0087,0.0,0.0,0.0,0.0,0.4344,0.0,0.0,0.0,0.0,0.0,0.0,1.421,0.0,0.0,0.0,0.0,0.0,0.0,0.0,0.0,0.0,0.1345,0.0,0.0,0.0,0.0,0.0,0.0,0.0,0.0,0.0,0.1166,0.349,0.3657,0.4889,0.7276,0.7333,0.7406,0.7501,0.7406,0.7311,0.7406,0.7403,0.7501,0.7501,0.7595,0.7595,0.7595,0.7595,0.9015,1.1197,1.1291,1.2904,1.5087,0.0,0.0,0.0,0.0,0.0,-0.1752,-0.3862,-0.6078,0.0,0.0,-0.8925,0.0,0.0,-1.2446,-1.3403,-1.3403,-1.3403,-1.3403,-1.3403,-1.3403,-1.3403,-1.3403,-1.3403,-1.3403,-1.3403,-1.1137,-1.0044,-1.0044,-0.6282,-0.4444,-0.4444,-0.2939,-0.2268,-0.2268,-0.1429,-0.1093,0.0,0.0,0.0,0.0,0.0,0.0,0.0,0.0,0.0,0.0,0.0,0.0,0.0,0.0,0.0,0.0,0.0,0.0,0.0,0.0,0.0,0.0,0.0,0.0,0.0,0.0,0.0,0.0,0.0,0.0,0.0,0.0,0.0,0.0,0.0,0.0,0.0,1.2148,0.0,0.0,0.0,0.0,0.0,0.0,0.0,0.0,0.0,0.0,0.1703,0.009,0.0,0.0,0.0,0.0,0.0,0.0,0.0,0.1166,0.358,0.3748,0.5902,0.9853,0.8364,0.8447,1.0059,0.8353,0.7595,0.769,0.9393,1.0153,1.0248,1.1951,1.2616,1.2616,1.2616,1.3187,1.3664,1.2051,1.2999,1.5181,0.0,0.0,0.0,0.0,0.0,0.0,-0.2932,0.0,0.0,0.0,-0.8584,0.0,-1.1131,0.0,-1.3403,-1.3403,-1.3403,-1.3403,-1.3403,-1.3403,-1.3403,-1.3403,-1.2644,-1.2222,-1.2222,-0.9207,-0.7618,-0.7618,-0.3944,-0.2184,-0.2184,-0.0673,0.0,0.0,0.0,0.0,0.0,0.0,0.0,0.0,0.0,0.0,0.0,0.0,0.0,0.0,0.0,0.0,0.0,0.0,0.0,0.0,0.0,0.0,0.0,0.0,0.0,0.0,0.0,0.0,0.0,0.0,0.0,0.0,0.0,0.0,0.358,0.0,0.0,0.0,0.0,0.0,0.0,0.0,0.0,0.0,0.0,1.4299,0.0,0.0,0.0,0.0,0.0,0.3312,0.1703,0.009,0.0,0.0,0.0,0.0,0.0,0.0,0.0807,0.2419,0.4829,0.5933,0.8473,1.2432,1.0993,1.1192,1.2716,1.1003,1.0338,1.0432,1.2045,1.2716,1.2904,1.4516,1.5181,1.5181,1.5181,1.5181,1.4993,1.3375,1.3758,1.5181,0.0,0.0,0.0,0.0,-0.1614,-0.3015,-0.3132,0.0,-0.6618,0.0,-0.8874,-1.1048,-1.3148,-1.3403,-1.3403,-1.3403,-1.3403,-1.3403,-1.3403,-1.3403,-1.3314,0.0,-1.1137,-0.9961,-0.9961,0.0,0.0,-0.3273,-0.1093,0.0,0.0,0.0,0.0,0.0,0.0,0.0,0.0,0.0,0.0,0.0,0.0,0.0,0.0,0.0,0.0,0.0,0.0,0.0,0.0,0.0,0.0,0.0,0.0,0.0,0.0,0.0,0.0,0.0,0.0,0.0,0.0,0.0,0.0,0.0,0.0,0.1882,0.358,0.0,0.0,0.0,0.0,0.0,0.0,0.0,0.0,0.0,0.0,0.0,0.0,0.0,0.0,0.0,0.0,0.2866,0.009,0.0,0.0,0.0,0.0,0.0,0.0,0.0,0.233,0.474,0.7057,0.9844,1.2341,1.474,1.5038,1.5181,1.5181,1.5181,1.5181,1.5181,1.5181,1.5181,1.5181,1.5181,1.5181,1.5181,1.5181,1.5181,1.5181,1.5181,1.5181,1.5181,0.0,0.0,0.0,0.0,-0.0414,-0.1322,-0.3004,-0.5174,0.0,0.0,-1.1131,-1.2727,-1.3321,-1.3403,-1.3403,-1.3403,-1.3403,0.0,0.0,0.0,0.0,-1.1053,-1.0377,-0.9207,-0.7622,-0.4779,-0.3357,-0.3358,-0.1093,0.0,0.0,0.0,0.0,0.0,0.0,0.0,0.0,0.0,0.0,0.0,0.0,0.0,0.0,0.0,0.0,0.0,0.0,0.0,0.0,0.0,0.0,0.0,0.0,0.0,0.0,0.0,0.0,0.0,0.0,0.0,0.0,0.0,0.0,0.0,0.0,0.1882,0.3134,0.1255,0.4204,0.5987,0.2507,0.6168,0.9375,0.0,0.0,0.0,0.0,0.0,0.0,1.1876,0.0,0.0,0.0,0.4383,0.1971,0.018,0.0,0.0,0.0,0.0,0.0,0.0,0.233,0.474,0.7057,0.9844,1.2341,1.474,1.5038,1.5181,1.5181,1.5181,1.5181,1.5181,1.5181,1.5181,1.5181,1.5181,1.5181,1.5181,1.5181,1.5181,1.5181,1.5181,1.5181,1.5181,0.0,0.0,0.0,0.0,-0.0837,-0.1835,-0.3187,-0.5282,0.0,-0.9711,-1.1973,0.0,-1.3403,-1.3403,-1.3403,-1.3403,-1.3403,0.0,-1.3403,0.0,0.0,-1.0128,-0.8123,-0.6536,-0.5282,-0.3023,0.0,-0.1933,0.0,0.0,0.0,0.0,0.0,0.0,0.0,0.0,0.0,0.0,0.0,0.0,0.0,0.0,0.0,0.0,0.0,0.0,0.0,0.0,0.0,0.0,0.0,0.0,0.0,0.0,0.0,0.0,0.0,0.0,0.0,0.0,0.0,0.0,0.0,0.0,0.0,0.1076,0.1614,0.0269,0.215,0.3134,0.0538,0.3312,0.5901,0.0,0.0,0.0,0.0,0.0,0.0,0.0,0.7057,0.0,0.5544,0.3401,0.1434,0.009,0.0,0.0,0.0,0.0,0.0449,0.1524,0.2866,0.5276,0.8664,1.0388,1.2341,1.474,1.5038,1.5181,1.5181,1.5181,1.5181,1.5181,1.5181,1.5181,1.5181,1.5181,1.5181,1.5181,1.5181,1.5181,1.5181,1.5181,1.5181,1.5181,0.0,0.0,0.0,0.0,0.0,-0.3441,-0.3776,-0.57,-0.7956,-1.0128,0.0,-1.2982,-1.2982,-1.2727,-1.2561,-1.2561,-1.281,-1.281,-1.2561,-1.0965,-0.9795,-0.9212,-0.5449,-0.3191,-0.2939,-0.1009,0.0,0.0,0.0,0.0,0.0,0.0,0.0,0.0,0.0,0.0,0.0,0.0,0.0,0.0,0.0,0.0,0.0,0.0,0.0,0.0,0.0,0.0,0.0,0.0,0.0,0.0,0.0,0.0,0.0,0.0,0.0,0.0,0.0,0.0,0.0,0.0,0.0,0.0,0.0,0.0,0.0,0.0,0.0,0.0,0.0,0.0269,0.0,0.0,0.0,0.0,0.0,0.0,0.0,0.0,0.0,0.0,0.3134,0.1256,0.0,0.0,0.0,0.0,0.0,0.0,0.1076,0.349,0.3938,0.6079,1.018,1.1208,1.2523,1.4284,1.4852,1.5181,1.5181,1.5181,1.5181,1.5181,1.5181,1.5181,1.5181,1.5181,1.5181,1.5181,1.5181,1.5181,1.5181,1.5181,1.5181,1.5181,0.0,0.0,0.0,0.0,0.0,-0.4027,-0.5867,-0.804,-1.0211,-1.2478,-1.1469,-1.0632,-1.0632,-0.8957,-0.7869,-0.7869,-0.9545,0.0,0.0,0.0,0.0,-0.4612,-0.3692,-0.2436,-0.0673,-0.0168,0.0,0.0,0.0,0.0,0.0,0.0,0.0,0.0,0.0,0.0,0.0,0.0,0.0,0.0,0.0,0.0,0.0,0.0,0.0,0.0,0.0,0.0,0.0,0.0,0.0,0.0,0.0,0.0,0.0,0.0,0.0,0.0,0.0,0.0,0.0,0.0,0.0,0.0,0.0,0.0,0.0,0.0,0.0,0.0,0.0,0.1614,0.3759,0.0,0.0,0.0,0.0,0.0,0.0,0.0,0.0,0.2776,0.0,0.0,0.0,0.0,0.0,0.0,0.0,0.0,0.1076,0.349,0.5454,0.6879,0.7684,1.1938,1.3352,1.1878,1.4094,1.5181,1.5181,1.5181,1.5181,1.5181,1.5181,1.5181,1.5181,1.5181,1.5181,1.5181,1.5181,1.5181,1.5181,1.5181,1.5181,1.5181,0.0,0.0,0.0,0.0,0.0,-0.5867,-0.804,-0.9373,-1.0466,-1.1552,-1.0715,-0.9628,-0.8457,-0.7368,-0.67,-0.67,-0.7702,-0.7873,-0.6784,-0.6617,-0.5533,-0.3357,-0.2184,-0.1093,0.0,0.0,0.0,0.0,0.0,0.0,0.0,0.0,0.0,0.0,0.0,0.0,0.0,0.0,0.0,0.0,0.0,0.0,0.0,0.0,0.0,0.0,0.0,0.0,0.0,0.0,0.0,0.0,0.0,0.0,0.0,0.0,0.0,0.0,0.0,0.0,0.0,0.0,0.0,0.0,0.0,0.0,0.0,0.0,0.0,0.0,0.0,0.0987,0.2061,0.3224,0.3401,0.0,0.0,0.0,0.0,0.0,0.0,0.0,0.0,0.0,0.0,0.0,0.0,0.0,0.0,0.1166,0.2955,0.5365,0.6522,0.8308,1.0806,1.2215,1.2889,1.2986,1.4473,1.5181,1.5181,1.5181,1.5181,1.5181,1.5181,1.5181,1.5181,1.5181,1.5181,1.5181,1.5181,1.5181,1.5181,1.5181,1.5181,1.5181,0.0,-0.0337,0.0,0.0,-0.5616,-0.7873,-0.9124,-0.9795,-1.0128,-1.0044,-0.9207,-0.7956,-0.6202,-0.5533,-0.5282,-0.5282,-0.57,-0.5784,-0.5282,-0.4027,-0.3107,-0.2603,-0.0925,0.0,0.0,0.0,0.0,0.0,0.0,0.0,0.0,0.0,0.0,0.0,0.0,0.0,0.0,0.0,0.0,0.0,0.0,0.0,0.0,0.0,0.0,0.0,0.0,0.0,0.0,0.0,0.0,0.0,0.0,0.0,0.0,0.0,0.0,0.0,0.0,0.0,0.0,0.0,0.0,0.0,0.0,0.0,0.0,0.0,0.0,0.0,0.0,0.0,0.0,0.0,0.0,0.0,0.0,0.0,0.0,0.0,0.0,0.0,0.0,0.0,0.0,0.0,0.0,0.0,0.0,0.1793,0.3938,0.6255,0.6879,0.893,1.2774,1.2215,1.2615,1.4003,1.4759,1.5181,1.5181,1.5181,1.5181,1.5181,1.5181,1.5181,1.5181,1.5181,1.5181,1.5181,1.5181,1.5181,1.5181,1.5181,1.5181,1.5181,0.0,0.0,0.0,0.0,-0.6867,-0.9124,-0.7288,-0.879,-1.0044,-1.0044,-0.6449,-0.386,-0.3608,-0.1849,-0.0589,-0.0589,-0.2436,-0.2771,-0.0757,-0.2268,-0.2436,-0.0421,-0.0084,0.0,0.0,0.0,0.0,0.0,0.0,0.0,0.0,0.0,0.0,0.0,0.0,0.0,0.0,0.0,0.0,0.0,0.0,0.0,0.0,0.0,0.0,0.0,0.0,0.0,0.0,0.0,0.0,0.0,0.0,0.0,0.0,0.0,0.0,0.0,0.0,0.0,0.0,0.0,0.0,0.0,0.0,0.0,0.0,0.0,0.0,0.0,0.0,0.0,0.0,0.0,0.0,0.0,0.0,0.0,0.0,0.0,0.0,0.0,0.0,0.0,0.0,0.0,0.0,0.0,0.0,0.0179,0.1434,0.3848,0.599,0.7324,0.777,1.2119,1.3443,1.1603,1.4001,1.5181,1.5181,1.5181,1.5181,1.5181,1.5181,1.5181,1.5181,1.5181,1.5181,1.5181,1.5181,1.5181,1.5181,1.5181,1.5181,1.5181,0.0,-0.0673,-0.1765,-0.3107,-0.5951,-0.7706,-0.6867,-0.7452,-0.7535,-0.6199,-0.4444,-0.2855,-0.1429,-0.0505,0.0,0.0,-0.0842,-0.0925,-0.0084,-0.0841,-0.0925,0.0,0.0,0.0,0.0,0.0,0.0,0.0,0.0,0.0,0.0,0.0,0.0,0.0,0.0,0.0,0.0,0.0,0.0,0.0,0.0,0.0,0.0,0.0,0.0,0.0,0.0,0.0,0.0,0.0,0.0,0.0,0.0,0.0,0.0,0.0,0.0,0.0,0.0,0.0,0.0,0.0,0.0,0.0,0.0,0.0,0.0,0.0,0.0,0.0,0.0,0.0,0.0,0.0,0.0,0.0,0.0,0.0,0.0,0.0,0.0,0.0,0.0,0.0,0.0,0.0,0.0,0.0,0.0,0.2687,0.4027,0.358,0.8664,1.0717,0.9286,1.2855,1.4186,1.3358,1.4566,1.5181,1.5181,1.5181,1.5181,1.5181,1.5181,1.5181,1.5181,1.5181,1.5181,1.5181,1.5181,1.5181,1.5181,1.5181,1.5181,1.5181,0.0,-0.0505,-0.1513,-0.3107,-0.5198,-0.6449,-0.5784,-0.57,-0.4863,-0.2603,-0.2352,-0.1765,-0.0168,0.0,0.0,0.0,0.0,0.0,0.0,0.0,0.0,0.0,0.0,0.0,0.0,0.0,0.0,0.0,0.0,0.0,0.0,0.0,0.0,0.0,0.0,0.0,0.0,0.0,0.0,0.0,0.0,0.0,0.0,0.0,0.0,0.0,0.0,0.0,0.0,0.0,0.0,0.0,0.0,0.0,0.0,0.0,0.0,0.0,0.0,0.0,0.0,0.0,0.0,0.0,0.0,0.0,0.0,0.0,0.0,0.0,0.0,0.0,0.0,0.0,0.0,0.0,0.0,0.0,0.0,0.0,0.0,0.0,0.0,0.0,0.0,0.0,0.0,0.0269,0.0987,0.4204,0.5633,0.4651,1.0268,1.2414,1.0717,1.3403,1.474,1.474,1.5038,1.5181,1.5181,1.5181,1.5181,1.5181,1.5181,1.5181,1.5181,1.5181,1.5181,1.5181,1.5181,1.5181,1.5181,1.5181,1.5181,1.5181,0.0,-0.1765,-0.3273,-0.3273,-0.5198,-0.5951,-0.3692,-0.3357,-0.252,-0.0337,0.0,0.0,0.0,0.0,0.0,0.0,0.0,0.0,0.0,0.0,0.0,0.0,0.0,0.0,0.0,0.0,0.0,0.0,0.0,0.0,0.0,0.0,0.0,0.0,0.0,0.0,0.0,0.0,0.0,0.0,0.0,0.0,0.0,0.0,0.0,0.0,0.0,0.0,0.0,0.0,0.0,0.0,0.0,0.0,0.0,0.0,0.0,0.0,0.0,0.0,0.0,0.0,0.0,0.0,0.0,0.0,0.0,0.0,0.0,0.0,0.0,0.0,0.0,0.0,0.0,0.0,0.0,0.0,0.0,0.0,0.0,0.0,0.0,0.0,0.0,0.0,0.0,0.1076,0.3401,0.358,0.4651,0.6968,0.9464,1.0717,1.0717,1.3403,1.474,1.474,1.5038,1.5181,1.5181,1.5181,1.5181,1.5181,1.5181,1.5181,1.5181,1.5181,1.5181,1.5181,1.5181,1.5181,1.5181,1.5181,1.5181,1.5181,0.0,-0.0589,-0.1009,-0.1009,-0.2939,-0.3608,-0.1429,-0.2352,-0.252,-0.0337,0.0,0.0,0.0,0.0,0.0,0.0,0.0,0.0,0.0,0.0,0.0,0.0,0.0,0.0,0.0,0.0,0.0,0.0,0.0,0.0,0.0,0.0,0.0,0.0,0.0,0.0,0.0,0.0,0.0,0.0,0.0,0.0,0.0,0.0,0.0,0.0,0.0,0.0,0.0,0.0,0.0,0.0,0.0,0.0,0.0,0.0,0.0,0.0,0.0,0.0,0.0,0.0,0.0,0.0,0.0,0.0,0.0,0.0,0.0,0.0,0.0,0.0,0.0,0.0,0.0,0.0,0.0,0.0,0.0,0.0,0.0,0.0,0.0,0.0,0.0,0.0,0.0,0.1076,0.349,0.5097,0.6347,0.7057,1.1072,1.2325,1.0717,1.3403,1.474,1.474,1.5038,1.5181,1.5181,1.5181,1.5181,1.5181,1.5181,1.5181,1.5181,1.5181,1.5181,1.5181,1.5181,1.5181,1.5181,1.5181,1.5181,1.5181,0.0,0.0,0.0,0.0,-0.1178,-0.1597,-0.0253,-0.1178,-0.1597,-0.0168,0.0,0.0,0.0,0.0,0.0,0.0,0.0,0.0,0.0,0.0,0.0,0.0,0.0,0.0,0.0,0.0,0.0,0.0,0.0,0.0,0.0,0.0,0.0,0.0,0.0,0.0,0.0,0.0,0.0,0.0,0.0,0.0,0.0,0.0,0.0,0.0,0.0,0.0,0.0,0.0,0.0,0.0,0.0,0.0,0.0,0.0,0.0,0.0,0.0,0.0,0.0,0.0,0.0,0.0,0.0,0.0,0.0,0.0,0.0,0.0,0.0,0.0,0.0,0.0,0.0,0.0,0.0,0.0,0.0,0.0,0.0,0.0,0.0,0.0,0.0,0.0,0.0,0.1076,0.349,0.5811,0.7951,0.9735,1.2774,1.3584,1.2059,1.3771,1.474,1.474,1.5038,1.5181,1.5181,1.5181,1.5181,1.5181,1.5181,1.5181,1.5181,1.5181,1.5181,1.5181,1.5181,1.5181,1.5181,1.5181,1.5181,1.5181,0.0,0.0,0.0,0.0,0.0,0.0,0.0,0.0,0.0,0.0,0.0,0.0,0.0,0.0,0.0,0.0,0.0,0.0,0.0,0.0,0.0,0.0,0.0,0.0,0.0,0.0,0.0,0.0,0.0,0.0,0.0,0.0,0.0,0.0,0.0,0.0,0.0,0.0,0.0,0.0,0.0,0.0,0.0,0.0,0.0,0.0,0.0,0.0,0.0,0.0,0.0,0.0,0.0,0.0,0.0,0.0,0.0,0.0,0.0,0.0,0.0,0.0,0.0,0.0,0.0,0.0,0.0,0.0,0.0,0.0,0.0,0.0,0.0,0.0,0.0,0.0,0.0,0.0,0.0,0.0,0.0,0.0,0.0,0.0,0.0,0.0,0.0,0.1166,0.3669,0.5901,0.9197,1.3938,1.421,1.4299,1.4299,1.459,1.4753,1.4774,1.5052,1.5181,1.5181,1.5181,1.5181,1.5181,1.5181,1.5181,1.5181,1.5181,1.5181,1.5181,1.5181,1.5181,1.5181,1.5181,1.5181,1.5181,0.0,0.0,0.0,0.0,0.0,0.0,0.0,0.0,0.0,0.0,0.0,0.0,0.0,0.0,0.0,0.0,0.0,0.0,0.0,0.0,0.0,0.0,0.0,0.0,0.0,0.0,0.0,0.0,0.0,0.0,0.0,0.0,0.0,0.0,0.0,0.0,0.0,0.0,0.0,0.0,0.0,0.0,0.0,0.0,0.0,0.0,0.0,0.0,0.0,0.0,0.0,0.0,0.0,0.0,0.0,0.0,0.0,0.0,0.0,0.0,0.0,0.0,0.0,0.0,0.0,0.0,0.0,0.0,0.0,0.0,0.0,0.0,0.0,0.0,0.0,0.0,0.0,0.0,0.0,0.0,0.0,0.0,0.0,0.0,0.0,0.0,0.0,0.1793,0.6079,0.6793,0.8486,1.1433,1.3312,1.4299,1.4299,1.459,1.4855,1.5079,1.5147,1.5181,1.5181,1.5181,1.5181,1.5181,1.5181,1.5181,1.5181,1.5181,1.5181,1.5181,1.5181,1.5181,1.5181,1.5181,1.5181,1.5181,0.0,0.0,0.0,0.0,0.0,0.0,0.0,0.0,0.0,0.0,0.0,0.0,0.0,0.0,0.0,0.0,0.0,0.0,0.0,0.0,0.0,0.0,0.0,0.0,0.0,0.0,0.0,0.0,0.0,0.0,0.0,0.0,0.0,0.0,0.0,0.0,0.0,0.0,0.0,0.0,0.0,0.0,0.0,0.0,0.0,0.0,0.0,0.0,0.0,0.0,0.0,0.0,0.0,0.0,0.0,0.0,0.0,0.0,0.0,0.0,0.0,0.0,0.0,0.0,0.0,0.0,0.0,0.0,0.0,0.0,0.0,0.0,0.0,0.0,0.0,0.0,0.0,0.0,0.0,0.0,0.0,0.0,0.0,0.0,0.0,0.0,0.0,0.1614,0.5276,0.6522,0.8753,1.2237,1.3584,1.4299,1.4299,1.459,1.4889,1.5181,1.5181,1.5181,1.5181,1.5181,1.5181,1.5181,1.5181,1.5181,1.5181,1.5181,1.5181,1.5181,1.5181,1.5181,1.5181,1.5181,1.5181,1.5181,0.0,0.0,0.0,0.0,0.0,0.0,0.0,0.0,0.0,0.0,0.0,0.0,0.0,0.0,0.0,0.0,0.0,0.0,0.0,0.0,0.0,0.0,0.0,0.0,0.0,0.0,0.0,0.0,0.0,0.0,0.0,0.0,0.0,0.0,0.0,0.0,0.0,0.0,0.0,0.0,0.0,0.0,0.0,0.0,0.0,0.0,0.0,0.0,0.0,0.0,0.0,0.0,0.0,0.0,0.0,0.0,0.0,0.0,0.0,0.0,0.0,0.0,0.0,0.0,0.0,0.0,0.0,0.0,0.0,0.0,0.0,0.0,0.0,0.0,0.0,0.0,0.0,0.0,0.0,0.0,0.0,0.0,0.0,0.0,0.0,0.0,0.0,0.1166,0.3938,0.5987,0.9286,1.4122,1.4299,1.4319,1.4367,1.4618,1.4889,1.5181,1.5181,1.5181,1.5181,1.5181,1.5181,1.5181,1.5181,1.5181,1.5181,1.5181,1.5181,1.5181,1.5181,1.5181,1.5181,1.5181,1.5181,1.5181,0.0,0.0,0.0,0.0,0.0,0.0,0.0,0.0,0.0,0.0,0.0,0.0,0.0,0.0,0.0,0.0,0.0,0.0,0.0,0.0,0.0,0.0,0.0,0.0,0.0,0.0,0.0,0.0,0.0,0.0,0.0,0.0,0.0,0.0,0.0,0.0,0.0,0.0,0.0,0.0,0.0,0.0,0.0,0.0,0.0,0.0,0.0,0.0,0.0,0.0,0.0,0.0,0.0,0.0,0.0,0.0,0.0,0.0,0.0,0.0,0.0,0.0,0.0,0.0,0.0,0.0,0.0,0.0,0.0,0.0,0.0,0.0,0.0,0.0,0.0,0.0,0.0,0.0,0.0,0.0,0.0,0.0,0.0,0.0,0.0,0.0,0.0,0.1882,0.6347,0.6879,0.9286,1.4122,1.4299,1.4421,1.4672,1.4719,1.4889,1.5181,1.5181,1.5181,1.5181,1.5181,1.5181,1.5181,1.5181,1.5181,1.5181,1.5181,1.5181,1.5181,1.5181,1.5181,1.5181,1.5181,1.5181,1.5181,0.0,0.0,0.0,0.0,0.0,0.0,0.0,0.0,0.0,0.0,0.0,0.0,0.0,0.0,0.0,0.0,0.0,0.0,0.0,0.0,0.0,0.0,0.0,0.0,0.0,0.0,0.0,0.0,0.0,0.0,0.0,0.0,0.0,0.0,0.0,0.0,0.0,0.0,0.0,0.0,0.0,0.0,0.0,0.0,0.0,0.0,0.0,0.0,0.0,0.0,0.0,0.0,0.0,0.0,0.0,0.0,0.0,0.0,0.0,0.0,0.0,0.0,0.0,0.0,0.0,0.0,0.0,0.0,0.0,0.0,0.0,0.0,0.0,0.0,0.0,0.0,0.0,0.0,0.0,0.0,0.0,0.0,0.0,0.0,0.0,0.0,0.0,0.2061,0.6879,0.7057,0.9286,1.4122,1.4299,1.4441,1.4733,1.474,1.4889,1.5181,1.5181,1.5181,1.5181,1.5181,1.5181,1.5181,1.5181,1.5181,1.5181,1.5181,1.5181,1.5181,1.5181,1.5181,1.5181,1.5181,1.5181,1.5181,0.0,0.0,0.0,0.0,0.0,0.0,0.0,0.0,0.0,0.0,0.0,0.0,0.0,0.0,0.0,0.0,0.0,0.0,0.0,0.0,0.0,0.0,0.0,0.0,0.0,0.0,0.0,0.0,0.0,0.0,0.0,0.0,0.0,0.0,0.0,0.0,0.0,0.0,0.0,0.0,0.0,0.0,0.0,0.0,0.0,0.0,0.0,0.0,0.0,0.0,0.0,0.0,0.0,0.0,0.0,0.0,0.0,0.0,0.0,0.0,0.0,0.0,0.0,0.0,0.0,0.0,0.0,0.0,0.0,0.0,0.0,0.0,0.0,0.0,0.0,0.0,0.0,0.0,0.0,0.0,0.0,0.0,0.0,0.0,0.0,0.0,0.0,0.2061,0.6879,0.7057,0.9286,1.4122,1.4299,1.4441,1.4733,1.474,1.4889,1.5181,1.5181,1.5181,1.5181,1.5181,1.5181,1.5181,1.5181,1.5181,1.5181,1.5181,1.5181,1.5181,1.5181,1.5181,1.5181,1.5181,1.5181,1.5181,0.0,0.0,0.0,0.0,0.0,0.0,0.0,0.0,0.0,0.0,0.0,0.0,0.0,0.0,0.0,0.0,0.0,0.0,0.0,0.0,0.0,0.0,0.0,0.0,0.0,0.0,0.0,0.0,0.0,0.0,0.0,0.0,0.0,0.0,0.0,0.0,0.0,0.0,0.0,0.0,0.0,0.0,0.0,0.0,0.0,0.0,0.0,0.0,0.0,0.0,0.0,0.0,0.0,0.0,0.0,0.0,0.0,0.0,0.0,0.0,0.0,0.0,0.0,0.0,0.0,0.0,0.0,0.0,0.0,0.0,0.0,0.0,0.0,0.0,0.0,0.0,0.0,0.0,0.0,0.0,0.0,0.0,0.0,0.0,0.0,0.0,0.0,0.2061,0.6879,0.7057,0.9286,1.4122,1.4299,1.4441,1.4733,1.474,1.4889,1.5181,1.5181,1.5181,1.5181,1.5181,1.5181,1.5181,1.5181,1.5181,1.5181,1.5181,1.5181,1.5181,1.5181,1.5181,1.5181,1.5181,1.5181,1.5181,0.0,0.0,0.0,0.0,0.0,0.0,0.0,0.0,0.0,0.0,0.0,0.0,0.0,0.0,0.0,0.0,0.0,0.0,0.0,0.0,0.0,0.0,0.0,0.0,0.0,0.0,0.0,0.0,0.0,0.0,0.0,0.0,0.0,0.0,0.0,0.0,0.0,0.0,0.0,0.0,0.0,0.0,0.0,0.0,0.0,0.0,0.0,0.0,0.0,0.0,0.0,0.0,0.0,0.0,0.0,0.0,0.0,0.0,0.0,0.0,0.0,0.0,0.0,0.0,0.0,0.0,0.0,0.0,0.0,0.0,0.0,0.0,0.0,0.0,0.0,0.0,0.0,0.0,0.0,0.0,0.0,0.0,0.0,0.0,0.0,0.0,0.0,0.2061,0.6879,0.9913,1.2414,1.421,1.4299,1.4394,1.4597,1.4692,1.4841,1.5052,1.514,1.5181,1.5181,1.5181,1.5181,1.5181,1.5181,1.5181,1.5181,1.5181,1.5181,1.5181,1.5181,1.5181,1.5181,1.5181,1.5181,1.5181,0.0,0.0,0.0,0.0,0.0,0.0,0.0,0.0,0.0,0.0,0.0,0.0,0.0,0.0,0.0,0.0,0.0,0.0,0.0,0.0,0.0,0.0,0.0,0.0,0.0,0.0,0.0,0.0,0.0,0.0,0.0,0.0,0.0,0.0,0.0,0.0,0.0,0.0,0.0,0.0,0.0,0.0,0.0,0.0,0.0,0.0,0.0,0.0,0.0,0.0,0.0,0.0,0.0,0.0,0.0,0.0,0.0,0.0,0.0,0.0,0.0,0.0,0.0,0.0,0.0,0.0,0.0,0.0,0.0,0.0,0.0,0.0,0.0,0.0,0.0,0.0,0.0,0.0,0.0,0.0,0.0,0.0,0.0,0.0,0.0,0.0,0.0,0.2061,0.6879,1.1699,1.4299,1.4299,1.4299,1.4346,1.4441,1.4638,1.4821,1.497,1.5113,1.5181,1.5181,1.5181,1.5181,1.5181,1.5181,1.5181,1.5181,1.5181,1.5181,1.5181,1.5181,1.5181,1.5181,1.5181,1.5181,1.5181,0.0,0.0,0.0,0.0,0.0,0.0,0.0,0.0,0.0,0.0,0.0,0.0,0.0,0.0,0.0,0.0,0.0,0.0,0.0,0.0,0.0,0.0,0.0,0.0,0.0,0.0,0.0,0.0,0.0,0.0,0.0,0.0,0.0,0.0,0.0,0.0,0.0,0.0,0.0,0.0,0.0,0.0,0.0,0.0,0.0,0.0,0.0,0.0,0.0,0.0,0.0,0.0,0.0,0.0,0.0,0.0,0.0,0.0,0.0,0.0,0.0,0.0,0.0,0.0,0.0,0.0,0.0,0.0,0.0,0.0,0.0,0.0,0.0,0.0,0.0,0.0,0.0,0.0,0.0,0.0,0.0,0.0,0.0,0.0,0.0,0.0,0.0,0.215,0.6879,1.1699,1.4299,1.4299,1.4299,1.4299,1.4299,1.459,1.4814,1.497,1.5113,1.5181,1.5181,1.5181,1.5181,1.5181,1.5181,1.5181,1.5181,1.5181,1.5181,1.5181,1.5181,1.5181,1.5181,1.5181,1.5181,1.5181,0.0,0.0,0.0,0.0,0.0,0.0,0.0,0.0,0.0,0.0,0.0,0.0,0.0,0.0,0.0,0.0,0.0,0.0,0.0,0.0,0.0,0.0,0.0,0.0,0.0,0.0,0.0,0.0,0.0,0.0,0.0,0.0,0.0,0.0,0.0,0.0,0.0,0.0,0.0,0.0,0.0,0.0,0.0,0.0,0.0,0.0,0.0,0.0,0.0,0.0,0.0,0.0,0.0,0.0,0.0,0.0,0.0,0.0,0.0,0.0,0.0,0.0,0.0,0.0,0.0,0.0,0.0,0.0,0.0,0.0,0.0,0.0,0.0,0.0,0.0,0.0,0.0,0.0,0.0,0.0,0.0,0.0,0.0,0.0,0.0,0.0,0.3134,0.5633,0.7057,1.1699,1.4299,1.4299,1.4299,1.4299,1.4299,1.459,1.476,1.4808,1.5065,1.5181,1.5181,1.5181,1.5181,1.5181,1.5181,1.5181,1.5181,1.5181,1.5181,1.5181,1.5181,1.5181,1.5181,1.5181,1.5181,1.5181,0.0,0.0,0.0,0.0,0.0,0.0,0.0,0.0,0.0,0.0,0.0,0.0,0.0,0.0,0.0,0.0,0.0,0.0,0.0,0.0,0.0,0.0,0.0,0.0,0.0,0.0,0.0,0.0,0.0,0.0,0.0,0.0,0.0,0.0,0.0,0.0,0.0,0.0,0.0,0.0,0.0,0.0,0.0,0.0,0.0,0.0,0.0,0.0,0.0,0.0,0.0,0.0,0.0,0.0,0.0,0.0,0.0,0.0,0.0,0.0,0.0,0.0,0.0,0.0,0.0,0.0,0.0,0.0,0.0,0.0,0.0,0.0,0.0,0.0,0.0,0.0,0.0,0.0,0.0,0.0,0.0,0.0,0.0,0.0,0.0,0.0,0.4383,0.7057,0.7057,1.1699,1.4299,1.4299,1.4299,1.4299,1.4299,1.4529,1.4679,1.474,1.4984,1.5126,1.5181,1.5181,1.5181,1.5181,1.5181,1.5181,1.5181,1.5181,1.5181,1.5181,1.5181,1.5181,1.5181,1.5181,1.5181,1.5181,0.0,0.0,0.0,0.0,0.0,0.0,0.0,0.0,0.0,0.0,0.0,0.0,0.0,0.0,0.0,0.0,0.0,0.0,0.0,0.0,0.0,0.0,0.0,0.0,0.0,0.0,0.0,0.0,0.0,0.0,0.0,0.0,0.0,0.0,0.0,0.0,0.0,0.0,0.0,0.0,0.0,0.0,0.0,0.0,0.0,0.0,0.0,0.0,0.0,0.0,0.0,0.0,0.0,0.0,0.0,0.0,0.0,0.0,0.0,0.0,0.0,0.0,0.0,0.0,0.0,0.0,0.0,0.0,0.0,0.0,0.0,0.0,0.0,0.0,0.0,0.0,0.0,0.0,0.0,0.0,0.0,0.0,0.0,0.0,0.0,0.0,0.4383,0.7057,0.7057,1.1699,1.4299,1.4299,1.4299,1.4299,1.4299,1.4428,1.4577,1.474,1.4896,1.5045,1.5181,1.5181,1.5181,1.5181,1.5181,1.5181,1.5181,1.5181,1.5181,1.5181,1.5181,1.5181,1.5181,1.5181,1.5181,1.5181,0.0,0.0,0.0,0.0,0.0,0.0,0.0,0.0,0.0,0.0,0.0,0.0,0.0,0.0,0.0,0.0,0.0,0.0,0.0,0.0,0.0,0.0,0.0,0.0,0.0,0.0,0.0,0.0,0.0,0.0,0.0,0.0,0.0,0.0,0.0,0.0,0.0,0.0,0.0,0.0,0.0,0.0,0.0,0.0,0.0,0.0,0.0,0.0,0.0,0.0,0.0,0.0,0.0,0.0,0.0,0.0,0.0,0.0,0.0,0.0,0.0,0.0,0.0,0.0,0.0,0.0,0.0,0.0,0.0,0.0,0.0,0.0,0.0,0.0,0.0,0.0,0.0,0.0,0.0,0.0,0.0,0.0,0.0,0.0,0.0,0.0,0.4383,0.7057,0.7057,1.1699,1.4299,1.4299,1.4299,1.4299,1.4299,1.4333,1.4475,1.474,1.4896,1.5045,1.5181,1.5181,1.5181,1.5181,1.5181,1.5181,1.5181,1.5181,1.5181,1.5181,1.5181,1.5181,1.5181,1.5181,1.5181,1.5181,0.0,0.0,0.0,0.0,0.0,0.0,0.0,0.0,0.0,0.0,0.0,0.0,0.0,0.0,0.0,0.0,0.0,0.0,0.0,0.0,0.0,0.0,0.0,0.0,0.0,0.0,0.0,0.0,0.0,0.0,0.0,0.0,0.0,0.0,0.0,0.0,0.0,0.0,0.0,0.0,0.0,0.0,0.0,0.0,0.0,0.0,0.0,0.0,0.0,0.0,0.0,0.0,0.0,0.0,0.0,0.0,0.0,0.0,0.0,0.0,0.0,0.0,0.0,0.0,0.0,0.0,0.0,0.0,0.0,0.0,0.0,0.0,0.0,0.0,0.0,0.0,0.0,0.0,0.0,0.0,0.0,0.0,0.0,0.0,0.0,0.0,0.4383,0.7057,0.7057,1.1699,1.4299,1.4299,1.4299,1.4299,1.4299,1.4299,1.4414,1.4631,1.4787,1.4936,1.5086,1.5153,1.5181,1.5181,1.5181,1.5181,1.5181,1.5181,1.5181,1.5181,1.5181,1.5181,1.5181,1.5181,1.5181,1.5181,0.0,0.0,0.0,0.0,0.0,0.0,0.0,0.0,0.0,0.0,0.0,0.0,0.0,0.0,0.0,0.0,0.0,0.0,0.0,0.0,0.0,0.0,0.0,0.0,0.0,0.0,0.0,0.0,0.0,0.0,0.0,0.0,0.0,0.0,0.0,0.0,0.0,0.0,0.0,0.0,0.0,0.0,0.0,0.0,0.0,0.0,0.0,0.0,0.0,0.0,0.0,0.0,0.0,0.0,0.0,0.0,0.0,0.0,0.0,0.0,0.0,0.0,0.0,0.0,0.0,0.0,0.0,0.0,0.0,0.0,0.0,0.0,0.0,0.0,0.0,0.0,0.0,0.0,0.0,0.0,0.0,0.0,0.0,0.0,0.0,0.0,0.4383,0.7057,0.7057,1.1699,1.4299,1.4299,1.4299,1.4299,1.4299,1.4299,1.436,1.4475,1.4631,1.4794,1.4977,1.512,1.5181,1.5181,1.5181,1.5181,1.5181,1.5181,1.5181,1.5181,1.5181,1.5181,1.5181,1.5181,1.5181,1.5181,0.0,0.0,0.0,0.0,0.0,0.0,0.0,0.0,0.0,0.0,0.0,0.0,0.0,0.0,0.0,0.0,0.0,0.0,0.0,0.0,0.0,0.0,0.0,0.0,0.0,0.0,0.0,0.0,0.0,0.0,0.0,0.0,0.0,0.0,0.0,0.0,0.0,0.0,0.0,0.0,0.0,0.0,0.0,0.0,0.0,0.0,0.0,0.0,0.0,0.0,0.0,0.0,0.0,0.0,0.0,0.0,0.0,0.0,0.0,0.0,0.0,0.0,0.0,0.0,0.0,0.0,0.0,0.0,0.0,0.0,0.0,0.0,0.0,0.0,0.0,0.0,0.0,0.0,0.0,0.0,0.0,0.0,0.0,0.0,0.0,0.0,0.4383,0.7057,0.7057,1.1699,1.4299,1.4299,1.4299,1.4299,1.4299,1.4299,1.4306,1.4333,1.4475,1.4692,1.4977,1.512,1.5181,1.5181,1.5181,1.5181,1.5181,1.5181,1.5181,1.5181,1.5181,1.5181,1.5181,1.5181,1.5181,1.5181,0.0,0.0,0.0,0.0,0.0,0.0,0.0,0.0,0.0,0.0,0.0,0.0,0.0,0.0,0.0,0.0,0.0,0.0,0.0,0.0,0.0,0.0,0.0,0.0,0.0,0.0,0.0,0.0,0.0,0.0,0.0,0.0,0.0,0.0,0.0,0.0,0.0,0.0,0.0,0.0,0.0,0.0,0.0,0.0,0.0,0.0,0.0,0.0,0.0,0.0,0.0,0.0,0.0,0.0,0.0,0.0,0.0,0.0,0.0,0.0,0.0,0.0,0.0,0.0,0.0,0.0,0.0,0.0,0.0,0.0,0.0,0.0,0.0,0.0,0.0,0.0,0.0,0.0,0.0,0.0,0.0,0.0,0.0,0.0,0.0,0.0,0.4383,0.7057,0.7057,1.1699,1.4299,1.4299,1.4299,1.4299,1.4299,1.4299,1.4299,1.4299,1.4441,1.4631,1.4848,1.4997,1.5106,1.5181,1.5181,1.5181,1.5181,1.5181,1.5181,1.5181,1.5181,1.5181,1.5181,1.5181,1.5181,1.5181]}]]